GFSWCAN_sfc_temp_000.txt.gz
Temp
51 51 51 51 51 51 52 52 53 53 54 55 53 52 52 52 52 60 68 70 67 66 65 70 71 68 68 66 54 61 57 57 52 38 40 45 39 47 47 52 42 39 37 34 38 34 32 59 58 44 51 54 52 52
49 49 50 50 50 50 51 51 52 52 53 53 54 52 52 52 52 54 71 71 71 68 63 69 68 69 68 69 67 63 62 59 57 50 45 47 38 37 41 40 60 46 48 45 46 44 58 60 57 58 53 51 51 50
48 48 49 50 50 49 50 50 50 51 52 52 53 52 52 52 53 54 70 70 72 61 64 65 64 69 73 70 73 61 63 68 63 63 46 41 35 43 35 43 48 57 63 48 47 56 59 59 59 56 55 54 55 55
48 48 48 49 50 50 50 49 49 50 51 52 52 52 52 52 52 52 69 69 70 56 38 58 69 67 70 73 73 72 68 66 64 59 42 38 37 55 41 48 47 53 58 53 51 57 59 56 55 55 54 55 55 56
48 48 48 48 48 49 49 49 49 49 50 50 50 50 50 53 52 60 70 70 70 64 46 54 66 67 70 71 70 69 66 63 58 45 37 39 52 51 49 48 46 57 53 47 45 56 53 52 54 55 53 53 56 55
48 48 48 48 48 48 49 48 49 49 48 48 49 50 50 50 51 66 63 69 70 69 53 45 62 62 66 67 67 66 65 63 61 53 42 52 60 53 38 40 54 60 63 62 56 57 55 54 56 57 55 57 57 55
48 48 48 48 48 48 48 48 48 48 48 48 49 50 50 50 61 59 57 58 54 65 50 45 50 58 61 65 64 63 64 61 59 55 49 49 53 55 38 39 54 59 61 62 59 56 51 53 52 56 57 56 54 57
48 48 47 47 47 47 47 48 48 48 48 49 49 49 50 50 52 58 60 56 56 63 57 45 43 45 58 46 46 55 50 52 54 53 49 47 53 49 41 54 57 60 60 56 55 55 55 57 57 57 57 56 53 52
48 48 47 48 47 47 47 48 48 48 49 49 49 50 55 55 54 58 50 52 64 59 51 42 38 37 56 44 45 46 49 40 51 41 43 46 41 39 48 53 56 59 55 54 55 56 56 54 54 54 54 52 50 49
48 47 47 47 47 47 47 48 48 48 48 48 50 47 41 45 50 51 57 54 51 54 52 39 49 41 52 40 38 40 40 39 36 39 42 36 39 52 56 57 58 55 56 56 48 47 49 49 50 50 50 50 49 45
48 48 47 47 47 47 48 48 48 48 48 46 41 38 44 48 51 48 42 41 41 39 44 43 42 40 48 40 37 41 36 37 34 37 37 34 35 45 53 54 54 55 56 56 56 54 53 52 49 48 45 43 39 38
48 48 48 47 47 48 47 48 48 49 46 45 45 46 45 42 37 38 36 36 37 39 39 36 40 45 42 49 41 36 34 34 32 39 33 33 45 52 52 51 53 55 54 53 54 52 51 50 49 41 39 37 35 35
47 48 48 47 47 48 48 47 47 47 47 44 39 36 37 33 32 32 32 33 34 34 35 35 34 37 38 39 34 33 32 32 36 33 33 41 47 51 51 51 52 52 46 47 51 51 48 46 42 33 35 33 33 34
47 48 48 47 47 47 47 47 48 50 45 36 33 32 32 32 33 33 33 32 34 34 35 35 33 34 33 33 32 32 33 35 31 30 32 41 47 50 51 51 50 46 37 38 41 40 36 35 34 33 32 34 32 32
47 48 48 47 47 46 46 47 47 51 45 36 35 31 32 33 34 33 33 34 34 37 36 34 34 36 33 32 33 32 30 29 31 32 35 41 43 45 43 46 42 38 33 36 41 37 33 32 33 34 34 33 33 34
47 46 50 47 47 47 46 47 48 47 45 40 36 33 33 33 32 32 32 33 38 36 38 37 33 33 32 33 30 30 30 29 34 36 41 41 39 40 41 42 41 41 39 39 38 36 35 33 32 34 34 34 33 33
45 47 47 46 45 46 47 46 44 39 37 34 32 34 34 34 33 33 35 36 40 35 32 35 31 30 33 31 30 34 32 34 35 39 40 40 40 41 42 41 36 38 39 39 38 39 37 35 35 34 33 36 36 35
48 48 46 46 49 47 43 45 42 40 35 39 35 33 36 35 34 34 36 40 39 38 38 34 37 31 30 30 33 36 38 36 39 41 41 42 43 42 44 42 44 41 40 37 36 37 36 34 34 36 38 40 38 37
45 48 46 46 49 44 38 38 40 35 34 35 35 37 35 34 36 36 36 38 40 39 38 36 32 33 34 37 35 33 36 38 39 41 43 42 41 40 39 40 39 39 39 39 40 40 41 41 41 42 42 41 39 40
46 46 45 45 47 41 35 38 44 38 36 37 36 35 34 33 34 33 34 35 37 37 33 33 35 38 39 41 42 41 41 42 42 39 39 42 43 40 40 40 41 41 41 41 41 38 42 42 43 43 41 40 37 35
45 43 43 43 40 45 43 40 38 40 39 35 34 37 32 34 33 34 34 36 34 34 34 41 37 36 41 41 44 44 42 43 41 39 39 39 42 42 42 43 43 43 42 41 38 39 37 38 39 41 35 34 34 33
41 43 38 38 35 36 39 41 39 41 37 34 33 37 32 31 31 32 35 33 35 39 42 42 43 45 42 39 42 42 42 41 42 41 37 39 39 40 41 43 41 39 39 38 39 36 36 39 39 38 35 34 34 34
41 38 35 34 32 32 31 39 34 36 31 31 34 31 30 31 32 35 31 36 38 44 46 46 45 43 42 43 39 41 41 40 41 42 41 42 43 39 40 41 41 36 36 39 41 39 37 35 36 34 33 33 33 32
39 32 32 32 33 29 33 31 37 36 34 32 31 30 30 31 33 31 30 37 41 44 43 41 43 42 41 37 40 44 43 44 43 42 40 41 39 40 42 41 41 40 39 40 38 36 35 33 33 33 33 32 32 32
31 29 31 27 32 30 29 29 30 31 29 30 29 29 29 31 29 29 29 35 33 32 33 37 41 43 38 39 43 42 39 39 37 37 38 41 38 37 37 38 38 39 39 35 34 33 33 33 33 32 32 32 31 30
27 29 29 29 29 30 30 27 29 30 30 28 29 30 31 30 27 27 34 32 31 31 32 32 33 36 38 38 35 33 33 35 33 31 35 33 32 30 29 29 31 32 30 31 30 31 31 32 32 32 31 31 31 30
26 27 32 35 34 32 29 31 33 31 28 27 29 27 27 24 26 31 32 30 30 31 33 33 32 31 31 31 31 31 31 30 29 29 31 33 32 28 27 24 24 26 29 29 29 29 28 29 30 30 30 31 30 30
32 32 26 30 32 34 29 30 28 28 30 36 32 26 26 28 27 28 27 30 31 32 33 32 31 30 30 29 30 30 28 28 29 30 32 30 30 28 26 26 27 26 26 26 26 27 27 27 27 28 27 26 27 28
30 33 32 26 30 30 31 31 32 36 39 36 31 31 30 26 25 26 26 28 30 29 27 26 26 28 28 29 29 27 26 23 19 17 17 19 20 21 23 23 23 23 23 23 24 25 25 26 26 26 26 26 25 25
28 32 30 29 27 29 30 32 32 32 38 35 36 34 29 23 23 26 26 25 23 22 24 25 24 23 22 21 21 23 24 22 20 16 13 13 15 18 20 19 18 19 20 20 21 22 25 24 24 26 22 21 19 20
32 32 30 31 30 30 30 30 31 31 32 32 32 31 23 20 20 22 22 23 24 23 22 21 21 22 19 19 18 17 17 20 19 18 18 17 17 16 16 16 17 18 18 18 18 19 20 19 20 20 17 15 14 14
31 29 29 28 29 30 31 30 30 30 32 30 30 26 25 24 18 18 19 21 20 18 17 18 16 16 19 20 21 21 18 19 18 17 17 16 15 15 15 15 15 15 13 14 16 18 16 16 16 14 13 11 10 9
29 29 29 28 29 29 30 29 30 29 29 29 26 25 20 20 14 17 21 21 19 17 16 16 17 19 19 19 18 19 19 18 17 17 16 14 13 12 12 13 14 12 10 10 14 15 13 11 10 9 7 6 5 3

GFSWCAN_sfc_temp_003.txt.gz
Temp
51 51 51 51 51 51 52 52 53 54 55 54 52 52 52 52 52 56 58 61 59 52 54 59 60 56 56 51 41 49 46 44 36 34 33 33 30 34 35 41 35 32 28 31 30 26 24 53 51 40 42 45 45 45
51 50 50 50 51 51 51 51 52 53 54 53 52 52 52 52 52 53 59 62 62 56 54 59 59 59 60 59 53 51 49 49 44 37 36 37 33 34 31 29 48 35 38 33 36 34 46 52 49 48 48 45 45 44
49 49 49 50 50 51 50 50 51 52 53 53 52 51 51 52 52 52 57 59 59 50 52 54 54 60 65 62 63 51 49 57 51 49 40 38 34 37 32 34 36 47 52 37 39 48 51 49 50 51 49 47 47 48
48 48 49 49 50 51 50 49 50 51 52 52 51 50 49 51 51 53 57 58 55 48 36 48 62 58 63 64 64 62 58 56 52 46 38 36 33 44 34 39 36 43 49 45 40 48 48 49 49 49 49 50 51 54
47 47 47 48 49 49 50 50 49 50 50 48 49 49 49 49 51 54 58 59 59 53 39 42 58 60 64 63 61 59 57 53 46 38 36 34 35 39 35 35 33 49 45 37 36 48 46 44 48 51 50 50 51 51
47 47 47 47 48 49 49 49 49 49 48 48 49 49 50 49 49 55 52 56 55 57 46 38 52 53 58 60 58 57 56 53 49 40 35 41 51 41 34 33 46 53 55 55 47 51 49 49 51 54 51 51 51 50
47 47 47 47 48 48 48 49 49 49 47 48 49 50 50 51 54 51 50 52 50 54 42 38 37 47 53 55 50 51 53 50 48 41 36 36 40 46 35 35 47 52 55 53 51 50 45 50 48 52 53 51 51 49
47 47 47 47 47 48 48 48 49 49 49 48 49 50 51 50 50 52 53 51 50 52 46 38 38 39 50 39 39 46 41 44 45 43 42 38 40 35 32 44 50 54 53 49 49 51 51 52 52 54 53 49 46 43
47 47 47 47 47 47 47 48 48 49 49 49 50 51 53 51 45 49 50 49 55 50 38 36 35 34 46 41 40 40 42 36 42 36 38 40 36 36 42 45 49 51 48 47 50 52 52 50 51 50 47 45 42 39
47 47 47 47 47 47 48 48 48 49 49 49 51 48 40 44 49 49 51 43 42 41 42 36 41 36 44 36 35 36 35 35 34 36 40 34 36 43 48 50 50 49 50 50 44 43 45 46 45 44 43 42 41 38
47 47 47 47 47 47 48 48 48 48 49 47 41 38 44 49 49 44 38 37 39 36 41 40 38 37 42 36 35 36 34 34 32 32 34 32 33 39 46 47 49 51 52 52 51 49 48 46 43 40 38 36 34 34
48 48 47 47 47 47 47 48 48 48 45 45 45 46 45 42 37 37 35 35 35 36 36 36 38 39 38 43 35 34 34 33 30 36 33 30 34 44 45 46 48 50 50 49 49 47 44 43 41 35 34 33 29 30
47 47 47 48 48 47 47 48 47 47 47 44 40 36 38 33 32 32 31 33 33 33 34 34 33 35 36 37 33 33 32 31 34 32 30 29 44 46 47 44 43 44 42 42 43 42 41 40 36 29 30 27 28 30
47 47 47 47 47 47 47 47 48 48 43 35 34 32 32 31 32 31 32 32 33 33 33 34 33 34 33 33 32 31 31 32 29 25 23 34 40 42 44 43 42 39 35 35 37 35 32 30 27 25 25 26 23 25
47 48 48 46 47 47 47 47 48 47 40 34 34 30 31 32 32 32 33 33 34 35 34 33 33 34 32 31 32 30 28 27 28 29 31 33 37 40 38 39 36 34 32 33 36 32 29 28 25 28 28 28 31 33
47 47 47 47 47 47 47 47 45 42 34 35 34 31 32 32 32 32 32 32 36 34 35 34 32 32 30 30 28 29 28 26 30 32 33 34 36 37 37 37 36 35 35 36 34 32 31 27 26 29 31 33 33 33
47 43 46 46 47 47 47 43 40 34 34 34 31 33 33 33 32 32 33 34 38 34 32 32 30 28 30 28 28 31 30 32 33 33 33 36 36 36 37 36 33 34 35 34 32 34 31 29 28 32 30 33 30 30
43 46 46 47 47 46 42 42 39 35 30 33 33 32 33 33 33 33 34 35 34 33 32 30 32 28 28 26 27 31 31 33 32 32 33 35 37 37 39 37 39 36 35 31 31 32 29 27 29 31 32 33 31 30
44 45 46 46 45 40 35 36 38 32 31 32 32 33 33 32 33 34 33 34 35 35 33 31 29 27 28 29 32 32 33 32 31 33 33 37 37 36 36 37 36 35 34 34 34 32 32 34 33 32 32 31 31 30
45 45 45 44 44 35 33 34 39 32 32 32 33 32 31 31 32 33 33 33 34 33 31 26 27 30 30 31 32 31 32 32 31 29 30 31 32 35 35 34 32 34 33 34 33 29 30 31 31 30 27 27 27 28
44 43 44 43 38 39 35 33 33 34 31 31 32 32 29 31 32 32 33 33 33 32 26 28 31 33 31 31 32 32 33 33 31 29 29 29 30 31 31 32 33 31 29 27 26 30 26 29 32 30 32 32 29 33
41 44 36 38 33 33 32 34 33 31 32 31 31 32 29 28 29 31 32 31 31 29 29 29 30 31 30 32 32 34 35 35 35 30 30 29 28 28 28 28 27 26 27 28 28 30 30 29 26 25 31 33 33 33
42 39 34 33 31 31 30 33 31 31 26 27 29 27 27 27 29 30 29 32 30 30 31 31 34 36 34 35 33 35 33 34 29 29 27 28 29 25 27 29 26 25 29 30 29 31 31 29 25 27 29 32 32 32
40 33 32 31 30 28 31 28 31 30 30 28 27 26 25 27 27 25 24 24 27 30 32 32 30 29 29 29 30 31 31 31 30 30 32 30 28 29 29 29 29 30 28 31 31 32 33 31 24 30 32 32 32 26
31 26 26 27 31 24 20 24 28 25 25 26 26 25 25 23 23 18 19 22 25 29 31 33 32 31 28 29 31 29 29 29 27 25 25 28 25 25 26 25 25 24 27 26 26 27 28 29 30 30 28 25 25 19
26 26 22 27 28 24 23 24 25 25 26 26 26 22 22 23 15 15 24 29 29 28 29 29 29 29 28 28 26 27 27 26 24 18 22 25 25 24 22 21 20 21 22 24 23 22 22 23 25 26 28 27 24 25
25 26 29 31 31 29 28 28 28 24 24 24 24 23 19 11 11 24 27 28 28 29 30 30 29 28 27 28 28 28 26 23 20 24 23 24 24 22 20 17 16 18 21 21 20 20 20 21 22 22 24 23 25 26
29 29 25 28 29 29 26 25 24 24 24 27 25 19 16 15 19 25 26 28 29 29 29 27 27 25 26 26 26 21 16 16 17 18 21 25 22 17 16 15 17 19 17 18 17 18 19 20 21 21 23 22 22 19
28 30 28 23 25 25 24 22 22 25 28 25 20 18 21 22 23 24 25 26 27 26 23 22 17 17 17 18 23 17 12 13 9 5 3 3 8 10 15 15 14 13 15 15 17 19 19 21 20 20 21 18 18 14
27 30 23 20 18 22 27 29 29 30 27 30 28 24 23 20 20 22 22 20 17 18 21 22 14 11 10 7 8 12 16 10 5 4 1 3 9 11 12 12 11 12 13 13 12 14 18 18 19 19 15 14 14 10
29 29 29 27 27 27 28 29 29 30 31 30 28 24 16 15 14 17 16 19 17 13 13 11 13 11 6 8 9 4 3 4 7 9 4 4 7 3 6 9 9 11 11 9 9 10 14 14 14 13 8 8 8 6
28 26 27 23 25 28 30 28 28 28 29 28 24 24 20 16 7 8 9 13 9 7 8 4 4 8 5 8 11 7 15 11 11 3 3 5 1 0 3 6 8 9 7 7 8 8 12 10 9 7 6 4 3 2
25 22 22 17 16 16 24 16 16 15 16 15 17 15 11 8 4 8 13 15 7 3 2 2 2 3 10 6 2 9 6 2 4 12 12 11 7 5 2 3 8 7 1 5 6 10 8 7 4 3 2 0 -1 -2

GFSWCAN_sfc_temp_006.txt.gz
Temp
51 51 51 50 51 51 51 52 52 53 52 51 51 51 51 51 52 57 56 57 57 49 51 55 55 53 51 47 41 48 45 42 35 31 27 32 30 33 32 38 34 31 27 24 23 19 25 48 49 39 42 42 44 43
51 50 50 50 50 51 52 52 52 52 52 51 51 51 50 51 51 54 56 58 58 53 53 56 57 56 57 57 50 48 48 45 41 36 35 37 32 33 28 29 43 36 36 32 36 34 45 48 48 47 46 43 43 43
50 50 50 50 50 51 50 50 51 51 51 50 50 49 49 50 52 55 55 55 54 45 49 52 52 59 62 59 59 49 45 52 48 44 37 36 29 35 31 33 34 45 47 35 37 46 46 49 46 48 47 45 45 46
49 49 49 49 49 49 49 49 50 50 50 48 48 48 48 49 50 54 55 54 50 43 36 46 58 56 62 62 61 59 55 51 47 42 36 35 30 41 31 36 34 41 46 42 38 45 44 46 46 46 47 47 47 49
48 48 48 48 49 50 50 49 49 48 47 48 49 49 49 49 50 55 55 53 55 51 39 42 53 58 60 60 58 56 54 50 43 37 34 34 31 36 35 32 32 45 44 37 39 46 46 45 46 48 47 47 49 50
47 47 47 48 48 49 50 51 48 47 47 48 49 50 50 50 50 54 49 54 52 53 44 37 47 50 54 57 55 53 53 49 45 40 36 38 46 38 34 37 44 48 52 51 46 50 49 47 48 50 48 49 48 48
46 47 47 47 48 48 49 49 48 47 47 48 50 50 50 50 52 51 49 51 49 51 41 38 36 44 50 49 46 47 48 46 46 39 36 37 37 42 34 32 45 49 52 52 51 48 44 46 45 50 51 49 47 45
47 47 47 47 47 48 48 49 49 48 47 48 50 50 51 50 51 50 51 50 50 48 42 36 35 37 48 37 38 43 39 43 43 41 38 36 37 34 34 42 47 51 52 49 48 48 47 49 49 50 49 47 43 40
46 46 46 47 47 46 47 48 49 49 48 49 50 51 50 48 46 50 48 48 52 48 37 34 34 35 43 40 38 36 41 34 41 36 36 39 35 36 42 45 46 48 46 45 47 48 48 48 48 47 45 43 40 38
46 46 46 46 46 48 47 48 48 49 49 49 49 44 41 44 48 49 47 43 42 42 42 35 38 36 42 35 34 35 34 34 34 36 40 34 36 41 43 47 48 48 48 47 41 41 43 43 42 42 42 42 41 38
47 47 46 46 47 47 48 48 48 49 50 47 42 39 44 49 46 42 37 36 38 36 39 38 37 37 38 36 35 35 34 33 32 32 35 31 32 37 44 44 46 47 49 49 47 45 45 43 41 39 37 36 34 34
47 47 47 47 47 47 48 48 49 47 45 45 45 46 45 41 38 36 35 35 35 35 35 35 36 39 37 39 36 34 34 33 30 35 33 30 34 41 42 42 44 46 45 43 43 41 41 41 40 36 34 32 29 29
47 47 47 47 47 47 48 48 47 47 47 44 41 36 39 34 33 35 34 33 33 33 34 34 34 35 36 37 33 33 32 31 34 32 30 32 41 42 42 41 41 41 39 39 41 40 40 39 35 30 31 27 24 27
46 47 47 47 47 47 47 48 48 47 43 36 34 32 33 30 31 31 32 32 33 33 33 33 33 33 33 33 32 31 32 32 29 26 24 32 37 39 39 39 40 39 36 36 36 35 31 30 29 26 24 24 20 23
47 47 47 46 47 47 47 47 47 44 38 34 34 29 29 31 32 32 32 33 33 35 34 33 33 34 32 31 31 30 28 26 28 27 30 32 35 37 37 37 34 32 31 34 35 32 30 27 24 27 26 24 29 31
47 47 44 46 47 47 47 45 43 39 35 35 33 31 32 32 32 32 32 32 36 34 34 33 32 31 29 30 27 27 27 25 29 32 32 34 36 36 36 36 36 36 35 35 34 32 30 27 25 28 28 28 27 27
48 42 46 46 46 47 46 41 36 34 31 34 30 32 32 32 32 32 33 33 37 33 32 32 26 26 30 27 27 31 29 31 33 33 32 34 36 36 36 35 33 34 35 34 32 34 30 28 24 26 27 33 29 29
41 44 46 46 46 44 39 41 36 33 31 31 30 31 32 32 32 33 33 34 34 32 32 30 31 28 27 25 27 31 31 32 32 32 33 34 36 36 38 36 37 35 34 30 29 30 28 26 28 30 32 32 29 29
43 44 45 46 44 38 36 36 36 27 30 31 31 32 32 32 32 33 33 34 34 32 32 29 24 23 28 29 32 32 32 30 31 32 32 36 36 35 34 36 35 34 34 34 34 31 31 33 31 30 30 28 25 24
45 44 45 45 44 33 33 32 37 30 32 30 32 31 30 30 32 32 33 33 33 32 31 23 24 25 28 29 29 27 28 28 27 26 28 30 30 34 34 33 30 32 31 33 31 26 28 30 30 30 25 29 31 30
43 43 42 39 37 34 33 32 32 33 30 30 31 30 28 31 30 31 32 32 32 31 25 27 31 32 28 28 27 27 30 29 27 26 26 26 28 28 28 29 30 28 26 25 22 27 24 27 30 29 28 32 32 32
40 42 33 36 33 33 32 33 32 32 31 30 30 30 28 27 28 31 30 29 29 25 26 25 30 28 28 31 31 32 33 33 33 27 26 26 27 28 28 27 26 23 24 22 25 27 29 27 29 29 30 27 29 31
41 38 34 34 30 29 26 33 31 30 27 27 30 26 25 26 28 30 28 32 31 27 29 29 33 35 34 32 31 31 30 31 29 28 26 26 26 22 24 25 22 21 24 27 29 28 27 28 31 31 31 30 31 31
40 33 31 29 30 27 29 29 31 28 27 27 26 24 23 25 27 25 17 22 30 30 30 29 27 31 29 29 27 27 27 27 25 24 25 24 23 23 23 22 21 22 22 23 23 23 24 23 24 25 27 27 29 30
29 22 28 16 27 21 15 17 24 21 16 19 21 18 22 23 13 11 14 23 27 29 29 30 28 30 28 27 27 27 26 26 23 22 19 21 16 17 20 21 19 18 18 17 17 16 17 18 19 20 22 24 25 26
24 22 25 21 19 18 18 19 18 18 18 24 24 21 23 23 18 11 22 25 27 26 28 27 27 26 27 27 25 24 22 23 22 16 21 21 18 14 11 11 12 12 16 15 15 13 13 15 16 17 18 20 23 23
18 20 26 29 29 26 27 27 27 25 22 23 17 22 22 18 14 20 25 26 26 27 27 27 27 26 25 25 24 22 18 17 14 17 20 19 17 16 13 11 9 11 13 13 13 12 12 13 14 15 17 19 21 16
25 24 22 26 28 28 25 25 24 24 25 26 24 19 18 13 15 21 23 26 27 26 25 25 24 23 23 20 18 13 11 11 12 18 16 13 10 10 6 3 5 13 7 7 11 11 11 13 14 16 16 17 13 13
26 28 27 24 24 24 25 24 24 27 29 24 19 17 19 20 18 19 20 22 24 24 20 18 14 15 16 16 10 6 5 5 4 -2 -5 -7 -5 1 6 1 -0 5 7 9 10 12 13 13 17 16 15 13 10 9
24 25 20 18 20 21 25 27 27 28 28 28 22 21 19 16 17 18 18 19 18 17 17 13 9 9 0 -0 -2 4 5 -4 0 -2 -7 -5 -0 1 -2 1 5 5 6 8 5 6 9 11 14 11 11 10 8 6
27 27 27 23 24 25 26 28 29 30 30 29 22 17 13 13 14 15 14 13 12 10 8 4 4 0 1 2 0 -4 -1 5 3 -2 -3 -3 -5 -8 -6 -2 -1 -1 4 4 2 5 5 4 5 5 3 4 3 2
26 24 20 21 18 25 28 27 27 25 24 21 19 19 14 8 0 3 8 5 4 1 -4 -6 -4 -0 0 2 2 1 2 -2 -2 -1 1 0 -5 -8 -6 -3 -2 -4 1 -4 -2 3 1 -1 -1 0 -1 -1 -1 -1
14 7 11 3 11 10 10 9 6 6 11 15 14 7 5 4 2 6 9 3 1 -3 -4 -5 -7 -8 -4 -3 -5 -6 -1 -6 -6 3 4 5 -0 -2 -5 -5 -4 -9 -11 -9 -7 -1 -4 -5 -5 -3 -3 -4 -4 -4

GFSWCAN_sfc_temp_009.txt.gz
Temp
51 51 51 50 50 51 51 51 51 51 51 50 50 50 50 51 52 58 54 55 55 47 49 52 54 50 49 47 41 46 44 42 34 31 27 27 27 32 32 36 34 31 27 22 25 19 27 46 46 39 43 41 45 43
51 50 50 50 50 51 51 51 51 50 50 51 49 49 49 50 51 55 55 56 55 52 51 54 54 54 54 55 48 45 47 44 40 34 30 32 31 32 28 29 40 33 36 32 35 34 44 46 46 46 46 44 43 43
50 50 50 50 50 50 51 50 50 50 48 47 48 48 49 49 52 56 54 53 52 45 49 51 50 57 60 57 57 48 43 49 45 42 37 32 28 30 29 31 32 41 44 34 37 44 45 46 47 47 46 45 44 45
50 50 50 50 50 50 50 50 49 48 47 48 48 49 49 50 52 55 52 52 49 43 36 45 55 55 60 59 58 56 52 48 44 40 35 33 29 39 29 35 33 40 43 40 36 43 44 47 47 47 46 45 45 47
48 49 49 49 49 49 49 48 47 47 48 49 49 50 50 50 51 55 52 51 52 51 38 38 52 55 56 57 55 54 52 48 41 36 33 33 30 35 34 32 33 43 42 35 36 45 45 45 48 47 45 45 47 46
48 48 48 49 49 50 49 47 47 47 48 49 49 50 50 51 52 54 49 52 51 50 43 38 45 48 51 52 52 52 50 47 43 40 34 36 42 37 34 35 43 47 49 49 47 48 47 46 47 47 47 47 47 45
47 48 48 48 48 49 49 47 46 47 48 49 49 49 49 51 51 50 47 49 49 50 41 38 36 43 46 47 44 46 46 45 45 39 36 37 35 41 34 33 47 47 49 49 49 47 42 44 44 47 47 45 46 45
47 47 47 47 48 48 48 48 47 47 48 49 50 49 49 50 50 50 50 48 48 46 41 35 34 36 46 38 38 44 38 42 42 40 39 37 36 35 34 41 45 50 50 48 48 48 47 47 47 45 45 44 42 40
46 46 46 46 47 48 48 48 48 47 48 50 50 50 50 48 46 49 48 48 49 47 37 34 34 35 42 39 37 37 41 34 40 37 36 37 34 35 40 43 44 46 45 46 45 45 45 44 44 45 43 42 39 37
46 46 46 47 47 47 47 48 48 48 50 49 48 43 40 44 49 49 47 42 40 41 40 33 38 36 42 34 34 34 34 36 35 37 39 34 36 40 41 42 43 45 46 45 40 38 39 40 40 40 39 38 40 39
47 47 47 47 47 47 47 48 49 50 50 45 42 39 45 49 45 41 37 36 38 36 39 37 36 36 41 36 35 35 34 33 33 32 35 33 32 36 41 40 42 43 43 42 43 43 42 40 37 35 37 37 36 35
47 47 47 47 47 47 47 49 49 46 45 45 43 45 43 39 37 35 34 35 35 34 35 35 36 39 37 38 36 35 34 33 30 35 33 31 31 36 37 37 39 40 39 38 38 38 39 39 39 36 35 33 31 31
47 47 47 47 47 47 48 47 47 47 47 44 41 37 41 34 34 34 33 32 33 33 34 34 34 34 36 37 34 33 32 31 33 32 31 31 37 40 38 38 38 39 38 38 37 38 38 37 34 30 30 29 27 29
47 47 47 47 47 47 47 47 48 47 43 36 34 33 33 31 31 31 32 32 32 33 33 33 33 33 33 33 32 31 32 32 29 24 23 32 34 35 37 38 38 36 34 35 35 34 31 30 29 28 27 24 22 25
46 46 46 46 47 47 47 46 46 44 37 34 34 28 29 31 32 32 32 33 33 34 34 33 33 34 32 31 31 29 28 26 26 24 30 32 34 35 35 36 34 32 32 33 34 31 30 28 27 28 27 25 29 29
47 46 44 46 46 47 46 44 40 38 32 35 33 30 32 32 32 32 32 32 35 34 33 33 32 31 29 30 26 22 22 22 28 31 32 33 34 33 33 35 35 35 34 34 32 31 29 27 27 29 28 26 25 24
46 41 45 46 46 46 46 40 34 33 30 34 31 32 32 32 32 32 33 33 36 33 31 32 26 24 30 25 25 30 27 31 32 33 32 34 34 34 34 34 32 34 34 34 32 34 30 27 24 25 27 32 28 28
41 42 45 46 45 42 39 38 32 31 32 31 30 31 32 32 32 32 33 33 33 33 32 29 31 25 25 23 26 31 32 32 33 32 32 34 35 36 36 35 36 35 34 31 29 30 28 26 29 30 31 32 29 28
41 42 45 45 43 36 32 35 35 26 30 31 31 31 31 32 32 32 33 33 33 30 27 24 21 20 22 27 32 32 32 28 30 31 31 34 35 34 33 35 34 33 33 33 33 29 29 31 29 29 29 27 25 28
45 45 44 44 43 32 31 28 36 30 31 28 31 30 30 30 31 32 32 33 32 32 28 22 24 25 26 26 27 25 29 31 26 23 25 26 27 31 31 30 27 30 29 29 28 25 28 28 29 29 27 30 30 31
40 39 40 38 35 33 33 32 32 32 30 30 30 30 28 30 30 30 32 32 31 30 23 25 26 31 27 27 26 26 29 28 26 25 25 26 26 28 28 28 28 26 24 25 27 27 28 27 28 29 29 30 31 32
37 41 34 38 32 34 33 32 32 31 30 30 29 30 27 27 27 29 30 29 30 25 26 23 31 32 31 32 31 32 33 31 30 27 26 26 25 25 27 24 23 21 24 26 26 25 24 25 26 25 26 27 29 31
41 37 33 33 31 29 23 33 31 29 27 27 29 26 26 26 28 30 27 30 29 31 31 31 32 32 30 30 29 29 30 29 26 24 23 25 24 19 20 22 22 19 19 21 22 20 18 16 18 17 19 22 23 24
39 31 30 30 29 26 29 25 29 25 25 26 25 24 23 25 27 25 23 24 29 30 30 30 31 29 29 27 25 24 26 28 24 23 21 22 23 22 22 20 16 15 14 16 15 11 13 12 12 15 16 16 17 17
27 19 28 22 27 25 22 21 19 22 16 18 22 20 22 22 16 20 18 25 26 27 28 29 30 29 26 25 24 23 25 26 24 21 20 20 14 14 14 16 13 14 13 9 9 10 9 10 11 11 12 12 13 16
23 23 24 22 18 22 13 9 13 20 11 17 19 19 19 22 20 18 22 24 26 26 25 26 26 25 25 26 22 21 21 21 21 16 17 16 14 4 2 4 6 5 11 4 7 7 7 8 8 9 9 11 13 14
18 13 21 27 27 25 26 25 24 23 22 23 19 18 20 20 18 20 24 24 24 23 26 27 26 25 23 20 20 17 14 13 13 16 16 14 14 12 7 -1 2 7 8 5 4 4 4 5 6 8 10 12 11 10
20 22 19 21 25 28 24 23 24 23 25 25 25 21 20 18 16 20 22 24 23 23 21 21 21 19 17 15 11 10 12 10 16 14 11 8 6 1 -0 -3 -2 9 2 -2 -0 -0 1 5 7 9 7 4 5 7
21 23 24 21 20 22 24 23 24 26 28 26 20 18 16 16 14 14 19 21 22 19 15 15 13 13 11 11 8 4 2 2 1 -4 -8 -10 -8 -2 -2 -7 -7 -5 -5 -5 4 8 8 10 11 6 8 5 1 -2
22 20 17 13 19 20 23 25 24 27 27 22 21 20 17 13 14 16 15 16 14 11 11 9 5 4 -3 -4 -5 0 -0 -6 -7 -5 -9 -9 -4 -2 -9 -7 -6 -6 -5 -8 -3 -1 1 -4 -2 -7 -4 -4 -2 0
27 26 25 20 22 25 26 28 28 29 28 22 19 13 8 8 10 13 11 9 8 7 4 -0 -0 -8 -3 -7 -9 -9 -6 -6 -7 -2 -3 -5 -10 -13 -10 -7 -9 -9 -11 -11 -11 -10 -5 -12 -13 -14 -13 -12 -11 -8
24 19 14 14 15 18 15 15 9 19 12 18 17 13 4 1 -4 5 6 1 -1 -2 -9 -12 -8 -4 -6 -5 -7 -8 -3 -7 -9 -9 -5 -6 -10 -12 -12 -11 -13 -15 -16 -15 -14 -12 -13 -15 -16 -16 -16 -15 -14 -13
4 6 8 2 10 10 6 5 2 5 9 14 6 5 1 2 0 4 6 -0 -3 -6 -6 -7 -9 -11 -9 -8 -9 -10 -5 -10 -12 -2 -2 -1 -5 -6 -12 -15 -17 -19 -18 -19 -18 -17 -15 -16 -18 -18 -17 -18 -17 -15

GFSWCAN_sfc_temp_012.txt.gz
Temp
51 51 50 50 51 51 51 51 51 51 50 50 50 49 50 52 53 59 54 53 53 46 48 51 52 48 47 45 40 45 43 41 33 32 27 27 23 31 31 35 33 31 26 21 22 17 26 44 45 39 43 40 43 42
50 50 50 50 50 50 50 50 51 50 49 47 48 48 49 51 53 58 56 55 53 51 49 52 53 52 52 54 46 43 47 44 41 33 26 30 30 31 27 28 38 32 35 30 33 33 43 45 43 46 45 44 43 43
50 50 50 50 50 50 50 50 48 48 47 48 48 48 50 51 53 56 53 50 51 44 48 50 49 55 58 55 55 47 42 47 43 41 32 32 28 29 28 30 31 39 41 32 36 43 43 44 46 47 46 45 45 45
50 50 50 50 50 49 49 48 47 47 48 48 49 49 50 52 53 54 51 50 49 43 36 44 54 52 57 57 55 54 49 45 42 39 30 33 29 36 27 34 32 38 41 38 35 42 42 45 45 47 46 46 45 45
49 49 49 49 49 48 47 47 47 48 48 49 49 50 51 51 53 54 51 49 50 50 38 38 49 52 53 54 52 52 51 46 41 35 31 33 30 34 34 33 32 41 41 34 34 45 45 45 48 46 45 45 45 44
49 48 48 48 48 47 47 47 47 48 48 49 49 49 50 51 52 52 49 50 51 48 43 38 44 46 49 51 50 49 48 45 42 40 33 35 40 36 34 30 42 45 46 47 47 46 45 46 45 46 46 45 45 44
48 48 48 48 48 47 46 47 47 48 49 49 49 50 51 51 51 48 46 48 48 48 41 37 36 42 45 46 44 45 46 43 43 38 34 30 36 38 35 29 48 47 48 48 47 44 43 43 45 45 46 44 44 43
47 47 48 48 48 48 46 46 47 48 49 50 50 50 50 50 50 49 49 48 48 45 41 34 34 36 44 37 37 43 38 42 41 39 38 36 37 35 34 40 43 46 47 46 46 46 45 44 43 41 42 42 40 38
46 46 46 47 48 48 47 46 47 49 50 49 50 50 50 48 46 48 48 48 48 47 36 35 35 34 43 38 37 38 40 34 40 36 36 39 34 34 37 38 40 42 42 43 43 43 43 40 40 40 40 38 35 33
46 46 46 46 47 47 47 46 48 50 50 49 48 44 40 45 49 49 46 41 40 39 40 34 38 36 43 34 34 35 35 36 34 36 39 34 35 37 37 38 38 39 41 42 37 35 36 35 36 37 36 36 36 35
46 46 46 47 47 47 47 48 49 50 50 44 41 39 46 48 45 38 36 34 38 37 38 37 36 35 41 36 35 34 34 33 32 31 35 33 32 33 36 35 36 37 38 38 39 39 39 38 36 34 34 35 34 34
47 47 47 47 47 47 48 48 49 45 43 44 45 44 42 39 36 35 33 34 35 32 35 35 36 38 36 37 36 35 34 33 31 34 33 30 31 36 34 34 37 38 39 38 39 38 38 38 38 36 34 32 30 30
47 47 47 47 47 47 48 47 47 47 46 42 39 36 39 34 34 33 31 32 33 33 34 34 34 34 36 36 34 34 32 32 33 31 30 30 35 36 37 37 37 39 38 38 38 38 37 34 33 30 30 28 28 29
46 47 47 46 47 47 47 48 48 46 44 37 35 33 33 32 31 30 32 32 32 33 33 33 33 33 33 34 32 32 32 31 29 26 25 31 34 34 35 35 35 34 32 33 34 32 30 30 29 28 27 26 25 27
46 46 47 46 46 46 46 46 46 44 39 34 34 29 29 31 32 32 32 33 33 34 33 33 33 34 32 32 31 30 25 21 21 18 30 32 33 33 34 34 33 32 29 31 33 31 29 28 27 28 28 26 27 26
46 45 43 45 46 47 46 43 40 38 33 34 32 30 31 32 31 32 32 32 35 33 33 34 32 30 29 30 25 23 23 19 26 32 32 33 32 32 33 34 34 34 32 34 32 30 28 24 24 27 26 25 24 25
46 41 45 46 45 45 45 38 33 32 34 33 30 32 32 32 32 32 33 33 36 33 32 31 25 25 30 22 21 27 22 29 33 32 33 33 33 34 34 34 32 33 34 33 30 32 28 25 23 26 29 31 29 27
39 39 45 45 43 41 37 34 30 31 31 31 30 31 32 32 32 32 32 33 33 32 32 29 32 24 19 18 19 29 30 32 29 30 31 34 34 34 35 34 34 34 33 29 28 29 27 27 28 28 28 29 27 27
41 42 44 44 41 34 31 32 32 29 29 31 31 30 31 31 31 32 32 33 29 27 28 24 20 20 22 24 29 32 33 31 30 31 32 33 32 32 33 33 32 31 30 30 29 27 27 28 27 27 27 28 27 30
44 43 42 43 42 31 30 28 34 32 30 30 31 30 29 30 31 32 32 33 32 27 24 22 22 23 24 23 25 26 34 33 25 22 24 25 29 31 29 28 27 28 27 28 29 28 28 27 27 28 27 27 27 27
39 38 40 37 33 33 30 29 30 31 31 30 29 29 28 30 29 30 30 31 31 30 25 24 22 30 30 29 25 25 29 27 25 25 29 28 27 27 26 26 25 24 25 24 23 24 23 23 23 20 18 18 21 23
35 39 31 34 32 33 29 32 31 30 30 29 29 29 27 26 27 28 29 29 29 29 29 23 28 32 30 29 29 30 30 29 29 28 27 25 23 24 23 22 21 19 21 19 19 15 12 17 16 15 14 15 20 20
38 33 27 27 21 19 26 33 28 25 28 25 28 26 25 25 27 29 25 29 28 31 31 31 31 30 29 28 28 28 28 26 23 22 22 23 23 21 19 17 15 11 11 14 16 13 10 9 11 9 11 12 12 13
37 27 25 28 23 16 28 27 29 27 21 23 18 20 22 24 26 23 23 26 29 30 30 30 30 27 27 25 23 24 26 25 23 21 21 23 20 19 18 15 13 11 10 11 10 6 6 2 4 7 7 7 8 9
20 19 23 20 25 13 21 21 23 26 23 10 22 12 22 21 21 20 21 21 25 26 27 29 28 27 23 22 22 22 22 25 21 17 16 17 13 14 13 13 11 11 9 2 2 2 2 2 3 2 5 5 6 9
21 22 24 23 22 22 11 11 16 21 18 15 16 18 15 14 12 15 20 21 24 23 24 25 23 22 21 23 20 19 19 20 20 14 14 14 11 5 3 -0 0 2 6 -4 -4 -4 -1 0 -0 -1 2 5 5 2
14 12 22 28 26 23 19 20 21 22 22 19 19 21 21 18 17 19 23 22 22 21 23 24 24 21 19 18 17 15 15 15 14 14 14 13 12 9 0 -6 -4 3 3 -1 -9 -9 -5 -2 -0 1 3 2 -4 -0
23 24 14 17 21 23 22 15 15 22 23 25 23 19 18 16 13 18 20 22 21 20 18 17 17 16 13 12 11 11 12 13 12 11 9 6 4 -3 -5 -7 -6 4 -5 -11 -12 -7 -8 -2 1 2 2 -2 -7 -9
20 22 23 17 17 21 20 19 19 23 26 24 19 16 15 15 13 12 17 19 18 16 13 12 11 11 11 9 7 4 3 -1 -3 -6 -9 -11 -11 -4 -8 -12 -12 -10 -13 -13 -1 4 5 4 -0 -8 -11 -9 -6 -8
21 19 14 9 13 15 22 20 21 21 22 21 19 18 14 10 13 15 15 14 11 8 7 6 6 6 -1 -2 -6 -3 -8 -12 -10 -7 -10 -12 -7 -5 -16 -14 -12 -9 -12 -16 -14 -11 -4 -11 -9 -13 -13 -14 -16 -18
25 24 23 17 16 23 18 27 27 27 25 18 15 8 6 6 8 10 8 6 6 4 2 -6 -7 -14 -9 -11 -12 -11 -8 -10 -13 -9 -9 -10 -11 -16 -15 -13 -15 -18 -22 -22 -22 -20 -18 -19 -22 -22 -20 -18 -18 -20
21 13 9 12 14 14 12 11 12 14 18 18 7 5 -2 0 -4 3 3 0 -1 -5 -9 -16 -10 -7 -9 -11 -15 -15 -8 -12 -13 -13 -12 -10 -11 -14 -16 -16 -20 -22 -21 -21 -22 -21 -21 -21 -22 -22 -23 -22 -22 -21
6 5 11 10 13 14 3 1 -1 2 12 10 1 -1 -3 0 -0 2 4 -2 -2 -6 -9 -10 -11 -12 -12 -13 -12 -13 -9 -13 -14 -5 -3 -3 -8 -10 -15 -20 -22 -22 -20 -22 -23 -24 -21 -21 -21 -23 -23 -24 -24 -24

GFSWCAN_sfc_temp_018.txt.gz
Temp
49 48 48 49 50 49 49 49 49 49 50 50 50 50 50 51 53 63 64 64 68 63 61 62 64 60 60 63 56 57 57 55 52 47 47 49 44 49 49 52 46 46 42 39 39 36 37 58 57 50 58 61 61 62
47 49 49 49 49 49 50 50 50 50 50 50 50 50 50 52 54 58 64 63 67 66 61 63 62 63 65 69 64 60 62 59 61 53 48 46 39 37 45 46 51 46 52 51 51 53 58 60 62 64 61 59 61 61
49 49 49 49 50 49 49 48 48 48 48 49 49 50 51 52 55 60 64 62 65 59 60 64 60 64 66 64 67 62 60 62 59 58 51 47 38 47 38 48 49 53 54 50 49 59 59 60 62 63 64 62 64 65
49 49 49 48 48 48 47 47 47 48 48 49 49 50 51 53 54 59 64 60 62 59 44 55 64 60 63 65 65 65 63 59 58 62 50 42 43 52 46 51 49 54 53 52 51 57 60 62 63 63 64 64 63 64
48 47 47 47 47 47 47 48 48 48 49 49 50 51 52 54 54 60 60 57 60 61 48 53 59 59 62 64 62 63 63 62 60 51 42 47 49 48 46 48 48 55 55 50 50 60 58 60 62 62 60 60 60 59
47 47 47 47 47 47 48 48 48 49 50 50 50 53 53 54 56 64 53 60 59 63 58 48 56 55 59 61 60 59 60 60 61 58 47 52 50 52 40 48 53 55 57 57 55 59 58 60 60 58 56 54 54 54
46 46 47 47 47 48 48 48 49 49 51 51 51 51 51 52 62 60 60 56 52 59 54 45 48 54 54 56 53 55 57 55 59 51 43 46 50 54 40 46 48 50 52 54 55 56 55 51 50 52 51 50 49 49
47 47 46 47 47 48 48 49 49 50 51 50 50 51 51 50 52 57 56 52 52 60 59 46 43 47 54 46 44 49 47 54 49 44 43 43 44 47 43 45 46 48 50 53 50 53 51 51 51 49 50 47 42 39
47 46 46 46 47 47 48 48 49 49 49 50 50 51 56 54 56 57 49 50 60 60 52 46 43 41 49 42 44 47 50 42 47 43 43 46 39 39 38 40 42 43 43 45 48 49 49 46 44 40 39 37 36 36
46 46 46 46 47 47 47 48 49 49 50 50 57 57 50 50 49 52 57 55 53 50 49 37 45 39 48 41 40 43 44 40 38 41 43 40 36 39 39 39 40 43 47 48 42 38 40 37 37 39 39 40 42 44
47 47 47 46 47 47 48 48 48 52 53 55 49 46 53 50 57 50 44 45 48 40 43 40 41 40 47 42 39 41 39 39 36 41 39 37 34 36 37 38 41 44 46 46 44 40 40 41 41 41 42 44 41 39
47 47 47 47 47 47 48 48 49 51 50 51 51 51 53 51 48 39 37 39 41 38 38 40 40 42 41 46 43 40 37 37 34 43 36 34 35 36 37 37 39 41 43 44 45 44 45 45 44 40 38 37 34 35
46 46 46 46 46 47 47 48 48 48 48 54 49 40 46 39 35 36 32 35 34 36 36 36 36 40 42 46 38 39 35 35 42 34 35 36 35 36 37 39 42 45 45 44 44 44 43 41 39 35 35 33 34 37
46 46 45 46 46 46 46 47 47 49 50 42 38 34 35 34 34 34 35 34 34 34 36 39 36 40 37 37 37 36 33 34 32 31 31 32 34 35 37 40 43 42 36 40 41 38 35 34 33 33 32 32 32 32
46 45 45 44 45 46 46 46 46 52 45 38 39 31 31 32 33 33 33 34 35 36 36 38 37 42 35 34 34 33 32 31 34 33 33 34 34 35 36 39 40 39 34 39 41 36 33 34 33 34 33 33 33 32
46 47 44 44 45 46 46 46 44 45 38 36 35 33 33 33 32 33 33 33 36 36 37 36 33 33 33 35 33 33 32 32 33 35 33 34 34 35 36 40 40 40 40 39 38 37 34 32 32 33 33 31 30 31
46 43 43 44 45 45 46 45 43 38 35 34 32 33 33 33 32 32 33 33 36 34 32 34 33 31 35 33 31 36 32 34 33 34 35 37 37 36 36 37 37 38 39 38 37 35 33 32 31 31 30 33 32 32
42 44 44 44 47 47 44 44 41 38 31 33 32 32 33 33 33 33 34 36 39 38 37 33 36 32 31 30 33 35 34 34 35 36 36 37 37 37 39 40 40 38 36 33 31 31 31 31 32 33 31 31 32 32
44 43 43 44 46 45 40 39 42 33 31 33 33 34 34 33 34 35 35 35 38 41 39 37 33 34 34 37 33 33 34 35 34 34 33 34 35 38 39 38 36 33 32 33 34 34 34 31 30 30 29 29 28 29
43 43 42 43 47 43 35 36 44 36 32 33 34 33 33 33 34 33 34 35 39 40 36 34 33 34 35 34 35 36 37 37 35 32 32 33 35 36 36 35 32 33 34 33 30 29 31 31 29 28 25 25 24 24
44 43 43 45 42 40 35 36 35 35 36 34 33 34 34 35 34 33 33 37 36 36 35 32 32 33 33 33 34 35 35 38 40 38 37 31 32 34 32 31 31 32 31 29 27 25 24 24 24 24 22 22 21 23
41 41 41 40 37 35 35 36 35 37 37 34 36 37 33 32 32 32 35 34 33 32 34 33 34 34 33 31 31 33 33 34 34 32 31 31 28 27 26 28 29 25 24 24 24 22 22 22 20 21 21 19 21 22
41 40 37 35 31 31 29 39 31 32 30 31 33 31 31 31 32 36 31 33 32 33 33 33 32 32 30 30 29 29 30 31 29 27 26 25 24 23 23 23 23 22 22 21 22 21 19 15 18 17 19 19 19 20
40 32 27 28 30 25 31 28 32 30 32 30 29 26 27 29 32 31 28 28 28 31 31 31 32 30 29 27 25 26 27 27 25 24 25 24 21 20 21 20 19 18 17 18 18 17 17 16 13 17 16 16 16 16
29 26 29 24 29 25 24 24 27 29 26 26 26 27 27 30 27 25 24 24 27 26 27 29 28 28 25 24 24 23 24 25 22 19 19 22 21 21 20 19 17 16 16 15 14 14 14 13 14 13 13 14 13 12
23 26 26 25 26 26 24 22 22 25 26 24 25 28 29 28 22 19 22 23 24 22 22 24 25 24 21 22 21 21 20 23 22 17 17 19 19 18 16 16 17 16 15 13 11 11 11 12 11 10 12 13 12 10
22 24 28 31 29 28 27 27 28 28 24 24 27 26 26 20 18 21 24 23 23 22 22 22 23 23 21 19 18 18 19 19 19 18 18 17 16 16 15 12 10 12 13 12 10 10 9 8 9 10 11 13 12 10
27 29 23 26 27 29 24 25 25 24 26 29 28 22 20 20 20 21 22 23 23 22 21 20 20 19 19 18 19 19 18 18 16 17 17 16 16 15 12 13 12 8 9 9 8 9 10 10 10 11 10 9 8 9
27 28 28 20 24 26 25 25 26 28 28 28 26 21 18 18 18 19 21 22 23 23 20 18 17 18 16 16 14 15 17 17 16 12 12 13 13 14 13 12 12 11 10 9 9 9 10 11 10 8 7 6 7 7
26 28 26 21 22 22 26 28 29 28 26 24 23 20 18 17 16 19 19 20 18 16 14 14 15 17 14 16 14 13 12 12 11 11 10 9 10 12 11 10 10 10 8 8 7 8 8 7 8 8 6 6 6 4
28 29 26 26 24 27 25 24 29 26 24 20 19 18 15 15 16 16 15 14 15 15 16 14 13 13 13 12 12 12 12 11 7 7 8 9 10 10 10 9 9 8 7 6 6 5 4 5 6 4 4 2 1 -0
24 20 22 21 24 23 22 22 21 24 23 21 16 16 13 15 11 14 13 15 15 13 6 11 13 12 10 11 9 10 1 8 9 8 7 8 10 10 10 9 8 7 6 5 5 4 3 2 3 2 1 1 -1 -2
21 21 23 22 22 21 19 19 17 18 19 16 13 13 12 13 8 12 13 12 12 12 11 11 12 12 9 7 8 9 5 10 6 5 4 3 2 4 6 8 8 6 4 4 4 3 2 1 1 0 -0 -3 -3 -3

GFSWCAN_sfc_temp_021.txt.gz
Temp
49 49 49 49 49 49 50 50 49 49 50 51 51 50 51 51 52 56 70 72 76 70 68 70 74 69 70 70 59 62 60 60 58 50 49 54 49 54 54 59 51 49 46 42 46 37 37 65 63 53 60 66 67 66
49 49 48 47 48 48 49 49 49 49 49 50 50 50 51 51 51 54 65 74 78 72 65 70 68 69 72 77 73 65 68 64 65 59 54 55 44 40 53 47 61 50 57 54 55 55 64 66 65 69 68 64 65 65
48 47 47 46 47 48 49 49 49 49 49 49 50 50 51 51 52 55 69 73 74 65 65 66 64 68 72 71 72 67 69 72 68 70 58 54 42 53 41 52 56 60 62 55 54 64 65 66 69 68 68 66 68 69
47 47 47 48 48 48 48 48 49 49 49 50 50 50 50 51 52 53 71 73 74 65 47 59 69 65 69 71 72 71 72 68 68 69 56 46 45 61 52 57 55 60 60 58 57 63 66 67 68 66 66 66 66 68
48 47 47 47 48 48 48 48 48 48 49 49 50 50 51 51 53 63 71 68 70 69 51 56 64 65 69 70 69 70 68 66 64 56 46 51 57 55 53 55 54 62 60 53 52 61 59 62 65 62 62 60 61 61
47 47 47 47 47 47 47 47 48 48 48 49 49 50 51 52 54 68 62 67 68 71 60 50 62 61 66 69 68 68 69 69 70 62 52 61 59 59 44 51 59 59 60 59 58 61 61 62 59 60 56 56 57 56
47 47 48 48 48 48 48 48 48 48 48 49 50 50 51 53 66 63 63 59 55 68 57 49 50 59 62 64 61 64 66 65 68 61 49 56 57 59 44 49 55 54 56 59 58 59 57 56 54 56 55 53 49 48
47 47 48 48 49 49 49 48 49 49 50 51 51 52 52 52 51 60 57 52 56 61 65 49 44 50 61 52 51 60 55 62 56 51 51 50 53 53 48 52 52 53 56 53 55 57 56 56 55 51 50 45 43 42
46 46 47 48 48 49 49 50 50 50 51 51 52 54 63 60 58 56 48 53 61 61 55 50 42 41 57 49 51 51 58 46 53 43 49 53 41 43 46 47 49 49 49 50 53 54 53 47 44 45 46 44 41 41
46 46 47 47 47 48 48 48 49 50 50 50 66 62 53 53 49 53 57 55 57 57 55 41 51 42 55 44 42 46 46 43 40 43 50 42 42 44 46 46 48 50 53 52 45 43 42 41 42 42 43 47 48 47
47 47 47 48 48 48 47 49 49 50 50 62 56 50 55 49 52 52 48 50 54 46 48 44 46 44 51 45 40 43 41 42 37 43 41 39 39 41 43 44 46 49 51 50 49 46 47 47 45 45 45 44 41 41
47 47 47 47 47 48 48 48 51 55 54 54 54 55 56 52 52 42 39 42 45 40 41 41 42 46 44 53 45 43 38 40 36 47 39 37 36 39 39 40 43 47 48 47 48 46 46 46 46 42 41 39 35 36
46 46 46 46 46 47 47 48 48 48 51 59 54 44 51 43 37 35 32 37 36 38 38 39 37 43 45 48 42 42 36 37 47 37 37 37 37 37 39 43 45 47 46 46 46 47 45 42 39 37 36 33 34 39
46 46 46 45 46 46 46 47 49 52 56 46 41 35 35 36 34 34 35 35 34 35 39 41 39 41 40 38 39 34 34 39 34 33 35 33 35 36 40 44 45 44 40 43 42 40 37 34 33 33 33 33 33 33
46 45 45 45 45 46 47 47 49 51 47 40 40 32 32 33 33 33 34 35 35 38 40 42 42 46 38 36 37 35 32 32 35 35 34 34 35 36 39 44 43 40 35 41 42 37 34 35 34 34 33 33 33 32
48 49 45 45 45 46 47 50 52 51 42 38 35 33 33 33 32 33 33 33 36 36 39 42 36 36 34 36 35 34 35 34 33 35 35 35 34 36 39 42 43 44 43 42 41 38 35 33 33 35 34 33 32 32
49 48 44 45 46 48 48 47 44 40 37 35 33 33 33 33 32 32 33 33 36 35 33 36 34 32 35 34 33 36 33 35 34 34 36 36 34 36 41 40 39 41 41 41 39 37 35 34 34 34 34 35 35 34
47 49 44 45 50 50 48 48 42 40 33 35 34 33 35 34 34 34 36 39 39 37 36 33 36 33 33 31 33 35 35 34 37 37 39 39 37 37 39 40 42 41 38 35 35 35 35 35 36 36 35 35 35 35
45 46 44 45 50 48 42 41 45 33 33 35 35 35 35 34 38 37 36 41 44 44 41 39 35 33 33 34 33 34 34 35 35 35 34 36 37 38 40 41 39 37 37 38 38 39 36 34 34 34 33 33 30 32
45 44 43 46 50 45 37 39 48 39 34 34 37 35 37 37 36 35 35 40 43 43 37 33 31 31 32 32 33 35 38 37 34 32 32 33 36 37 37 37 37 37 37 35 34 33 36 35 33 32 30 29 27 26
48 47 46 50 48 44 38 39 38 39 40 37 37 39 37 39 36 35 36 42 38 34 33 33 33 33 33 33 35 36 35 37 37 37 37 34 36 37 35 35 35 35 34 33 32 29 29 28 28 28 27 26 26 27
46 44 46 46 41 38 39 41 40 43 40 38 39 40 35 32 33 34 39 36 32 30 32 33 32 33 34 31 30 32 33 34 34 33 32 32 31 30 30 30 30 28 27 28 28 26 26 25 24 24 24 24 26 26
44 46 42 39 33 33 31 42 33 36 32 34 37 33 32 32 34 41 33 33 31 33 34 34 32 32 32 31 31 30 31 31 29 28 28 27 27 25 24 24 25 25 25 24 26 24 23 21 23 21 23 23 23 23
43 35 30 30 33 27 33 30 36 35 35 33 32 28 28 30 36 34 28 29 29 32 32 32 34 33 32 29 27 27 28 28 26 27 28 26 23 22 23 21 22 22 21 23 23 22 23 21 20 21 20 20 21 19
33 28 32 28 32 30 28 28 30 32 28 30 28 28 29 32 29 27 25 26 27 26 28 30 30 30 28 27 27 25 25 26 24 22 24 26 24 23 23 23 21 20 21 20 19 19 19 19 19 18 17 18 17 16
26 28 28 28 29 28 28 27 26 27 28 28 27 31 31 29 25 23 25 24 25 25 24 25 27 27 25 25 25 23 23 27 27 22 21 23 23 22 21 21 22 20 20 19 17 16 16 16 15 15 15 17 16 15
25 26 30 34 31 31 29 30 31 30 27 26 28 28 28 24 22 23 25 25 25 24 26 26 27 26 25 24 23 23 24 24 23 22 23 22 21 21 19 17 15 16 17 17 15 15 13 13 14 14 14 16 16 14
29 30 26 28 30 31 28 28 28 26 28 31 30 25 24 23 21 23 24 25 26 26 25 24 24 24 23 23 23 24 24 23 21 22 23 22 22 20 18 19 17 12 15 15 13 13 13 13 13 14 14 13 12 14
28 29 30 24 28 29 28 27 27 29 31 30 27 25 22 21 21 23 23 25 27 27 24 22 21 23 22 22 21 21 21 21 20 16 16 17 18 19 18 17 17 16 15 14 14 14 13 12 12 12 11 11 12 12
27 30 30 26 25 25 27 30 29 29 30 28 28 24 22 20 20 23 23 23 22 20 20 20 21 21 19 21 19 18 18 17 15 14 13 13 13 15 15 15 15 15 14 13 12 13 13 12 13 13 12 11 11 9
31 31 29 29 26 27 28 29 30 29 28 25 25 24 20 18 19 20 19 20 20 21 21 19 18 19 17 15 16 15 16 17 13 13 12 13 14 15 15 14 14 14 12 12 11 10 10 9 10 10 10 8 7 6
29 25 26 24 26 27 28 27 27 28 26 25 21 21 19 20 16 17 17 19 19 17 13 18 17 15 15 16 15 17 8 13 14 13 12 12 13 14 14 14 13 13 12 10 9 10 9 7 7 7 7 6 5 3
27 27 27 26 26 25 26 25 24 23 23 21 18 19 18 18 12 15 18 19 17 16 15 16 17 17 15 12 14 14 14 16 13 12 11 10 7 8 9 12 13 12 10 9 9 9 8 7 6 6 5 4 3 2

GFSWCAN_sfc_temp_024.txt.gz
Temp
48 48 48 49 49 49 49 49 49 50 50 50 50 49 49 49 51 51 52 56 55 54 69 73 75 69 69 67 56 61 59 61 58 49 48 52 46 53 53 58 48 45 43 39 44 35 35 66 63 51 59 64 64 64
48 48 48 48 49 49 49 49 49 49 50 50 50 49 50 51 52 53 49 58 60 59 64 69 69 71 73 75 65 63 65 63 62 58 53 54 41 40 49 45 64 49 55 50 51 48 63 67 64 68 67 64 64 64
48 48 48 48 48 49 49 49 49 49 49 49 49 50 51 51 51 52 52 55 61 62 63 67 64 68 72 71 73 63 67 72 68 71 58 54 40 50 40 49 56 62 64 54 54 63 65 67 69 69 68 64 66 66
48 48 48 48 47 47 47 48 48 48 49 50 50 50 50 51 51 52 52 56 64 64 47 57 70 66 71 73 73 72 73 71 69 67 56 43 43 60 49 56 54 60 62 57 56 62 65 66 64 63 63 64 63 63
47 46 46 47 46 47 47 48 48 48 49 49 50 50 51 51 52 53 55 60 69 68 51 54 64 67 70 71 70 71 70 67 64 55 43 51 57 53 52 54 52 63 59 51 49 59 58 58 59 61 58 57 58 57
46 46 46 46 47 47 48 48 48 48 49 49 49 50 51 51 51 54 53 68 68 75 58 49 61 63 68 70 69 68 69 68 67 60 52 60 62 58 44 48 61 60 62 60 58 60 60 58 58 57 53 53 53 51
47 47 47 47 47 47 47 47 48 48 49 49 49 50 51 51 57 56 56 56 53 68 58 46 47 59 67 65 64 64 68 67 67 60 52 55 56 58 43 47 57 57 58 60 59 59 54 57 52 54 50 49 47 47
47 48 48 47 47 47 47 47 48 48 49 49 49 50 51 50 52 56 60 54 53 65 59 45 40 48 62 53 51 60 58 61 57 53 54 52 52 52 47 54 55 55 57 55 56 58 56 54 51 48 49 48 45 44
47 47 47 48 48 47 47 48 48 48 49 50 50 51 56 60 57 58 51 51 63 57 45 47 40 40 58 49 50 52 58 45 55 44 51 53 43 43 51 52 52 51 53 52 55 54 50 47 46 46 46 45 43 42
47 47 47 48 49 49 49 49 49 49 51 51 57 63 48 53 50 51 59 58 54 50 53 42 48 42 51 44 41 45 46 43 40 44 51 44 43 48 50 51 51 53 54 54 45 41 42 42 43 44 45 44 43 42
47 47 48 48 48 48 49 50 51 52 52 61 54 47 54 51 57 53 45 47 48 41 47 45 45 44 51 44 40 44 41 42 38 42 42 40 39 43 48 47 49 52 52 51 49 47 47 46 44 42 41 40 38 37
47 47 47 48 49 49 49 49 50 57 57 56 55 55 53 52 46 39 39 42 42 39 39 40 43 47 45 53 44 43 37 40 36 44 37 36 40 43 43 43 47 49 49 48 48 45 45 45 43 40 38 35 33 33
46 46 46 46 47 49 49 48 49 51 51 58 51 42 45 40 36 36 33 36 35 37 37 39 37 43 45 49 41 41 36 37 45 36 37 38 40 40 42 45 45 47 46 45 45 44 42 39 38 35 33 32 34 36
45 46 46 46 46 47 48 49 50 54 56 46 39 34 34 34 33 33 33 34 34 34 37 40 38 40 39 37 38 35 35 40 33 32 35 35 37 38 42 43 44 43 39 40 40 37 34 32 31 32 32 31 30 30
47 46 47 46 47 47 48 49 50 51 45 38 37 31 31 32 33 33 33 34 35 38 38 42 42 43 37 34 37 35 33 32 35 35 34 35 36 38 40 42 40 37 35 38 37 34 32 33 32 32 31 32 32 29
49 49 46 45 47 48 49 48 48 46 40 35 34 32 33 33 32 32 33 33 36 36 40 42 37 35 33 36 35 33 35 33 33 33 34 35 35 36 40 40 40 41 40 38 36 35 33 33 33 33 32 31 29 29
51 48 43 45 47 49 49 47 44 40 36 34 32 32 33 32 32 32 33 34 37 36 33 36 33 31 36 34 32 33 31 32 32 33 34 35 35 36 40 38 38 39 39 38 37 36 35 34 33 33 33 34 34 32
48 51 45 46 51 51 51 46 40 39 32 34 32 32 33 33 33 33 35 38 37 35 35 33 35 33 32 31 31 33 33 33 35 36 35 35 36 37 41 40 41 40 38 36 36 35 34 33 36 35 34 34 34 33
45 47 45 47 52 49 42 42 45 33 33 34 34 35 35 35 38 37 36 40 44 43 38 36 32 30 30 31 30 32 33 34 33 33 35 35 36 36 37 38 36 36 36 36 37 36 34 34 33 33 31 31 29 30
47 45 45 48 51 44 38 39 47 38 33 34 36 35 37 36 37 35 35 40 42 41 34 31 29 30 30 30 31 32 33 35 34 32 32 34 37 37 37 37 37 36 35 34 33 34 35 33 31 30 28 28 26 25
49 48 48 51 47 45 40 40 38 40 39 36 39 39 36 37 35 34 35 42 35 31 30 31 31 31 32 32 31 32 32 32 31 33 34 32 33 33 33 33 34 34 32 31 29 28 28 27 26 27 26 26 24 26
47 46 47 46 41 38 39 41 40 43 39 38 38 40 35 32 33 34 38 33 29 29 31 30 30 32 30 29 30 31 31 31 30 30 31 32 30 29 28 29 28 25 25 25 25 24 24 24 23 23 23 23 24 25
46 46 42 39 33 33 31 43 33 37 32 34 38 33 31 32 35 41 31 30 29 31 32 32 32 32 30 31 31 29 30 30 28 27 26 26 25 25 24 23 24 24 21 21 24 24 22 22 22 21 23 22 22 22
44 34 31 32 33 28 35 31 38 36 35 33 32 28 28 30 36 33 26 27 28 31 31 31 32 31 31 28 26 25 28 29 26 26 27 25 22 22 22 20 20 21 22 24 23 22 22 20 19 20 19 18 19 18
32 29 31 29 34 32 30 30 31 32 28 30 29 28 29 34 29 27 24 26 26 25 27 30 29 28 27 26 26 25 27 27 24 21 23 26 24 23 22 22 20 20 22 19 18 18 18 19 18 17 16 16 16 15
26 28 29 29 29 29 30 27 27 28 29 28 27 30 31 30 26 22 23 24 24 23 23 24 26 26 24 24 23 22 22 26 26 20 21 23 23 22 22 21 20 17 19 18 16 15 15 15 15 14 14 15 14 14
25 27 31 34 32 32 30 31 32 31 28 26 28 29 29 25 22 22 25 25 24 24 25 25 25 24 23 22 23 24 24 23 23 22 23 23 21 21 18 15 13 13 16 16 14 13 12 12 12 13 13 15 15 13
29 29 26 29 30 32 29 29 28 26 27 29 30 24 23 21 18 22 23 26 26 27 25 25 24 24 22 22 24 24 25 24 22 24 23 22 22 20 19 18 17 15 15 15 14 13 13 12 11 11 11 10 10 13
28 30 32 24 30 29 27 27 27 27 29 28 27 24 21 21 21 23 24 26 28 26 24 22 23 24 23 23 21 21 20 18 18 15 16 16 18 16 18 17 17 17 16 15 15 15 15 13 12 11 11 11 11 12
27 31 30 29 26 25 26 29 27 28 29 28 27 24 21 19 21 24 23 23 22 20 20 21 21 21 19 20 19 18 17 15 13 12 11 10 11 15 16 16 15 15 15 13 13 13 14 13 12 12 12 11 11 9
32 32 30 30 26 26 27 29 30 30 28 25 26 23 19 17 19 20 20 21 21 21 21 19 17 18 16 15 14 14 14 15 14 14 12 12 14 14 15 14 15 14 13 12 11 10 10 9 9 9 9 8 8 7
29 26 27 25 26 28 30 27 27 28 26 25 21 22 20 21 15 16 17 20 19 17 16 17 16 15 16 16 17 17 9 14 15 14 13 11 11 12 12 13 12 13 12 11 11 10 9 9 8 8 7 7 6 4
29 29 29 28 27 26 27 26 26 24 24 21 19 20 18 17 11 15 20 20 17 16 15 16 17 17 17 15 16 15 14 17 15 15 14 13 10 9 9 10 11 10 9 8 8 8 8 8 8 7 5 3 4 3

GFSWCAN_sfc_temp_030.txt.gz
Temp
47 48 48 48 47 47 48 48 49 49 49 49 49 49 49 49 52 49 47 49 47 45 49 51 58 55 55 54 46 48 47 47 38 37 36 33 31 37 36 42 38 36 31 27 31 25 30 52 52 44 45 48 51 51
47 47 47 47 47 47 48 48 48 48 48 48 48 49 49 51 51 51 45 50 51 44 47 53 53 54 65 61 52 49 51 50 48 42 39 36 34 33 35 32 46 38 40 34 37 36 48 51 51 52 52 50 49 49
47 47 47 47 47 47 47 47 47 48 48 48 49 49 50 51 51 50 46 49 49 45 47 48 50 58 61 64 65 51 49 55 51 51 43 40 36 33 32 32 39 46 50 40 42 47 47 49 50 51 51 48 48 49
47 47 47 47 48 47 47 47 47 47 48 49 50 49 50 51 50 51 46 49 50 48 39 47 59 56 61 64 65 61 59 56 53 49 39 36 36 44 32 41 38 45 49 46 42 44 48 48 48 49 47 46 45 46
47 47 47 47 47 48 48 48 48 48 49 49 50 49 50 50 50 49 49 50 51 48 40 43 53 58 60 60 61 62 59 53 47 42 35 36 36 41 32 37 33 48 46 38 36 49 45 44 46 47 45 44 44 42
47 47 47 47 47 47 47 47 47 48 48 49 49 49 49 50 50 48 44 50 53 52 44 37 50 51 56 57 57 59 57 52 49 44 36 42 48 41 33 30 47 48 49 50 47 49 46 44 45 45 42 42 42 40
47 47 47 47 47 47 47 47 47 48 48 48 49 49 50 50 49 47 45 50 52 52 44 38 40 50 53 51 49 51 52 48 49 44 38 40 43 42 31 34 46 47 49 48 48 47 41 43 39 42 42 42 42 40
47 47 47 46 47 46 47 47 47 48 48 48 49 49 49 49 50 49 49 51 52 49 48 37 39 41 52 42 42 47 43 45 44 43 40 36 40 34 34 43 46 47 46 46 45 46 44 43 42 41 42 40 38 36
46 46 46 46 46 47 46 47 47 48 48 49 49 49 49 48 46 47 50 50 51 49 40 36 35 36 47 40 40 42 42 37 42 36 36 39 34 32 40 43 45 46 44 41 43 43 42 40 39 39 38 37 34 33
45 45 45 46 46 46 46 47 47 48 49 49 48 46 40 47 50 52 49 46 45 45 41 36 41 37 44 36 37 35 36 35 34 35 39 34 34 39 41 43 44 44 44 43 37 35 37 36 38 37 36 36 35 33
46 45 46 46 46 47 47 47 48 48 48 47 45 41 49 51 48 43 36 36 37 34 36 36 37 39 44 37 35 35 34 33 31 34 34 32 32 36 40 40 42 45 45 43 43 41 40 40 37 35 33 32 30 31
47 47 47 47 47 47 47 48 48 49 48 49 49 49 48 45 38 35 33 35 34 33 35 36 37 42 39 44 37 36 34 32 28 38 31 32 34 39 41 42 43 44 44 44 44 41 40 39 38 34 30 29 30 30
47 47 47 47 48 48 48 48 49 49 50 47 43 37 40 34 32 29 29 32 32 33 35 35 35 36 39 41 35 34 32 30 35 34 31 29 37 39 40 40 39 41 40 38 38 37 36 34 34 31 29 29 29 29
47 47 47 47 47 47 47 48 48 48 45 36 34 30 32 30 30 30 31 32 33 33 34 35 34 35 34 34 33 32 33 33 27 24 27 32 36 37 39 39 38 36 34 33 33 32 31 30 29 30 30 29 28 27
46 46 46 46 47 47 47 47 47 45 38 33 34 27 29 31 32 32 32 33 33 34 34 35 35 37 33 33 33 32 31 29 27 27 31 34 36 37 36 36 34 32 31 31 32 30 29 29 28 28 28 28 27 25
47 47 45 46 47 47 47 46 42 39 34 31 32 31 32 31 31 32 32 32 35 33 34 35 33 31 31 32 31 29 29 26 28 30 32 34 34 35 35 34 34 33 32 31 31 31 30 28 28 28 27 25 24 23
46 41 46 48 48 49 47 42 37 33 33 31 30 32 32 32 31 32 32 33 36 34 32 33 29 29 32 29 26 29 26 28 31 31 33 34 33 33 34 33 33 33 32 32 31 31 30 29 28 27 26 27 27 24
38 42 47 49 48 47 44 41 35 33 30 31 29 31 32 32 32 32 32 34 34 32 32 31 33 27 24 23 23 26 31 31 32 32 33 34 34 34 35 34 34 33 32 32 32 31 29 28 29 27 29 28 26 26
42 44 46 47 45 39 36 36 37 30 30 31 32 33 32 32 33 33 33 35 36 35 33 30 25 23 23 25 24 26 27 31 31 32 33 34 34 34 34 33 33 32 31 31 30 28 27 27 26 26 25 24 21 20
46 45 45 45 44 34 33 34 38 32 30 31 32 32 32 31 32 32 31 32 33 31 27 24 22 23 24 25 27 27 27 29 32 31 31 31 32 32 32 31 29 29 28 27 26 25 25 24 24 24 22 21 17 15
40 40 42 39 35 35 31 30 32 32 32 31 30 30 29 31 29 27 26 30 27 25 23 25 24 25 27 27 27 28 27 26 25 28 28 25 26 26 25 26 27 26 24 22 21 20 20 20 21 21 18 16 16 13
36 42 29 34 30 30 29 32 30 30 31 29 29 29 25 24 25 25 26 24 23 25 27 26 25 25 24 24 24 26 26 25 25 24 23 23 20 21 21 22 21 20 20 20 19 18 18 19 19 18 16 14 15 15
38 35 29 28 23 23 22 29 25 29 22 23 25 25 25 25 28 28 21 24 23 25 27 25 25 25 24 25 25 24 25 24 22 21 20 20 19 19 18 18 20 18 18 19 20 18 17 18 16 14 13 11 7 3
37 27 24 19 22 18 20 22 27 25 22 20 20 20 24 25 25 18 17 19 22 23 24 24 25 22 22 21 18 19 21 22 19 19 20 19 16 16 17 16 15 16 16 16 15 13 13 10 10 9 4 -3 -6 -5
23 20 19 14 18 20 23 21 19 20 17 15 18 22 24 20 16 13 15 16 16 16 18 21 20 19 15 15 16 17 20 20 16 15 15 19 17 16 14 13 11 12 13 9 5 3 3 1 -2 -3 -3 -11 -3 -1
22 23 21 26 24 24 24 21 21 22 14 14 21 24 18 12 6 8 16 12 14 13 13 15 13 15 16 17 15 14 16 20 18 13 14 15 14 10 9 8 6 5 6 -5 -6 -9 -8 -9 -11 -9 -9 -1 2 -2
21 18 26 29 28 24 21 20 20 16 11 13 15 13 19 5 5 14 18 18 17 14 18 18 18 17 16 16 17 16 16 16 16 15 15 15 13 11 3 -3 -2 3 0 -3 -9 -10 -8 -10 -12 -12 -13 -11 -10 -11
25 24 19 24 20 22 13 13 12 14 17 22 19 8 5 3 8 16 19 21 20 20 19 18 18 17 14 12 10 9 7 9 14 13 12 11 9 7 4 3 1 11 0 -5 -7 -2 -3 -2 -1 -4 -7 -11 -8 -12
24 25 19 18 16 20 19 15 14 20 24 22 12 8 9 13 14 15 18 19 19 17 14 13 14 12 11 9 6 6 6 4 -1 -5 -10 -10 -8 -3 4 6 3 1 -5 -6 2 5 2 -1 0 -4 -9 -9 -0 -5
17 16 12 7 9 12 15 20 18 19 17 11 14 15 13 11 14 15 15 14 13 10 9 9 9 8 3 -2 -1 2 -2 -4 -1 -5 -11 -11 -7 -2 -5 -5 -3 -3 -2 -9 -6 -2 0 -9 -6 -7 -7 -7 -13 -12
19 12 12 11 14 21 23 23 24 15 8 7 7 4 3 6 7 13 13 12 13 9 8 5 2 -2 -0 -3 -7 -10 -7 -5 -3 -2 -5 -9 -11 -13 -12 -12 -12 -12 -9 -7 -6 -5 -5 -9 -11 -8 -6 -5 -7 -13
10 6 8 9 13 17 18 22 18 16 8 7 2 -5 1 -2 -3 5 10 6 7 6 4 1 -2 1 -5 -10 -11 -6 -1 -3 -4 -4 -3 -4 -5 -5 -3 -5 -14 -14 -15 -16 -16 -14 -13 -11 -8 -3 -3 -5 -8 -12
9 5 2 4 12 10 6 9 12 9 6 4 3 3 1 0 -1 4 9 7 3 -4 -6 -7 -4 -2 3 0 -2 -6 -3 -7 -9 -0 -0 1 -3 -2 -9 -11 -12 -13 -11 -13 -14 -18 -10 -9 -11 -11 -10 -8 -8 -10

GFSWCAN_sfc_temp_033.txt.gz
Temp
46 46 46 46 46 46 47 47 48 49 49 48 49 49 49 49 49 46 45 50 46 41 45 50 49 48 52 52 44 47 49 46 36 38 36 32 31 37 36 40 38 37 31 27 26 24 30 49 49 43 45 45 49 48
45 45 45 45 46 46 47 48 48 48 48 48 48 49 49 49 49 47 44 50 50 44 44 50 50 52 50 58 52 46 51 49 47 41 36 36 32 30 35 32 43 38 38 35 37 36 46 48 49 49 49 49 48 49
47 47 47 47 47 47 48 47 47 48 48 48 49 49 49 49 50 48 46 48 47 43 42 44 46 54 57 55 59 49 48 52 49 50 42 38 35 34 32 32 37 43 46 39 40 44 46 45 46 47 48 46 47 47
47 46 47 46 47 47 47 47 47 48 48 48 48 49 49 50 50 50 46 49 48 45 38 45 57 54 58 58 58 59 57 53 50 47 40 36 35 42 34 40 36 43 46 42 39 41 44 45 44 44 44 44 43 43
47 47 46 46 46 47 47 47 47 47 47 48 48 49 49 51 51 49 49 49 50 46 38 41 49 53 55 56 58 58 55 51 46 40 35 37 37 39 31 36 32 45 44 39 36 46 45 44 44 45 43 41 42 41
46 47 47 47 47 47 46 46 47 47 48 48 49 50 50 50 50 47 41 48 50 50 42 35 48 48 52 54 55 57 55 49 46 44 36 40 46 42 36 31 46 48 48 49 47 48 43 43 42 43 41 40 41 40
46 47 47 47 47 47 47 47 47 48 48 48 48 49 49 49 46 41 40 46 50 50 42 35 32 47 52 49 48 49 50 48 48 44 37 39 41 42 29 33 47 45 45 45 45 44 39 40 37 40 40 39 40 38
46 46 46 47 47 47 47 47 48 48 48 48 49 49 49 50 48 46 50 50 52 47 46 36 35 39 49 39 42 47 42 45 45 42 38 35 39 33 36 42 43 44 44 44 42 44 43 41 40 38 39 38 36 34
46 46 46 46 46 46 46 47 48 48 48 48 49 49 47 45 43 46 50 51 52 48 40 36 34 34 45 40 40 41 43 37 43 37 38 39 34 35 39 41 42 44 43 39 41 40 40 37 37 37 36 35 32 31
46 46 46 46 46 46 46 47 47 48 48 48 48 45 38 45 50 50 48 45 44 45 41 35 40 37 43 36 36 37 37 35 34 36 40 35 34 38 39 42 42 41 42 41 36 34 35 34 35 35 35 35 34 31
46 46 46 46 46 46 46 47 47 48 48 46 41 40 47 49 46 41 37 36 37 34 36 38 37 38 44 37 36 35 34 33 33 35 36 32 33 35 38 39 41 43 43 41 42 40 39 38 35 33 32 32 31 31
47 46 46 46 46 46 46 47 48 47 46 46 48 48 47 44 38 33 33 34 34 33 34 36 36 41 38 42 36 36 34 33 31 37 32 32 34 36 37 38 39 40 41 40 42 40 39 38 37 34 32 30 30 30
46 46 46 46 46 47 47 47 48 48 48 47 42 37 39 33 31 30 30 32 32 33 34 34 34 35 38 39 33 32 29 28 32 33 32 32 37 38 38 39 38 40 40 39 38 38 36 34 33 31 30 30 29 29
47 47 47 47 47 47 47 47 48 47 44 36 34 30 30 28 29 29 31 32 32 32 33 34 34 34 33 34 32 29 32 34 29 27 26 32 35 36 37 37 36 34 34 33 33 33 32 30 28 28 28 29 28 27
46 46 47 47 47 47 47 47 46 43 38 32 33 27 29 31 32 32 32 33 33 34 34 34 35 36 33 33 32 32 31 28 28 25 30 33 35 35 35 34 32 31 31 31 32 30 29 29 28 27 28 28 27 24
47 46 44 46 46 46 46 45 43 40 34 32 32 30 31 31 31 32 32 32 35 34 34 35 32 32 31 32 30 28 28 25 27 29 32 34 33 33 33 33 32 32 31 31 31 30 30 28 28 27 27 25 24 23
46 41 45 46 46 46 46 41 37 34 32 30 30 32 32 31 31 32 32 32 35 34 32 32 29 27 32 27 25 28 25 27 30 31 32 33 32 32 32 32 31 31 31 31 30 29 29 28 27 26 25 26 26 23
39 42 46 47 47 45 42 39 32 31 29 31 27 30 30 29 28 29 31 33 33 32 32 28 31 23 20 20 20 23 27 31 32 32 32 32 32 32 33 32 33 32 31 30 30 29 28 28 28 27 27 27 25 24
41 43 45 46 45 40 36 36 36 29 30 31 32 32 31 29 29 30 30 32 33 33 31 27 22 20 20 23 22 23 24 26 30 31 31 32 32 32 33 32 32 31 31 30 30 28 27 27 26 25 24 24 22 21
44 44 43 44 44 35 33 33 37 32 30 31 32 29 29 28 29 28 29 31 31 29 24 20 19 21 21 23 25 24 24 26 30 28 25 25 28 29 28 29 27 27 26 25 25 24 24 23 23 22 21 21 20 18
39 39 41 38 34 35 31 31 31 32 32 30 29 29 28 29 26 24 25 29 26 24 21 23 22 23 25 25 25 26 24 24 22 24 24 22 24 25 24 25 25 24 22 21 19 19 19 19 20 20 18 16 17 18
34 40 27 33 29 30 28 30 30 30 30 28 27 28 24 22 19 22 26 21 21 22 23 22 22 23 22 22 22 24 24 24 23 21 21 21 18 19 19 20 20 18 18 18 18 16 17 18 18 17 15 14 16 14
36 33 28 28 23 22 20 28 24 28 22 20 23 22 20 18 21 25 17 21 20 24 24 23 23 23 21 22 22 22 22 22 19 19 18 18 17 17 16 16 17 16 15 16 18 16 14 15 13 10 10 9 6 5
36 24 18 16 20 12 17 18 25 22 19 18 18 17 22 21 21 15 13 16 19 21 21 21 22 19 19 18 17 17 19 20 17 16 18 16 14 13 13 12 12 12 12 13 11 9 8 6 7 5 1 -3 -4 -6
22 19 18 13 16 17 12 12 13 17 10 10 12 19 21 17 9 9 10 13 14 14 15 17 18 17 13 13 15 16 18 17 14 12 13 16 13 13 11 10 10 10 10 5 0 -2 -3 -5 -7 -9 -9 -13 -5 -6
15 22 20 22 16 17 14 10 9 16 8 10 16 21 12 7 3 5 13 9 11 9 10 11 8 12 14 15 12 12 13 16 15 10 11 12 11 4 2 2 2 4 2 -8 -10 -11 -9 -11 -13 -10 -12 -8 -6 -9
14 14 24 25 20 19 14 12 14 12 10 16 13 6 8 -0 1 12 17 16 15 14 18 17 16 14 12 13 13 13 12 13 12 12 11 10 9 7 1 -4 -2 4 -1 -6 -9 -8 -6 -8 -11 -9 -10 -18 -16 -15
23 18 13 13 14 14 6 5 6 9 9 19 12 1 -3 -2 4 14 15 18 17 17 15 14 13 10 7 7 5 7 10 9 9 8 6 6 5 5 2 4 5 9 1 -1 -6 -13 -13 -6 -7 -6 -9 -7 -7 -13
17 15 16 9 9 12 16 10 9 17 20 17 3 5 4 10 10 10 15 17 16 13 9 7 8 7 6 5 3 1 2 -2 -4 -8 -13 -14 -11 -5 -5 -9 -9 -8 -10 -10 -0 6 7 1 -4 -9 -6 -8 -4 -9
16 10 9 2 5 10 10 10 11 11 12 7 11 12 10 9 12 14 13 11 9 6 2 0 -0 0 -7 -6 -6 0 -1 -6 -6 -7 -13 -11 -7 -5 -13 -15 -13 -14 -15 -14 -13 -9 -2 -9 -8 -11 -12 -10 -11 -16
10 8 8 8 11 16 14 12 9 6 0 -2 -1 -0 -1 5 5 10 10 7 6 3 3 -0 -4 -12 -9 -10 -13 -12 -10 -5 -6 -5 -6 -9 -10 -12 -8 -6 -9 -15 -16 -18 -20 -20 -17 -16 -18 -17 -13 -10 -8 -10
5 -2 5 6 10 16 17 12 10 4 0 -3 -1 -6 -2 -5 -6 2 5 1 -1 -5 -6 -9 -8 -4 -7 -9 -11 -11 -6 -9 -11 -12 -12 -13 -12 -12 -15 -15 -17 -16 -16 -18 -20 -20 -19 -16 -17 -16 -18 -17 -12 -10
0 -1 -2 1 7 6 4 10 11 5 3 2 -0 -1 -3 -5 -7 0 4 -2 -5 -8 -9 -11 -11 -8 -2 -4 -7 -11 -7 -13 -15 -5 -5 -2 -6 -6 -15 -17 -20 -19 -18 -19 -20 -20 -18 -17 -17 -20 -18 -13 -11 -10

GFSWCAN_sfc_temp_036.txt.gz
Temp
49 49 49 50 50 50 50 49 48 48 48 49 50 50 50 51 50 45 41 46 43 39 42 47 49 45 48 48 41 44 47 44 36 37 34 33 28 36 35 40 38 37 32 27 26 24 30 48 47 42 44 43 46 46
47 48 48 48 48 48 48 48 48 48 48 48 49 50 50 50 50 47 40 47 48 43 44 49 48 51 49 52 50 46 47 45 45 40 34 34 30 28 35 33 42 38 40 36 38 37 46 47 46 49 47 47 47 47
45 46 46 46 46 47 47 47 48 48 48 48 49 49 49 49 49 48 43 46 45 42 43 44 43 50 52 52 54 49 45 50 47 49 41 39 36 34 32 34 38 41 43 39 40 44 44 46 45 45 46 46 46 46
46 45 45 46 46 46 46 46 47 47 48 48 48 48 48 49 49 49 44 48 47 44 36 42 53 49 55 54 53 53 53 50 48 47 40 37 36 41 34 41 37 41 44 39 38 41 42 45 44 44 42 43 43 42
47 46 46 47 47 47 47 47 47 47 47 48 48 48 48 49 49 47 46 48 49 42 37 39 46 51 53 53 52 53 54 48 44 40 35 37 37 39 33 38 33 44 43 39 40 46 46 46 43 43 42 40 41 40
46 46 46 46 47 47 47 47 47 47 48 48 48 48 49 49 49 45 39 47 50 50 41 34 45 45 52 51 50 52 55 47 45 42 37 42 46 43 36 34 47 48 48 49 50 47 41 41 41 42 40 39 39 39
46 47 46 46 46 46 47 47 47 47 48 48 48 49 49 49 47 41 39 44 49 49 42 35 32 43 51 50 46 47 47 45 46 42 38 40 42 42 32 36 49 47 48 45 44 44 39 41 38 39 39 38 38 37
46 46 47 46 46 46 46 47 47 47 48 48 48 49 48 48 48 43 45 49 51 46 43 34 35 39 48 41 42 46 39 42 43 41 37 36 39 33 36 43 41 42 43 43 42 43 43 40 39 37 37 37 34 33
46 46 46 46 47 46 46 47 48 48 48 48 48 48 47 42 39 41 49 50 49 45 37 36 34 34 44 41 41 38 39 34 41 36 37 38 34 35 38 39 40 41 43 39 39 39 39 36 35 35 35 34 32 31
46 46 45 46 46 47 47 46 46 47 47 48 47 41 32 39 49 50 46 43 43 44 43 35 40 35 43 36 37 36 36 35 32 35 39 34 34 37 38 40 40 40 41 40 34 32 34 33 33 33 33 34 34 32
46 46 46 46 46 47 47 47 48 48 49 43 39 37 44 49 45 41 34 36 37 34 37 37 37 37 43 35 35 36 34 33 33 35 36 33 34 35 39 40 41 42 42 42 42 39 38 37 34 32 32 33 32 33
47 46 46 46 46 46 47 47 48 47 42 43 45 47 46 41 36 34 32 33 32 33 34 35 37 41 38 42 35 35 34 33 32 36 34 32 34 37 37 38 38 39 38 38 40 37 37 36 35 34 32 31 31 30
46 46 46 46 46 47 47 47 47 47 47 46 42 36 37 32 31 28 30 31 32 33 34 34 34 35 37 38 33 34 33 32 34 33 31 31 36 37 37 38 38 39 38 38 37 37 35 34 33 32 29 29 30 29
46 46 46 46 46 46 46 47 46 46 43 36 34 28 30 28 29 29 30 31 32 32 33 34 33 34 33 34 32 32 32 34 30 27 27 32 34 34 35 36 35 34 33 33 32 32 30 30 29 29 30 30 28 27
46 46 46 46 46 46 46 46 44 43 37 33 32 27 28 31 32 32 32 32 33 34 33 34 34 36 33 32 32 32 31 27 27 26 29 32 33 33 33 33 32 31 31 31 31 29 28 29 28 27 27 28 27 26
47 46 44 46 47 46 45 44 42 40 33 32 31 28 31 30 29 30 31 32 35 33 34 34 32 32 30 29 25 23 26 22 25 29 31 32 32 32 31 31 31 31 31 31 30 29 28 28 27 26 26 25 24 23
46 41 45 45 45 45 45 41 37 33 30 29 29 29 28 29 27 28 29 30 34 34 31 31 25 23 29 25 20 23 21 25 28 30 32 32 32 31 31 31 31 31 30 30 30 29 28 27 26 26 25 25 25 23
40 43 46 46 46 45 41 39 32 32 29 30 27 27 27 26 25 26 28 31 32 32 30 26 28 18 15 14 16 21 23 24 30 30 31 32 32 32 32 31 31 30 29 29 28 27 27 26 26 26 26 25 24 24
41 42 45 46 44 39 34 35 36 28 27 29 28 29 28 26 29 29 29 31 31 31 29 25 19 17 17 20 19 21 21 23 26 26 26 27 30 31 31 30 30 29 28 28 26 25 25 25 25 25 25 24 21 20
44 43 44 45 44 35 33 32 37 31 29 27 28 26 26 25 26 26 27 29 29 27 21 18 17 18 19 20 22 22 22 24 27 24 21 23 25 25 25 25 25 25 24 24 24 24 23 21 21 21 21 22 20 17
40 39 41 39 35 35 32 31 31 31 31 29 28 26 24 25 23 21 22 27 23 20 17 20 19 21 23 23 23 24 22 22 19 21 21 19 21 22 22 22 22 21 19 19 18 18 18 17 18 18 17 16 17 17
33 39 29 33 30 30 29 30 30 30 29 27 26 26 22 16 16 19 23 18 18 19 21 20 20 21 20 20 20 22 22 22 21 19 18 18 15 15 16 18 18 16 16 16 16 14 14 15 15 14 13 13 15 13
36 33 27 27 23 22 21 27 22 26 18 17 20 20 17 15 19 23 14 18 17 21 22 22 21 21 20 20 20 20 21 19 17 16 15 14 14 13 12 12 13 12 11 12 13 12 9 10 9 7 7 7 5 3
34 23 16 15 19 11 14 15 23 21 17 15 15 12 18 12 17 12 10 14 17 19 18 19 20 18 18 17 15 15 17 17 15 14 15 13 10 9 10 9 9 9 9 10 8 4 3 0 1 1 -2 -7 -6 -9
23 19 16 11 14 14 9 8 10 14 8 8 11 17 12 13 6 5 8 10 12 11 12 15 16 15 11 11 11 13 15 14 11 9 10 12 7 9 8 8 7 7 7 1 -5 -9 -10 -14 -15 -16 -12 -16 -9 -10
16 20 19 9 12 14 9 8 8 8 6 8 14 17 8 3 0 3 11 7 9 9 8 9 7 10 11 12 10 10 11 14 12 7 8 9 7 -1 -3 -1 -1 3 2 -9 -11 -11 -10 -11 -15 -12 -13 -10 -10 -16
16 13 21 23 18 16 10 8 11 10 9 15 7 1 1 -5 -2 10 16 15 13 12 14 12 11 8 9 10 11 11 10 10 9 8 8 7 7 6 -0 -5 -3 2 3 -4 -8 -8 -8 -9 -12 -13 -14 -19 -19 -17
22 16 10 9 11 12 5 3 4 6 8 17 7 -4 -7 -6 1 10 14 16 14 13 11 10 8 7 5 5 6 7 6 3 5 3 2 2 -0 -3 -5 -7 -6 3 -10 -13 -12 -12 -13 -10 -8 -9 -12 -13 -10 -15
11 8 13 5 7 10 12 7 7 13 14 6 -3 -1 2 8 7 7 12 13 13 10 5 4 3 1 -1 -1 -2 -3 -4 -8 -7 -11 -15 -15 -15 -7 -7 -12 -14 -17 -19 -15 -4 1 3 -1 -2 -8 -10 -11 -9 -7
10 6 7 1 5 7 6 4 0 -2 7 3 9 10 8 5 10 12 10 8 5 -1 -10 -12 -13 -8 -12 -10 -11 -6 -8 -14 -13 -10 -15 -15 -11 -8 -11 -15 -15 -15 -16 -19 -20 -16 -8 -16 -12 -18 -18 -16 -17 -15
7 6 6 7 10 7 5 -0 -4 -2 -5 -4 -6 -6 -5 -0 3 7 4 -1 -4 -7 -6 -9 -10 -16 -12 -14 -16 -16 -12 -13 -15 -12 -12 -15 -15 -16 -18 -18 -19 -21 -22 -22 -24 -23 -22 -22 -24 -23 -23 -20 -18 -17
2 -2 3 4 10 9 6 8 -4 -2 -5 -7 -5 -8 -10 -9 -10 -3 0 -5 -9 -10 -11 -15 -13 -8 -11 -13 -17 -18 -12 -16 -16 -15 -15 -14 -14 -16 -18 -19 -23 -24 -23 -24 -26 -25 -24 -23 -23 -24 -26 -25 -21 -20
-4 -5 -4 0 6 7 7 8 5 2 -2 -3 -4 -5 -8 -9 -9 -3 0 -10 -10 -11 -12 -14 -15 -15 -10 -12 -14 -17 -11 -17 -18 -8 -6 -5 -10 -11 -18 -22 -24 -24 -22 -24 -25 -26 -23 -22 -23 -24 -25 -25 -24 -22

GFSWCAN_sfc_temp_039.txt.gz
Temp
49 49 48 48 48 49 49 50 50 50 50 49 49 50 50 51 51 48 41 46 44 39 41 45 45 44 48 48 41 44 45 46 39 38 37 38 36 41 41 43 41 41 38 36 34 35 37 52 51 48 54 53 53 53
48 49 48 48 49 49 49 49 50 49 49 49 49 49 50 50 51 49 39 46 47 41 41 48 49 49 48 55 50 48 47 46 46 42 38 37 35 34 40 39 45 41 45 43 45 45 53 52 56 56 54 55 52 54
46 47 49 49 48 49 49 49 49 49 48 48 49 49 49 49 49 48 42 43 43 40 40 41 43 51 52 51 56 46 47 52 48 51 43 42 37 38 35 38 41 44 47 46 47 51 51 52 53 54 54 54 54 55
46 46 46 48 48 48 48 48 48 48 48 49 49 49 49 50 49 49 43 44 43 43 34 39 51 47 55 53 53 54 54 51 50 49 42 39 38 46 39 44 42 45 47 44 46 48 48 51 52 53 50 50 49 50
46 46 46 46 46 47 47 47 47 48 48 48 48 48 49 49 49 46 44 45 46 42 36 39 47 51 52 52 51 53 53 51 47 43 38 41 41 41 38 41 39 47 47 43 44 54 53 55 55 49 48 48 48 46
46 46 46 46 46 46 46 46 46 47 47 48 48 49 49 49 48 43 38 46 48 48 39 33 46 45 51 51 50 50 52 51 50 45 40 43 48 43 38 40 51 52 51 51 53 51 45 44 47 48 46 45 45 45
46 46 46 46 46 47 47 47 47 47 48 48 48 49 49 49 46 41 39 43 48 49 41 34 35 45 49 50 49 49 50 49 49 46 41 44 44 45 36 41 53 51 52 48 47 48 45 44 45 44 43 42 42 42
46 46 46 46 46 46 47 47 47 48 48 48 48 48 48 49 47 43 46 49 50 45 43 33 33 38 48 41 42 47 44 46 45 44 40 41 41 38 37 47 46 46 46 45 45 45 48 43 42 40 40 40 37 36
46 46 46 46 46 46 46 47 47 48 48 48 48 48 45 43 40 41 48 48 49 45 35 33 32 34 45 41 42 41 42 38 43 38 39 42 37 38 43 44 43 43 44 42 41 41 42 41 38 38 39 38 35 34
45 45 46 46 46 46 46 46 47 48 48 48 46 41 34 41 48 49 45 41 41 42 42 35 40 36 42 36 36 36 37 36 36 37 40 37 37 40 40 41 43 42 42 42 37 35 36 36 36 36 36 37 37 35
46 46 46 46 46 47 46 47 48 48 48 43 39 37 42 48 44 39 33 34 36 34 38 37 38 37 43 37 36 37 34 34 34 37 37 35 36 36 40 40 42 43 43 43 43 41 41 39 36 35 34 35 35 35
46 46 46 47 47 47 47 48 47 46 44 44 44 46 45 41 37 33 31 32 33 34 35 36 37 41 38 42 36 36 34 33 33 37 35 33 34 37 39 39 39 41 41 40 40 37 37 36 37 34 33 33 31 30
46 46 47 47 47 48 48 47 47 47 47 46 41 36 38 33 31 29 29 31 31 32 34 34 34 36 37 39 34 33 32 32 35 33 30 31 35 35 36 37 35 37 37 37 35 35 35 34 34 32 30 30 30 29
46 46 46 46 47 46 46 45 45 46 43 34 33 29 30 27 28 29 30 31 32 32 32 33 33 34 33 33 32 32 32 32 30 27 27 31 33 33 33 34 34 32 32 32 32 32 31 30 29 30 29 29 28 27
46 46 46 46 46 46 45 45 45 43 37 32 32 26 28 31 31 32 32 32 32 34 33 34 34 36 32 32 32 32 30 25 25 25 28 31 32 32 32 32 31 31 30 30 30 29 28 28 28 27 28 29 28 27
46 46 44 46 46 46 46 45 42 39 34 32 28 25 28 28 25 27 27 29 33 32 34 34 32 31 28 28 25 21 24 20 23 25 30 32 31 31 31 31 31 31 30 30 30 29 28 27 26 26 26 25 25 25
46 41 46 45 45 45 45 41 38 33 32 30 26 26 25 25 24 25 26 28 32 33 30 30 22 21 28 22 19 21 18 21 22 26 30 31 31 31 31 31 31 31 30 29 29 28 27 27 27 27 25 26 26 24
41 44 46 46 46 44 41 38 32 31 27 27 24 24 25 24 23 24 26 29 31 30 29 24 28 18 15 15 16 19 21 22 27 25 24 29 31 31 31 29 30 29 28 28 28 28 28 26 25 24 25 25 25 25
44 44 44 45 44 39 34 34 35 25 24 26 26 27 24 23 26 28 28 29 30 30 28 24 17 15 16 18 17 19 20 21 24 23 23 24 25 26 26 26 26 26 26 26 25 25 24 25 25 25 25 24 22 22
44 43 44 43 43 35 33 32 37 30 25 26 27 24 23 22 23 24 25 27 27 25 19 16 15 16 17 19 21 20 20 23 26 21 19 21 23 23 22 23 23 23 22 22 21 22 21 20 21 21 21 22 21 19
40 39 41 39 35 35 31 31 31 31 30 28 28 25 22 23 21 19 20 25 21 18 15 18 18 19 21 21 22 22 20 20 17 19 18 16 19 20 20 20 20 20 18 17 16 15 16 15 17 18 18 17 18 19
35 40 32 34 32 31 30 30 29 29 27 26 24 25 19 14 13 16 21 16 16 17 19 19 19 19 19 19 19 21 21 20 19 17 16 16 14 14 13 15 16 14 14 14 14 12 12 12 13 13 13 12 14 14
36 33 27 27 23 23 21 28 22 25 18 18 21 19 15 13 17 23 13 16 16 19 21 21 20 21 19 19 19 19 19 18 15 15 14 12 12 12 11 11 12 11 9 10 12 10 8 8 9 8 8 8 8 8
34 22 15 14 19 11 14 15 23 20 17 17 17 15 16 13 17 12 10 13 15 17 17 18 19 17 17 15 13 13 16 16 13 12 14 12 10 9 10 10 10 9 9 10 8 5 4 2 1 4 2 4 3 4
21 18 16 11 13 13 9 9 11 15 10 13 12 14 10 13 6 5 8 12 13 11 12 15 15 14 10 11 11 12 13 14 11 8 10 11 10 10 9 8 7 7 8 6 3 3 3 2 1 2 2 1 1 1
15 17 16 8 11 15 12 10 9 7 10 9 11 13 7 5 2 4 11 10 11 11 10 10 10 11 11 12 10 10 11 14 12 7 8 9 8 5 4 3 4 5 5 1 3 2 3 2 1 0 2 2 -5 -3
13 10 19 21 17 15 10 8 11 9 8 10 7 2 1 -4 -2 10 14 14 12 10 11 9 10 11 10 10 10 10 10 10 9 8 8 8 7 7 5 2 1 3 3 1 0 0 -0 -1 -1 -0 -1 0 -0 -3
18 15 9 7 10 11 5 2 2 5 7 14 5 -3 -7 -4 3 9 13 13 12 12 10 8 8 7 7 7 7 7 7 6 6 6 6 6 3 2 0 -1 -2 -1 -3 -2 0 -1 0 -0 0 -1 -1 -2 -3 -2
9 5 11 2 5 6 8 3 4 9 12 4 -3 -3 2 7 7 7 12 13 12 9 4 3 2 0 1 2 -1 -1 -0 2 3 -4 -5 -4 -3 1 -0 -3 -4 -4 -5 -3 -1 3 5 3 1 -1 -3 -5 -5 -6
8 5 6 1 2 3 -1 0 -3 -3 5 4 8 9 6 5 8 11 9 8 6 1 -4 -6 -7 -1 -3 -1 -2 -1 -3 -6 -3 -2 -4 -4 -3 -1 -5 -5 -4 -4 -7 -6 -6 -5 -4 -5 -3 -5 -7 -7 -7 -7
6 4 6 7 8 3 1 -4 -10 -5 -5 -4 -6 -5 -3 2 5 7 6 2 -3 -6 -2 -3 -4 -9 -4 -5 -4 -5 -3 -3 -12 -8 -6 -6 -6 -5 -4 -5 -7 -9 -9 -9 -9 -9 -9 -8 -9 -10 -9 -10 -11 -12
0 -3 3 4 6 4 6 -1 -7 -4 -8 -5 -8 -9 -7 -6 -8 -1 1 -4 -4 -4 -8 -10 -7 -3 -7 -8 -11 -10 -11 -7 -6 -7 -8 -6 -4 -4 -5 -6 -10 -10 -8 -9 -10 -11 -12 -10 -10 -10 -11 -12 -13 -13
-6 -7 -4 1 4 3 5 4 1 -0 -5 -5 -6 -8 -11 -6 -6 -1 -1 -9 -3 -3 -6 -7 -7 -8 -10 -11 -8 -7 -8 -7 -12 -8 -6 -4 -6 -5 -6 -8 -10 -10 -9 -9 -10 -11 -10 -11 -10 -11 -11 -13 -14 -13

GFSWCAN_sfc_temp_042.txt.gz
Temp
48 48 48 48 48 48 48 48 48 49 49 50 50 49 49 49 50 51 47 55 52 47 50 50 51 50 52 53 47 53 52 52 50 44 44 47 43 48 51 55 48 46 45 42 48 41 41 62 61 58 67 65 69 67
47 48 48 48 48 48 48 49 49 49 50 49 50 49 49 49 50 51 44 54 56 49 43 52 49 51 50 62 58 55 55 54 55 49 50 52 43 41 50 44 55 45 54 53 54 54 67 64 70 70 71 71 66 68
48 48 48 48 48 48 49 49 49 49 49 49 49 49 49 49 50 51 46 52 53 48 43 43 47 52 52 57 61 54 57 62 58 63 54 52 45 49 42 49 54 54 52 49 52 64 62 65 70 68 68 69 69 69
47 48 48 48 48 48 48 48 49 49 49 49 49 49 49 49 50 51 49 53 53 49 38 45 56 50 56 58 59 59 60 63 61 60 54 48 46 57 52 57 51 60 53 55 56 64 60 63 66 69 66 64 63 67
46 47 47 48 48 48 48 48 48 48 48 49 49 49 48 49 50 49 51 52 56 52 39 44 53 56 58 56 55 57 57 58 58 52 45 46 56 52 51 51 50 58 57 51 53 66 63 70 71 69 65 60 63 63
46 46 46 47 47 47 47 47 48 48 48 48 48 48 48 48 49 43 37 49 56 56 42 34 49 49 52 52 49 52 57 57 57 54 51 57 55 54 45 49 61 64 64 65 63 61 63 60 60 68 63 62 63 61
46 46 46 46 47 47 47 47 48 48 47 48 47 47 48 48 48 44 44 49 52 53 43 36 40 49 51 51 50 50 54 55 55 52 51 54 52 54 46 46 62 65 66 64 57 55 56 55 57 55 58 58 54 59
46 46 46 46 46 46 46 46 47 47 47 47 47 47 48 49 50 47 49 49 54 49 45 37 37 40 50 45 43 51 49 49 50 49 48 50 52 48 45 57 61 63 57 55 55 54 52 54 54 53 53 52 50 49
46 46 46 46 46 46 47 46 46 47 48 48 48 48 48 48 41 42 48 49 51 48 39 37 35 36 46 42 43 41 45 41 48 44 48 50 45 44 52 54 53 52 51 52 49 52 50 50 48 46 47 47 47 43
46 46 46 46 46 46 47 47 47 48 48 48 48 41 35 41 48 48 45 39 41 46 47 38 43 33 41 41 41 38 37 37 36 41 47 42 47 49 47 48 50 50 49 49 45 43 44 42 43 45 45 47 45 44
46 46 46 46 46 46 47 47 47 48 49 48 39 37 49 48 49 47 36 35 36 34 42 41 41 36 43 39 39 43 36 34 34 39 41 39 42 41 43 46 48 48 49 49 50 49 49 49 46 42 42 43 43 41
47 47 46 46 46 47 47 47 48 47 47 45 48 51 49 45 43 34 32 34 34 36 39 37 39 42 42 48 44 40 38 36 34 39 39 36 34 37 39 41 44 46 47 46 47 46 46 45 44 42 40 36 33 32
47 47 47 46 47 47 48 47 47 47 47 51 47 41 39 35 31 30 30 32 33 34 35 36 36 39 44 47 38 36 34 35 36 33 29 29 33 35 35 36 36 38 39 38 38 37 36 36 36 34 31 31 31 30
46 46 47 47 46 45 46 46 46 47 45 37 34 30 32 30 30 31 31 32 35 33 34 36 35 36 36 34 33 34 33 34 31 28 26 29 32 32 33 34 33 31 32 31 31 31 30 29 29 30 30 30 30 29
46 46 46 46 45 46 46 45 45 44 37 32 33 28 29 31 30 30 31 32 33 33 33 34 35 35 33 32 32 33 30 26 27 25 28 29 32 32 32 32 31 30 30 30 30 29 29 29 29 29 30 30 30 28
47 48 46 46 46 46 46 45 43 40 36 32 27 24 26 27 25 26 26 27 31 31 33 34 33 31 28 28 26 23 25 19 22 24 27 31 31 31 31 31 30 30 30 30 30 29 29 28 27 27 28 27 27 27
46 45 46 46 46 46 46 43 40 34 32 28 25 26 24 25 23 25 27 27 31 34 30 31 25 23 31 25 21 23 19 22 23 24 26 29 30 30 30 30 30 31 30 30 29 29 28 28 29 28 26 26 27 26
43 45 46 47 49 47 45 42 36 32 26 26 24 24 25 25 23 25 28 32 34 33 32 26 30 21 20 19 19 21 23 25 26 24 24 26 27 27 28 28 28 29 28 29 29 29 28 27 27 27 27 27 26 26
45 45 45 45 45 44 37 37 39 26 25 27 27 29 28 26 29 30 31 33 34 35 32 28 21 18 18 20 20 22 23 26 23 23 24 24 25 26 26 26 26 25 25 26 26 25 25 26 27 27 27 28 26 27
44 44 43 44 44 38 34 35 41 32 28 30 31 27 27 26 28 28 28 32 31 28 21 19 18 19 20 21 23 22 23 26 27 22 21 22 24 23 23 24 24 24 24 23 23 24 25 23 24 24 24 24 24 23
42 40 41 42 40 38 34 35 34 35 34 32 32 32 29 30 26 24 24 30 25 21 18 21 20 21 23 23 24 24 21 22 21 22 20 19 21 23 22 22 22 22 21 21 19 19 19 19 20 21 21 20 21 21
40 41 39 40 37 36 35 36 37 37 36 33 32 32 26 23 23 22 27 21 18 19 21 21 22 23 21 21 22 23 23 22 21 21 19 20 18 18 18 19 20 17 17 17 17 16 16 16 18 18 17 18 19 18
40 39 36 35 32 33 30 38 31 32 28 29 32 26 24 23 24 29 19 20 19 22 23 23 22 23 21 21 21 21 23 22 21 20 19 19 19 18 18 17 18 16 15 16 17 16 14 13 14 14 15 15 16 15
38 29 25 26 31 25 29 27 32 29 28 27 26 21 20 22 26 21 14 17 19 22 22 21 24 22 22 20 19 19 21 23 20 19 21 20 17 16 17 16 16 16 16 16 15 14 13 12 12 14 12 12 12 11
27 23 27 23 28 25 23 22 23 25 21 23 21 20 19 25 17 15 14 17 18 18 19 21 21 21 18 18 19 18 19 21 19 16 17 19 18 18 16 16 14 13 15 14 12 12 11 11 12 11 11 10 8 9
19 21 23 23 23 24 23 19 19 19 21 19 18 20 22 18 13 11 16 18 18 17 17 18 18 18 18 20 18 17 17 20 20 15 14 16 16 14 13 12 12 10 12 11 10 10 10 9 9 8 8 8 6 6
18 19 24 26 26 24 21 23 24 21 17 16 17 15 16 9 9 14 18 19 18 16 17 18 21 19 17 16 17 17 17 17 15 14 15 14 13 13 11 9 7 9 11 10 9 8 7 7 7 7 7 8 7 6
22 23 16 17 19 21 16 17 16 15 16 19 18 8 8 8 10 16 18 17 17 17 16 16 17 18 17 16 16 16 15 13 12 13 14 13 12 11 9 10 8 6 8 7 9 9 9 8 7 7 5 5 4 5
18 20 21 9 15 15 12 13 14 15 16 17 12 9 9 12 14 16 17 18 18 17 14 12 11 13 12 12 12 12 14 14 10 5 5 7 9 9 9 9 9 8 8 8 7 8 8 8 7 5 4 4 4 5
18 20 17 12 9 10 11 12 12 13 14 15 15 13 12 12 13 17 18 17 16 14 12 12 12 15 12 13 10 9 9 9 8 8 7 6 6 7 8 7 7 7 6 6 5 6 5 5 6 6 4 3 3 1
18 23 18 17 12 14 14 14 14 14 13 12 12 11 9 11 13 14 13 12 11 10 12 11 9 11 11 10 11 9 8 8 3 3 5 7 7 8 8 6 7 6 6 5 3 3 2 3 4 2 2 0 -1 -1
16 15 16 12 12 14 15 15 15 14 13 13 10 10 9 11 8 11 12 13 12 12 6 9 11 10 8 8 6 7 -3 6 7 5 3 6 8 8 7 7 5 5 4 3 3 2 1 0 1 0 0 -0 -2 -3
14 16 17 15 12 11 15 16 14 11 12 12 10 10 10 11 7 11 9 9 13 13 11 11 10 9 7 5 6 7 4 7 1 -0 0 1 -1 2 3 6 5 3 2 2 2 1 -0 -0 -0 -1 -1 -3 -3 -4

GFSWCAN_sfc_temp_045.txt.gz
Temp
47 48 49 49 49 49 49 49 49 49 49 49 49 50 50 50 49 48 46 58 55 49 51 55 57 50 55 57 49 55 54 54 52 45 45 48 47 53 53 56 50 46 45 43 48 45 41 67 67 60 67 74 75 75
48 49 49 49 48 48 48 48 48 49 49 49 49 49 50 50 49 50 45 57 58 48 42 54 57 58 59 62 59 57 54 55 58 52 52 52 47 49 52 43 61 46 54 51 55 55 67 67 69 73 77 76 75 75
48 49 48 48 48 48 48 48 47 48 48 48 49 50 50 50 49 49 50 54 51 44 46 52 51 58 59 58 62 48 58 64 61 66 59 54 47 53 43 48 54 62 61 54 57 64 67 68 70 74 76 75 78 78
48 48 48 48 48 48 48 48 48 48 49 49 49 50 50 49 49 50 52 55 53 49 39 48 61 56 61 56 56 59 58 64 67 65 56 52 48 62 52 56 54 61 61 57 59 66 68 72 71 72 75 75 75 75
47 48 48 48 48 48 48 48 49 49 49 49 50 50 49 49 49 52 52 54 56 51 44 48 57 57 58 53 51 56 58 58 60 55 51 49 58 58 59 57 55 66 60 55 54 66 65 66 73 75 73 73 71 70
47 47 47 48 48 48 48 48 48 49 49 49 49 48 48 49 49 47 38 49 56 56 51 38 54 56 58 54 51 54 58 58 60 58 53 58 63 59 49 49 62 67 69 68 64 69 66 68 71 71 73 74 73 70
46 47 47 47 47 48 47 48 48 48 48 47 47 48 49 50 51 44 43 52 56 60 51 43 43 54 58 56 53 52 57 57 54 51 52 55 58 57 51 47 62 66 68 69 71 69 59 63 64 65 68 72 66 70
46 46 47 47 47 47 47 47 47 47 47 48 48 49 48 49 50 49 51 52 57 55 53 41 40 44 55 47 45 55 51 53 54 51 56 52 56 54 47 58 63 66 66 66 64 64 63 60 60 60 63 62 60 63
46 46 46 46 47 47 47 47 47 47 47 47 47 48 47 46 43 45 49 50 59 55 43 41 37 35 43 43 48 48 48 43 55 47 49 54 48 44 53 58 62 59 55 56 56 56 58 56 58 55 56 56 57 56
46 46 46 45 46 46 46 46 47 47 47 48 51 47 40 46 48 49 45 41 46 49 48 40 47 36 38 39 37 39 43 39 36 40 53 47 48 52 47 52 54 54 55 55 51 51 52 51 53 52 53 55 55 51
47 46 46 47 47 47 47 47 47 48 49 53 43 42 47 47 43 43 36 34 35 36 44 44 43 39 46 36 37 43 37 38 35 40 44 43 43 34 37 43 49 52 53 53 54 55 54 54 54 51 49 50 48 47
47 47 47 47 47 47 47 48 48 52 50 45 50 54 53 48 45 36 34 35 35 38 42 41 42 45 42 43 39 42 35 38 34 40 40 30 30 34 34 36 38 42 46 48 50 50 50 50 50 47 42 38 35 33
46 47 47 47 47 47 47 47 47 47 49 53 51 44 45 37 31 30 30 33 33 34 36 39 37 41 42 40 39 38 35 34 35 32 28 30 33 34 33 34 34 35 35 36 36 36 35 34 35 33 31 31 31 30
46 46 46 46 46 46 46 46 46 46 52 39 36 31 32 31 31 30 30 31 33 33 33 37 35 35 37 37 33 33 33 36 31 29 26 30 31 32 33 32 32 30 30 30 30 30 29 29 29 30 31 31 30 29
46 46 46 45 45 46 46 45 47 48 43 33 35 26 28 30 31 31 32 33 35 34 34 35 34 35 32 32 33 35 32 27 27 25 27 29 32 32 31 31 31 30 30 30 30 30 30 30 29 29 30 30 29 28
47 47 45 46 46 47 46 47 47 47 39 31 28 25 26 28 27 28 29 29 33 31 33 35 33 31 28 30 27 25 26 22 24 27 28 30 30 31 31 31 31 31 30 30 30 29 29 28 28 28 29 29 29 29
49 47 46 46 46 47 47 44 41 34 31 28 25 26 25 26 24 26 28 30 34 33 31 31 26 24 30 24 20 22 19 22 25 26 28 28 27 28 29 29 30 30 30 29 29 29 29 29 29 28 26 27 27 27
47 47 46 47 50 49 46 43 36 31 25 26 24 25 26 26 25 27 29 30 33 31 30 26 31 22 21 20 20 23 25 25 26 25 25 27 27 26 27 26 27 27 26 26 27 28 29 28 28 27 28 28 28 27
48 48 45 45 47 45 38 37 38 26 26 28 28 28 28 27 29 31 32 34 35 36 33 30 23 20 20 23 23 25 27 27 24 25 25 25 26 26 26 26 26 25 25 26 26 26 26 26 27 28 28 28 26 27
43 43 43 44 47 42 36 35 43 35 29 31 33 30 29 28 31 31 31 35 34 31 24 20 19 20 21 23 25 25 27 29 27 24 23 25 26 25 25 26 26 26 26 26 25 26 27 25 26 26 26 25 24 22
42 41 44 47 44 41 38 38 37 38 37 33 35 35 31 33 29 27 28 32 26 24 20 22 22 23 25 26 27 26 25 26 24 25 23 22 25 26 25 25 25 25 24 23 21 20 21 21 23 24 23 22 21 23
40 41 43 44 41 39 38 41 39 41 38 37 35 35 30 27 26 26 29 23 21 21 24 23 24 25 24 23 25 26 26 26 26 25 24 25 22 23 23 24 23 21 21 21 20 19 19 19 22 21 20 21 22 20
43 45 42 41 34 35 32 43 33 37 30 32 35 29 27 27 28 34 23 23 21 26 25 25 25 26 24 25 25 26 27 27 26 25 24 24 24 23 22 22 22 20 19 20 21 20 18 18 18 19 20 19 19 19
42 33 30 31 34 27 34 30 37 34 33 31 28 23 24 26 31 25 18 20 23 26 26 26 28 26 26 24 23 24 26 27 25 24 26 24 22 21 22 21 20 20 21 22 20 19 18 17 17 18 16 15 15 15
31 25 30 27 33 30 27 27 28 29 25 28 24 24 24 30 22 20 18 19 21 21 22 25 26 26 22 22 23 22 24 26 23 20 22 25 24 24 22 20 18 18 19 17 16 16 15 15 15 14 14 12 10 11
22 25 26 27 28 28 28 24 25 25 26 23 22 26 28 24 18 16 19 20 20 20 20 22 22 23 23 24 22 21 22 26 25 19 19 20 19 18 17 16 16 14 17 15 14 13 13 13 12 11 12 12 10 10
23 24 27 32 31 30 28 28 29 26 22 21 24 22 22 15 14 17 21 23 20 21 23 24 24 23 21 21 21 21 22 20 19 18 19 19 18 17 15 13 10 12 15 14 14 13 12 11 11 11 10 11 11 9
26 26 20 24 24 28 22 23 22 20 21 24 25 15 14 15 15 20 20 21 22 22 22 21 23 23 22 21 22 21 20 19 17 19 19 18 17 16 14 15 12 10 12 11 11 12 12 11 11 10 9 8 8 10
24 26 24 15 20 19 17 19 19 19 20 24 19 15 14 17 20 19 20 22 23 22 19 18 18 19 18 18 18 18 18 18 15 9 8 13 14 13 14 14 13 13 13 13 11 10 10 10 10 8 8 9 10 10
22 28 21 16 15 14 15 19 16 17 20 20 19 17 16 16 18 23 21 21 21 19 19 19 19 20 18 18 15 13 14 14 12 12 12 11 11 12 13 12 11 12 12 11 10 11 10 10 11 11 9 8 9 6
28 27 22 20 15 17 18 20 20 21 20 18 20 18 15 15 17 19 19 19 19 18 18 16 16 18 16 16 17 14 12 12 8 9 10 12 13 13 12 11 11 11 11 10 9 9 7 7 9 8 7 6 5 4
24 23 19 15 15 18 21 22 22 20 20 19 15 17 16 17 13 15 18 19 18 17 12 17 16 15 15 14 13 11 7 12 12 10 6 10 12 12 11 11 11 10 9 8 8 8 7 6 6 6 6 5 4 2
23 22 22 19 17 17 20 22 20 17 19 17 16 17 16 17 13 16 17 19 18 18 17 17 17 15 12 11 12 12 11 12 6 4 4 4 3 5 7 10 10 9 7 7 7 7 6 5 4 4 4 3 2 2

GFSWCAN_sfc_temp_048.txt.gz
Temp
48 47 48 49 49 49 49 49 49 49 50 49 49 49 50 50 51 48 44 50 47 43 52 53 52 46 51 54 47 55 54 53 43 41 43 44 42 49 49 54 44 39 39 39 43 40 38 65 65 57 63 67 71 72
47 48 49 49 49 48 48 48 48 48 49 49 49 49 49 50 50 50 42 49 53 46 45 52 53 55 54 57 56 56 54 54 53 45 49 50 44 46 50 42 59 41 47 43 50 50 61 64 63 68 70 70 70 70
48 49 50 49 48 47 48 48 48 48 49 49 49 49 49 50 50 51 46 48 47 43 46 46 47 55 59 60 63 52 57 60 55 54 53 52 45 50 43 47 53 59 59 50 49 55 59 64 65 68 70 67 73 75
48 48 48 48 48 47 47 47 47 48 49 49 49 48 50 49 50 51 45 48 47 48 38 42 52 55 63 61 60 58 58 57 59 61 52 49 45 59 48 54 50 56 61 56 55 59 63 66 62 65 68 71 72 72
47 48 48 48 48 48 47 47 47 48 48 49 49 49 50 50 50 50 49 49 53 47 39 41 52 60 60 59 57 58 56 52 50 46 45 46 50 53 56 56 52 62 58 52 50 62 59 61 64 69 67 68 71 70
47 48 47 47 48 48 48 48 47 48 48 48 48 49 49 49 50 46 38 46 52 54 46 37 54 53 56 56 55 55 55 52 50 49 48 56 61 56 47 47 60 64 65 66 62 66 62 64 65 69 65 66 71 70
47 47 47 47 48 48 48 48 48 48 49 49 49 49 48 49 50 46 44 49 53 56 46 42 44 54 57 55 52 51 55 48 47 47 45 52 55 56 47 43 59 64 65 66 67 65 62 66 61 62 62 64 66 70
46 47 47 47 47 47 48 48 48 48 48 48 48 48 48 49 50 47 52 51 54 50 51 40 41 44 56 46 44 52 48 49 49 48 50 50 55 50 45 56 60 63 65 64 57 60 61 61 61 62 61 61 60 61
46 46 46 46 47 47 47 47 47 47 47 48 48 49 48 45 43 45 50 53 56 51 42 42 37 35 43 46 47 47 50 40 52 45 46 51 47 40 38 42 48 52 53 53 56 57 57 57 58 58 55 55 54 54
45 46 46 46 46 46 46 47 47 48 49 50 48 43 37 44 49 51 48 43 43 47 47 40 48 36 43 36 39 39 43 38 38 45 49 42 41 38 36 37 41 43 49 53 49 48 50 50 53 54 54 54 55 52
46 46 46 46 47 47 47 48 48 49 48 47 44 38 45 49 47 43 37 38 40 36 45 46 44 38 42 35 34 40 38 35 35 42 41 41 33 32 35 35 39 40 45 47 50 51 51 51 52 51 48 44 41 38
47 47 47 47 47 47 47 47 47 48 48 45 47 49 46 39 37 35 33 33 33 37 43 40 41 43 39 42 34 36 34 34 32 42 35 27 30 34 34 33 33 35 38 38 39 38 38 39 39 36 34 32 32 32
47 47 47 47 46 47 47 47 47 47 50 52 48 42 42 37 32 31 29 32 32 32 34 39 37 39 39 39 32 33 32 32 34 31 27 27 32 33 32 32 31 32 32 32 32 32 32 31 31 30 29 29 29 28
46 47 47 47 46 46 46 47 46 49 51 41 36 30 31 29 29 28 28 30 32 32 31 34 35 33 33 32 32 32 32 33 30 26 22 27 30 31 31 31 30 29 29 29 29 29 28 28 27 28 29 28 27 26
46 46 46 45 46 46 46 47 48 51 41 32 34 25 27 29 30 30 32 32 32 34 32 34 34 35 33 32 32 34 30 23 24 21 24 28 30 30 30 30 29 29 28 28 28 28 27 27 27 27 27 27 26 26
47 47 45 45 46 47 46 48 49 47 39 31 27 25 28 29 27 29 29 30 35 32 33 35 33 31 28 30 27 23 25 19 21 24 26 28 28 28 29 29 29 29 29 28 28 28 27 26 26 25 26 26 26 26
47 47 46 47 47 47 47 45 42 34 30 28 25 27 27 27 25 28 30 30 33 31 31 31 26 25 32 25 21 24 19 21 24 25 26 26 25 26 26 26 26 27 28 28 28 28 27 27 27 26 24 25 26 25
47 47 46 47 47 48 45 43 36 32 25 26 25 26 28 28 27 29 30 32 34 32 31 25 28 21 18 18 18 23 22 23 24 23 24 25 25 25 25 25 25 26 25 25 25 25 26 26 26 26 27 27 27 26
46 47 45 46 48 45 37 37 39 26 26 28 28 29 28 27 28 30 31 31 31 31 29 25 20 18 18 21 23 25 24 24 22 23 23 24 25 26 25 25 24 23 24 24 24 23 23 24 24 24 25 25 22 24
44 43 44 45 48 43 36 35 43 34 29 29 30 28 28 27 29 27 27 31 31 27 21 18 18 20 20 22 25 26 27 27 26 23 22 24 25 24 24 24 24 24 23 23 23 24 24 23 24 23 22 22 21 20
42 43 46 49 46 44 39 39 37 36 35 32 34 32 29 31 26 25 26 30 25 23 19 21 21 23 25 26 27 27 26 27 25 24 22 21 24 25 24 25 25 24 22 21 19 18 19 20 21 23 21 19 19 19
40 43 45 47 41 41 39 43 39 41 37 35 35 35 30 27 26 26 29 23 20 21 23 23 23 24 24 24 25 27 26 26 26 25 25 25 22 22 22 23 22 20 20 20 19 17 18 17 20 20 19 19 20 18
43 45 43 41 34 34 32 43 33 38 31 32 34 29 27 26 29 34 22 23 22 25 26 25 25 26 24 25 26 27 29 27 25 25 24 24 24 23 22 21 22 20 19 20 21 19 17 17 17 17 18 17 17 17
44 34 31 32 34 28 35 31 38 34 34 30 28 23 25 27 32 25 17 20 23 27 26 26 28 26 25 24 23 25 26 27 25 25 26 24 21 20 20 19 18 19 20 20 19 17 17 16 15 16 14 13 12 13
32 26 31 28 34 31 29 28 29 30 26 29 25 24 25 30 23 21 18 20 22 23 24 26 26 25 21 21 22 23 25 25 22 19 21 24 23 24 21 18 17 17 18 16 15 14 14 14 14 13 13 11 9 10
22 26 28 29 29 30 30 26 27 27 27 24 23 27 29 25 20 16 19 20 21 21 22 23 23 22 22 23 21 20 21 26 23 17 18 19 18 18 17 15 14 12 16 15 13 13 12 12 11 11 11 11 7 9
24 24 29 35 34 32 29 30 31 27 24 22 25 24 24 17 15 17 21 23 20 22 25 25 25 23 21 20 21 21 21 20 19 18 19 18 17 17 14 11 8 10 15 13 13 12 11 11 11 10 10 10 10 9
26 28 21 25 24 29 24 24 23 21 21 25 26 17 16 16 15 20 21 22 23 23 23 23 23 23 21 21 21 21 20 19 18 20 19 18 17 16 15 14 13 13 13 12 11 11 11 10 10 10 9 8 8 10
25 27 23 16 20 19 19 20 19 19 21 23 21 16 14 18 21 20 21 23 24 22 19 18 18 20 19 19 18 18 18 16 16 12 12 13 13 11 14 14 14 13 13 13 13 12 10 9 9 8 8 8 9 11
24 29 20 17 15 13 16 20 18 21 23 20 19 18 16 17 20 24 22 22 21 19 20 20 20 20 18 18 15 14 14 13 12 11 11 10 10 12 13 12 12 12 12 12 11 11 12 10 11 11 9 9 9 6
30 27 22 19 15 17 19 21 22 22 22 20 21 17 14 15 18 21 21 21 20 20 18 17 17 18 17 16 16 15 12 11 9 9 9 12 12 13 12 11 12 12 11 10 9 9 9 7 7 7 8 7 6 5
27 23 19 15 15 20 22 23 23 21 21 18 16 18 18 18 14 16 20 21 19 18 12 19 17 15 15 14 13 11 7 12 13 11 11 10 12 11 11 11 11 11 10 8 8 8 8 7 6 6 5 5 5 3
24 24 22 20 18 20 21 23 22 19 20 18 17 18 17 18 13 15 19 20 19 19 18 18 17 15 13 13 14 12 9 11 6 7 6 5 2 4 5 9 10 8 7 6 7 7 7 7 6 5 3 3 3 3

GFSWCAN_sfc_temp_051.txt.gz
Temp
48 48 47 47 48 48 49 49 49 49 49 49 49 49 50 50 51 47 43 45 40 34 43 49 50 43 47 47 39 44 44 44 38 35 34 32 30 41 40 44 36 37 35 32 35 32 31 53 57 51 53 61 63 63
47 47 48 48 49 49 49 49 49 49 49 49 49 49 49 50 50 49 42 45 46 38 42 48 52 53 50 51 46 45 44 47 42 36 36 36 31 36 38 31 49 37 41 37 41 38 52 53 53 58 62 61 59 60
47 48 49 49 48 48 47 48 48 48 49 49 49 49 49 49 50 49 44 45 43 38 40 44 44 50 54 52 54 42 44 51 46 46 40 40 35 39 34 38 43 46 49 42 43 50 54 58 58 60 59 59 62 64
47 48 48 48 48 48 47 47 48 48 48 49 49 49 49 49 50 49 44 46 44 42 34 39 50 47 54 53 51 51 50 50 49 46 41 39 34 48 35 43 40 45 49 47 46 52 56 57 59 59 61 61 61 64
48 47 47 47 47 47 47 47 47 48 48 48 49 49 49 49 50 48 47 47 48 42 35 37 46 50 53 52 49 50 50 46 43 39 35 35 41 42 42 42 40 50 47 41 38 55 53 56 60 60 60 61 64 61
47 47 47 47 47 47 47 48 48 49 49 49 49 49 49 48 49 45 39 45 47 48 42 31 46 48 51 52 50 49 48 45 44 42 40 42 47 47 35 34 50 54 56 56 53 57 57 57 60 59 59 60 61 59
47 47 47 47 47 47 47 47 48 48 48 48 48 48 48 48 47 42 39 45 49 48 42 34 36 46 50 49 45 43 46 44 43 41 40 43 44 46 31 31 47 51 55 54 54 54 52 51 51 54 55 56 57 59
47 47 47 47 47 47 47 47 48 48 48 48 48 49 49 49 48 44 48 51 50 45 43 31 30 36 47 37 36 43 39 42 40 39 41 38 42 39 33 38 40 42 47 49 49 51 51 52 53 52 53 53 52 51
46 46 47 47 47 47 47 47 48 48 48 48 48 49 47 44 40 42 50 51 49 44 35 31 28 27 40 37 39 39 41 33 41 33 37 40 33 30 32 33 36 39 40 44 48 49 49 48 49 50 50 49 47 43
46 46 46 46 46 47 47 48 48 48 49 49 47 40 35 41 50 51 45 40 41 40 40 31 36 32 38 34 36 36 34 30 28 33 42 34 29 33 33 35 35 36 41 43 39 36 39 40 44 39 38 39 37 35
46 46 46 46 47 47 47 47 48 49 48 45 39 37 44 48 44 40 32 32 33 30 36 36 33 32 38 32 33 35 33 33 32 33 35 31 25 29 33 33 34 35 37 38 40 39 38 37 36 34 33 32 31 29
47 47 46 46 46 46 46 46 47 46 43 44 44 46 43 39 37 32 28 31 31 31 35 30 32 36 37 37 31 34 32 32 29 36 30 23 26 30 31 30 31 32 33 33 33 33 33 33 32 30 28 27 27 26
47 47 47 47 47 47 47 47 47 47 48 47 44 35 37 33 28 26 26 29 30 30 32 34 33 30 36 36 30 32 31 31 33 28 21 22 27 29 29 29 29 30 30 30 29 29 29 28 29 28 26 26 26 25
47 46 46 46 46 46 47 47 48 47 44 36 32 24 27 24 25 24 25 27 30 31 31 31 33 33 32 29 31 31 31 31 24 20 17 23 26 27 29 29 28 27 27 27 26 26 26 25 24 25 25 25 25 24
46 46 47 45 46 46 47 47 48 42 34 26 27 20 20 27 27 27 29 30 31 32 30 32 32 33 31 30 29 30 25 18 19 16 20 23 25 27 27 27 27 26 26 25 25 25 24 25 25 24 25 26 26 25
47 47 44 46 47 47 46 46 42 40 32 25 22 18 21 19 16 22 26 27 31 30 32 33 31 28 25 24 21 18 18 15 17 20 22 24 24 24 24 26 26 26 26 25 25 25 25 24 23 23 24 24 24 24
47 42 46 46 46 47 47 41 35 30 27 25 20 24 19 19 21 25 27 26 31 30 28 28 20 19 27 17 14 17 13 17 20 21 22 23 23 23 24 24 24 24 24 25 26 26 26 25 26 25 23 24 24 23
42 44 46 46 47 45 41 38 32 30 23 23 20 23 25 23 22 25 26 27 30 29 28 23 26 17 15 14 14 17 18 20 21 22 22 22 22 22 23 22 23 23 22 22 22 22 22 23 22 21 23 24 24 23
43 43 45 45 46 40 33 34 35 24 24 26 25 26 26 25 25 26 27 28 28 29 27 23 17 15 15 20 19 20 20 20 19 20 21 22 24 24 23 22 21 20 21 21 21 20 20 20 20 20 21 21 19 21
46 45 44 45 46 37 33 32 37 29 25 26 27 24 23 23 26 25 25 27 27 24 19 16 16 18 18 20 23 23 24 24 23 20 19 20 22 21 20 20 20 20 19 19 19 20 19 19 19 18 17 17 16 15
43 43 44 45 41 39 35 33 31 31 29 28 29 27 25 26 22 20 21 26 21 18 16 18 18 20 23 23 24 23 22 23 21 21 19 18 20 21 20 20 20 19 16 15 13 12 13 14 15 17 14 9 10 14
39 44 37 40 34 35 32 34 31 33 30 28 26 27 20 15 15 18 23 17 17 17 19 19 20 21 22 22 22 24 24 24 23 21 21 20 17 16 16 16 16 13 13 12 11 8 8 12 13 11 10 11 10 9
42 41 34 34 29 28 25 34 26 31 22 24 25 22 20 17 22 25 14 19 19 22 23 22 23 25 23 24 24 25 26 24 20 19 17 16 16 13 13 13 13 9 10 12 14 11 8 10 8 4 4 6 4 5
40 31 26 26 27 19 26 23 29 27 24 22 20 16 17 18 22 15 13 17 19 23 23 23 23 21 20 20 18 20 22 21 17 16 17 15 13 12 13 12 11 12 13 15 11 6 6 -1 4 4 -4 -5 -6 -8
24 21 24 20 27 21 18 18 19 20 16 18 14 16 17 22 13 13 13 16 18 18 19 22 21 19 14 11 14 17 18 18 14 12 13 16 15 14 12 11 9 10 10 3 3 -5 -5 -6 -5 -4 -5 -10 -4 -7
15 20 21 23 22 19 21 15 15 14 15 13 16 22 19 11 6 9 16 15 13 14 18 16 13 14 15 17 13 12 14 19 16 9 12 13 11 3 2 5 2 2 6 1 -3 -0 -4 -3 -7 -5 -7 -0 -5 -9
14 19 26 30 26 25 20 21 22 16 12 16 17 15 9 1 3 12 17 16 12 16 19 19 18 16 14 14 15 13 13 13 11 13 12 13 12 10 4 -4 -5 0 5 -1 -5 -5 -4 -5 -6 -5 -7 -10 -9 -9
23 22 16 18 16 21 13 13 12 11 10 17 15 4 2 4 6 15 13 15 15 17 17 16 17 16 15 15 15 13 11 9 7 11 11 10 6 3 4 3 3 8 3 -0 -5 -7 -7 -9 -9 -8 -10 -10 -7 -7
18 19 17 10 12 13 13 11 10 13 17 16 6 4 6 15 12 13 13 14 17 15 8 7 6 6 7 8 8 6 4 3 -0 -4 -6 -1 -0 -0 -2 -2 -2 -2 -4 -2 7 4 -2 -4 -6 -6 -7 -9 -8 -3
18 20 13 9 7 7 12 13 15 11 13 10 13 14 14 13 15 15 17 18 17 12 11 9 12 11 10 9 -1 -2 -3 -5 -6 -5 -5 -5 -3 -4 -1 -5 -5 -4 -6 -5 -4 -4 5 -5 -4 -3 -3 -5 -6 -12
23 18 14 12 9 11 9 13 17 17 16 12 9 7 4 6 9 15 11 8 7 6 5 4 4 5 4 0 1 0 -4 -5 -7 -6 -6 -6 -4 2 -3 -7 -3 -5 -6 -5 -9 -9 -8 -10 -10 -10 -10 -9 -9 -8
19 13 9 6 10 14 17 18 12 10 9 4 3 4 7 7 3 6 8 12 12 7 6 10 7 1 -2 -2 -5 -7 -3 -3 -2 -5 -7 -8 -6 -10 -9 -7 -6 0 -4 -9 -9 -8 -8 -7 -9 -10 -11 -10 -12 -13
17 17 13 10 9 9 14 13 11 11 10 6 4 6 6 6 1 5 7 9 14 11 10 7 2 -2 -3 -0 -1 -5 -1 -7 -5 3 -1 -3 -6 -6 -12 -11 -10 -12 -12 -12 -12 -11 -7 -6 -7 -7 -8 -11 -12 -12

GFSWCAN_sfc_temp_054.txt.gz
Temp
48 48 48 48 48 48 48 48 48 49 49 49 49 49 49 50 50 46 43 46 40 34 37 44 49 42 43 43 36 40 39 39 35 31 29 29 26 35 35 39 34 34 33 32 33 31 29 51 55 48 49 52 57 59
48 48 47 47 47 48 48 49 48 48 48 49 49 49 49 50 50 49 41 45 47 40 38 44 46 51 53 53 46 41 41 42 42 34 32 32 28 27 34 30 42 35 39 36 37 36 50 51 53 53 56 54 55 54
47 47 47 48 48 48 48 48 49 49 49 49 49 49 49 50 50 49 42 43 42 37 38 39 40 51 52 51 51 41 42 48 43 43 37 36 33 32 28 31 39 43 48 39 41 48 51 55 54 56 56 55 57 58
47 48 47 47 48 48 48 48 48 48 48 48 49 49 49 49 50 49 42 44 42 39 32 38 49 44 53 51 51 49 48 50 48 43 37 32 31 41 30 39 36 44 46 45 44 49 53 55 57 58 57 57 58 60
47 47 47 47 47 47 47 47 47 47 48 49 49 49 49 49 49 47 46 45 45 41 33 36 44 49 51 49 48 48 47 46 43 39 35 32 37 38 38 40 39 47 44 40 38 51 51 52 57 58 58 59 61 58
47 47 47 47 47 48 47 47 47 48 47 48 49 49 49 48 48 44 38 45 46 45 40 33 43 46 48 47 46 46 46 44 44 40 38 39 44 42 34 35 43 43 44 47 44 48 52 53 54 56 57 55 56 56
47 47 47 47 47 47 47 47 48 47 48 48 49 48 48 47 45 40 38 42 48 45 38 33 34 45 47 45 42 42 44 42 42 40 38 40 41 44 34 33 38 41 42 45 47 48 47 48 47 50 52 53 53 52
47 47 47 47 47 47 47 47 48 48 48 48 48 48 48 49 49 43 45 49 46 40 42 31 32 35 44 37 37 43 40 40 40 39 36 38 41 40 33 33 36 38 41 42 43 45 45 47 49 48 49 49 43 39
46 46 47 47 47 47 47 47 47 47 47 48 48 48 46 43 40 42 47 48 46 42 34 30 29 30 39 35 36 38 38 32 38 33 32 37 32 26 28 31 33 34 35 38 43 40 41 41 39 39 40 39 36 33
46 47 46 47 47 47 47 48 48 48 47 47 45 40 32 42 48 47 43 39 38 38 37 29 33 32 37 30 34 34 31 27 31 32 37 29 26 31 31 33 33 33 35 38 37 35 36 36 35 33 33 32 31 30
46 46 46 47 47 47 47 47 47 48 48 43 39 36 43 47 43 38 31 31 32 30 33 32 30 30 36 28 30 34 32 33 30 31 30 26 21 27 30 30 32 33 35 34 36 35 35 34 32 31 29 28 28 27
47 46 46 46 47 47 47 47 47 44 41 42 43 44 40 38 35 29 28 29 28 31 33 28 31 35 34 36 30 33 32 32 29 34 26 17 24 27 28 29 29 30 31 30 31 29 29 30 29 27 27 26 25 25
46 46 46 46 46 47 47 47 48 48 46 45 40 35 35 30 22 20 23 25 26 30 30 32 33 34 34 34 31 32 30 30 32 23 17 20 25 27 27 28 27 28 28 27 27 27 27 26 26 25 24 24 24 23
46 46 46 46 46 47 47 47 47 45 41 31 28 18 19 17 21 20 19 19 26 30 29 31 32 33 32 27 31 29 27 27 19 11 14 21 24 25 26 27 26 24 25 24 24 25 24 24 23 24 24 24 23 22
46 46 47 46 46 47 47 46 45 40 32 25 25 15 17 22 20 22 26 23 28 31 30 32 32 32 29 27 25 26 19 15 16 12 16 21 22 24 24 24 24 24 23 23 23 23 23 23 22 22 23 24 24 23
47 46 43 46 46 47 46 43 38 36 29 24 22 16 18 17 18 20 25 23 29 29 31 31 30 26 22 21 18 14 15 11 14 18 21 22 22 22 22 23 24 25 24 24 24 24 24 23 22 22 23 22 22 22
46 40 45 46 47 46 45 37 33 28 24 21 17 17 15 13 16 20 23 24 29 29 23 25 17 18 24 18 15 17 13 16 18 19 21 21 21 21 22 22 22 22 21 21 22 22 22 24 24 23 20 21 22 21
41 43 45 46 46 43 38 35 29 27 20 21 17 20 19 16 17 17 24 26 28 28 26 21 25 17 15 14 13 15 17 19 21 20 20 20 20 19 20 20 20 21 20 20 20 20 20 20 20 19 21 22 21 20
42 43 45 45 44 36 31 30 31 22 22 22 22 23 22 21 24 24 25 26 27 28 25 21 16 13 13 18 16 18 18 18 17 18 19 20 21 20 20 19 19 18 18 19 19 18 18 18 17 18 18 18 17 17
45 45 44 45 45 34 31 30 35 27 23 23 24 21 21 20 23 23 24 26 26 23 18 15 14 16 17 20 22 21 22 22 20 17 17 18 20 19 18 18 17 17 17 16 16 17 16 15 15 14 13 13 11 11
42 41 43 42 38 36 32 31 29 28 27 26 26 25 22 24 20 19 20 25 20 17 15 17 17 20 22 22 23 23 22 22 19 19 17 15 18 18 18 17 17 15 13 11 11 11 12 11 12 12 8 4 6 8
38 43 33 36 33 33 31 33 31 31 29 27 26 27 20 15 15 17 22 16 15 16 18 18 20 21 20 20 21 22 21 21 20 18 17 17 13 13 12 11 11 9 9 7 7 0 2 7 8 7 4 -1 4 3
40 37 31 31 27 26 24 30 25 30 19 20 22 18 14 9 15 23 11 18 18 21 21 21 21 23 21 22 21 22 22 20 16 14 12 11 10 6 9 9 9 4 8 9 9 7 3 3 1 -2 -1 -1 -3 -3
38 28 26 20 22 18 21 20 27 25 21 18 17 11 16 11 18 11 11 16 19 21 20 20 20 18 18 17 16 17 17 16 13 11 11 11 9 8 9 8 8 9 7 9 5 0 0 -8 -3 -4 -8 -7 -11 -12
22 20 21 16 20 17 13 13 14 17 12 13 11 12 13 17 7 5 8 14 15 15 12 16 17 15 10 9 10 12 14 15 11 9 11 12 9 9 7 7 6 8 7 0 -6 -10 -12 -11 -12 -11 -10 -13 -8 -14
13 18 18 17 16 17 15 10 10 11 10 13 13 18 11 4 1 5 11 8 10 8 9 2 9 10 11 12 9 9 11 14 12 7 9 10 8 -0 -2 -4 -5 -2 1 -8 -5 -8 -7 -11 -13 -9 -9 -9 -11 -14
12 17 23 26 21 21 15 14 16 11 8 8 11 6 1 -5 -4 9 14 13 11 8 13 11 13 12 11 11 12 11 11 11 9 9 9 9 8 5 -2 -8 -7 0 -3 -8 -11 -11 -11 -12 -11 -13 -15 -16 -17 -15
20 15 8 8 11 14 6 5 3 4 5 15 9 -3 -4 -4 3 10 8 11 9 14 13 13 13 13 11 11 8 6 6 4 7 7 8 6 2 -3 -4 -4 -3 4 -2 -8 -11 -15 -14 -15 -14 -15 -16 -15 -14 -11
10 11 13 4 7 8 9 5 5 11 14 9 -3 -2 5 11 5 10 11 12 10 12 7 7 2 1 2 4 0 -3 -6 2 0 -5 -7 -9 -7 -2 -7 -10 -8 -10 -13 -8 2 -1 -2 -7 -11 -11 -8 -8 -8 -8
12 12 7 3 2 4 8 7 1 1 9 6 11 14 11 11 15 12 13 14 5 0 -2 -1 -2 0 -5 -5 -10 -6 -10 -16 -13 -7 -11 -10 -7 -4 -10 -12 -11 -12 -16 -12 -12 -10 -1 -10 -8 -13 -13 -10 -10 -13
16 9 8 7 6 7 4 7 11 9 2 -1 -4 -0 -0 5 8 11 9 4 0 1 4 1 1 -8 -1 -5 -10 -13 -11 -10 -15 -13 -10 -11 -7 -11 -14 -14 -15 -12 -9 -12 -17 -17 -15 -13 -12 -15 -17 -17 -17 -16
9 3 5 6 8 11 8 4 -1 -3 -6 -4 -6 -10 -4 -4 -5 -1 8 2 5 2 -2 -5 -3 -6 -11 -14 -16 -15 -7 -10 -13 -13 -12 -15 -16 -18 -18 -15 -14 -16 -16 -18 -19 -19 -18 -15 -13 -12 -12 -12 -11 -16
12 13 5 6 5 2 4 6 2 3 -2 -5 0 -0 -1 -2 -4 2 6 2 1 2 -2 -7 -10 -12 -8 -9 -9 -11 -9 -12 -12 -1 -5 -7 -11 -10 -18 -20 -21 -21 -18 -19 -21 -21 -16 -16 -18 -19 -20 -20 -20 -21

GFSWCAN_sfc_temp_057.txt.gz
Temp
48 48 48 48 48 48 48 48 48 49 49 49 49 49 49 50 50 46 43 47 43 36 39 44 46 41 41 41 32 38 38 37 32 29 27 28 23 32 33 36 34 31 31 32 33 30 28 48 47 40 47 52 53 54
48 47 47 47 47 47 48 48 48 48 48 49 49 49 49 49 50 49 40 46 47 40 39 44 45 47 50 50 44 40 40 40 38 32 30 30 25 24 31 26 39 32 35 31 34 35 46 49 48 51 50 51 54 54
47 47 47 48 48 48 48 48 48 48 48 48 48 49 49 49 49 48 41 44 42 37 38 38 39 46 49 49 51 40 40 45 40 42 35 34 30 30 25 29 34 38 43 37 37 44 48 53 53 55 56 55 56 56
47 47 48 47 48 47 48 48 48 48 48 48 48 48 49 49 50 49 41 44 42 39 31 35 48 45 51 49 48 50 49 48 45 41 36 32 28 39 29 37 33 39 42 39 39 45 50 53 55 57 57 57 56 58
47 48 47 47 47 47 47 47 48 48 48 49 49 49 49 49 49 46 44 45 45 40 32 32 42 47 49 50 47 48 49 45 41 37 34 34 35 36 35 36 33 40 38 36 32 43 41 47 51 51 53 54 56 55
47 47 47 47 47 47 47 47 47 48 48 48 49 49 49 49 49 43 37 44 46 43 39 30 40 42 45 46 46 46 46 44 42 40 36 40 42 40 31 30 38 41 41 42 40 43 44 48 49 48 49 49 49 47
46 47 47 47 47 47 47 47 47 48 48 48 49 49 49 48 44 39 37 42 46 42 35 33 35 44 46 45 43 42 45 42 40 38 35 37 40 43 33 28 35 39 39 41 44 42 43 45 41 43 44 46 44 42
46 47 47 47 47 47 47 47 47 48 48 48 48 49 47 47 47 42 43 48 46 39 39 32 33 36 45 38 37 40 37 38 38 37 36 36 40 39 31 31 35 36 37 41 40 42 41 42 40 38 40 39 35 33
46 46 47 47 47 47 47 47 48 48 48 48 47 48 45 43 39 42 48 47 44 41 33 31 27 31 39 35 36 36 37 29 36 32 34 37 31 26 27 29 31 32 32 33 37 41 41 37 35 34 33 32 30 28
46 46 46 47 47 47 47 47 47 47 47 48 45 39 34 40 48 48 42 36 35 37 38 32 31 33 37 32 33 33 33 32 31 33 37 26 25 28 29 31 31 32 33 34 34 35 35 35 33 30 29 30 29 28
47 46 47 47 46 46 46 47 47 47 47 42 35 35 43 48 42 36 32 32 32 28 32 30 30 32 36 30 31 31 33 33 29 31 31 25 21 25 26 28 30 31 33 32 33 32 32 31 30 29 27 27 27 26
47 46 46 46 46 47 47 48 47 44 42 43 42 43 42 38 33 28 28 27 30 29 32 32 30 33 32 34 29 33 31 31 27 30 23 18 22 26 27 26 27 28 28 28 29 27 28 27 27 26 25 24 24 23
46 46 46 46 46 47 47 47 47 47 46 42 36 32 32 25 17 16 19 24 24 29 30 32 32 34 34 35 31 32 30 27 29 20 16 18 23 26 26 26 25 26 27 26 26 26 26 25 26 25 23 23 23 22
46 46 46 46 46 46 46 46 45 43 37 29 25 14 16 12 18 18 17 17 26 28 29 31 32 32 32 31 30 26 24 24 13 8 13 18 22 22 24 24 24 22 23 23 22 23 22 22 22 23 22 22 21 19
46 46 47 45 46 46 45 45 44 38 31 25 24 13 16 20 20 19 21 22 26 30 30 32 30 29 24 22 22 20 14 9 12 8 13 19 21 22 23 23 23 22 22 22 22 21 21 21 21 20 22 22 22 21
47 46 43 46 46 46 45 41 37 35 29 24 21 15 17 16 17 19 20 19 27 28 31 30 26 22 17 18 15 12 13 8 10 15 19 21 20 20 20 21 20 21 22 22 22 22 22 21 20 20 21 20 20 20
46 41 45 46 46 45 44 35 32 27 23 21 15 20 13 14 16 19 22 24 28 27 21 23 18 18 23 15 12 15 11 14 16 16 18 18 19 19 20 20 20 20 20 20 20 21 21 22 21 20 18 19 20 19
41 43 45 46 44 40 35 32 28 25 17 18 15 18 18 16 16 18 23 25 26 26 24 20 23 15 12 11 10 14 15 17 19 18 18 18 18 18 19 18 19 19 19 18 18 18 18 18 18 18 19 19 18 17
42 43 45 45 42 34 30 29 29 18 17 17 18 20 18 18 22 24 24 25 27 28 25 21 15 12 13 16 15 16 17 17 16 17 18 19 19 18 18 18 17 16 17 17 17 15 15 15 15 16 16 15 12 13
45 45 44 45 43 32 30 27 32 25 19 20 21 20 20 19 21 21 22 25 25 22 17 14 12 14 16 17 19 19 19 19 18 15 15 17 18 17 16 16 15 16 15 15 14 14 14 13 12 12 11 11 9 7
41 40 42 40 36 34 30 28 26 26 25 23 24 23 20 23 19 19 19 24 18 15 13 16 16 18 20 20 20 20 19 19 16 15 14 13 15 16 15 14 13 12 9 7 6 7 7 7 8 7 3 -3 -1 2
36 42 33 37 32 32 31 31 29 29 27 25 24 25 17 11 11 15 20 15 14 15 17 18 19 19 19 19 19 20 20 19 17 15 15 15 10 9 7 5 8 5 5 0 2 -4 -0 6 5 2 -2 -9 0 -1
39 35 29 30 26 24 26 30 25 28 19 19 21 18 12 7 13 21 10 16 17 19 19 19 20 21 18 19 18 19 20 17 13 11 10 9 8 4 7 7 3 -0 3 6 6 3 -3 -1 -1 -3 -5 -6 -9 -12
37 27 22 17 22 16 19 18 26 23 19 18 16 13 12 7 16 10 10 13 16 19 19 18 19 17 16 15 13 13 14 14 11 7 8 9 7 7 7 7 6 5 4 6 2 -3 -4 -14 -8 -8 -14 -15 -19 -15
23 20 20 14 18 16 12 10 12 16 10 11 11 9 9 14 5 3 6 11 11 9 7 15 14 12 6 3 8 11 14 14 10 8 6 9 5 6 5 6 4 7 4 -4 -12 -15 -14 -19 -18 -17 -16 -18 -14 -17
15 19 16 14 12 16 14 8 8 9 9 8 9 12 8 3 0 2 8 5 8 2 -1 4 7 8 9 11 8 8 9 12 11 4 8 10 8 -2 -8 -7 -6 -2 -1 -8 -10 -15 -13 -15 -16 -13 -16 -13 -14 -18
10 13 20 22 18 18 11 11 14 9 4 5 6 -1 -2 -7 -7 6 12 10 8 6 13 11 11 9 9 9 10 9 9 9 7 8 7 7 6 4 -3 -9 -8 -1 -6 -11 -14 -14 -14 -15 -17 -18 -17 -18 -20 -17
17 13 6 4 8 10 -0 -2 -3 -1 3 13 6 -5 -8 -6 2 8 8 11 11 12 12 11 11 11 8 7 2 5 2 1 4 3 3 3 0 -6 -8 -9 -8 2 -10 -15 -16 -19 -17 -17 -17 -18 -19 -17 -16 -19
6 5 8 -2 2 5 6 -1 0 9 12 2 -5 -4 3 9 6 5 9 11 10 11 7 5 0 -4 -2 -3 -6 -8 -7 -4 -5 -10 -13 -14 -15 -4 -7 -13 -14 -15 -17 -11 -0 -4 -2 -12 -15 -16 -16 -16 -12 -12
5 5 3 -1 2 2 2 1 1 1 8 4 10 13 9 8 11 6 7 4 2 -2 -5 -5 -8 -6 -9 -9 -12 -9 -17 -18 -10 -5 -12 -16 -10 -10 -14 -14 -15 -17 -19 -18 -17 -13 -4 -13 -10 -16 -17 -17 -20 -19
11 5 5 6 5 3 3 -1 9 5 -2 -1 -6 -2 -2 3 6 11 9 2 -2 -0 0 -4 -7 -12 -10 -15 -16 -15 -11 -14 -19 -16 -15 -17 -16 -15 -15 -17 -19 -20 -18 -19 -20 -21 -19 -19 -20 -19 -19 -18 -17 -18
4 -0 3 4 6 6 5 -4 -6 -7 -11 -7 -8 -13 -6 -6 -7 2 4 2 -0 -5 -8 -12 -6 -7 -15 -17 -19 -19 -12 -13 -16 -16 -15 -17 -18 -21 -21 -19 -23 -22 -21 -22 -24 -24 -22 -21 -21 -21 -21 -21 -21 -21
8 10 4 4 2 0 2 2 -0 -3 -7 -8 -3 -7 -7 -8 -7 0 3 -3 -3 -1 -3 -6 -12 -14 -13 -13 -12 -15 -12 -15 -16 -5 -9 -9 -14 -14 -23 -24 -25 -23 -21 -23 -25 -24 -22 -21 -23 -25 -25 -25 -25 -26

GFSWCAN_sfc_temp_060.txt.gz
Temp
48 48 48 48 48 48 48 48 48 48 48 49 49 49 48 49 49 46 43 46 41 34 39 45 46 41 41 41 33 38 37 35 30 27 28 31 25 31 30 34 34 33 31 27 31 28 25 46 45 42 45 46 48 50
48 48 47 47 47 48 48 48 48 48 48 48 49 49 49 49 48 48 38 46 46 40 39 46 48 49 50 49 44 42 38 36 36 30 28 29 25 23 30 26 36 30 34 31 33 33 43 44 47 49 48 48 49 51
47 47 47 47 48 48 48 49 48 48 48 48 48 49 49 49 49 47 42 43 40 35 38 39 39 46 48 51 54 38 39 43 38 40 33 32 28 29 24 27 33 37 41 35 36 40 43 46 48 50 50 49 54 57
46 47 47 48 48 48 48 48 48 48 48 48 48 48 49 49 50 48 41 44 41 39 33 36 46 45 51 48 48 48 46 47 43 40 34 30 28 37 27 35 31 37 39 37 36 40 43 45 46 46 45 50 53 58
47 47 47 47 47 47 48 47 48 48 48 48 48 49 49 49 49 46 44 45 45 39 32 33 42 46 49 47 46 47 46 44 40 37 30 33 33 35 33 34 32 38 36 33 31 39 39 41 44 43 42 44 45 44
47 47 47 47 47 47 47 47 47 48 48 48 48 49 49 48 49 42 36 43 45 45 37 29 40 41 44 45 45 45 46 44 41 39 36 36 40 38 33 27 38 42 41 41 40 41 40 41 42 41 39 42 41 40
47 47 47 47 47 47 47 47 47 48 48 48 48 49 48 48 44 39 35 42 47 44 37 31 33 42 44 43 41 41 44 43 42 40 37 35 37 41 34 31 34 38 38 39 43 41 39 40 37 38 38 39 39 36
46 47 47 46 47 47 47 47 48 48 48 48 49 48 48 47 47 42 42 47 47 41 38 30 32 36 44 37 37 42 39 41 40 38 36 35 37 36 32 29 33 33 35 37 37 39 41 41 39 36 36 35 32 29
46 46 46 46 46 46 47 48 48 48 48 48 48 46 44 40 38 41 48 46 43 40 30 30 30 30 40 37 38 37 39 32 37 33 32 35 32 27 25 27 29 30 30 32 35 37 40 38 34 33 32 31 28 27
46 46 46 46 47 46 46 47 47 47 47 47 44 37 32 41 48 49 42 37 36 35 38 32 33 32 36 33 33 34 33 30 27 30 33 26 23 26 28 29 30 30 31 32 31 32 31 32 30 28 28 28 28 27
47 46 46 46 46 47 47 47 48 48 47 41 37 36 42 47 40 37 31 30 32 30 33 32 33 33 37 29 32 31 31 33 29 28 28 25 20 23 26 28 28 29 30 30 31 29 29 29 27 26 26 26 25 25
47 46 46 46 47 47 47 47 47 44 42 42 42 43 39 34 32 30 28 29 30 29 32 33 33 35 35 33 31 33 31 32 25 28 23 15 21 25 27 25 26 26 27 27 27 26 26 26 26 25 24 23 22 22
46 46 46 46 46 46 46 46 47 47 46 41 36 30 30 25 19 20 18 21 23 28 29 32 32 33 33 35 32 32 29 23 27 19 15 16 22 25 25 25 24 25 25 25 24 25 24 23 23 22 21 21 21 21
46 46 46 46 46 46 45 46 46 43 37 28 23 13 14 10 15 16 15 16 25 28 28 32 32 31 31 30 28 25 20 21 11 9 12 17 21 21 23 23 23 21 22 21 21 21 21 20 20 21 20 20 19 18
46 46 46 45 46 45 45 44 44 36 29 23 21 10 14 19 21 21 22 23 26 28 30 30 25 28 20 16 20 20 13 10 12 8 14 18 19 20 20 21 22 21 21 20 21 20 19 19 19 19 19 19 19 18
46 46 43 45 45 45 44 41 37 35 28 22 19 13 14 12 15 14 17 18 26 26 26 27 19 17 14 16 13 10 12 7 8 13 17 18 18 19 19 20 20 21 21 21 21 21 20 19 18 18 19 18 17 17
46 41 45 46 45 44 43 35 32 26 22 18 16 16 12 12 12 15 18 22 26 24 19 23 16 16 22 13 9 13 4 8 12 15 17 18 18 18 19 19 19 19 18 19 19 20 19 20 19 18 16 17 17 17
38 41 45 46 43 40 34 32 28 24 15 14 11 15 17 17 16 16 21 24 26 25 24 19 22 15 11 10 10 13 16 17 18 17 17 17 17 17 18 17 18 18 17 17 17 17 18 17 17 16 16 16 15 14
42 41 44 45 40 34 30 28 28 16 14 16 17 19 19 17 22 23 24 25 25 27 24 20 14 12 12 15 14 15 16 17 15 16 17 17 18 17 17 17 17 16 16 16 16 15 14 15 14 14 14 13 10 10
45 44 44 45 42 32 29 26 30 24 18 20 22 19 20 19 21 21 22 24 24 22 16 13 12 14 15 16 17 16 17 18 17 13 13 14 16 15 14 15 14 14 14 13 11 11 12 10 9 8 8 7 5 1
40 39 41 39 33 32 28 26 25 24 24 22 23 22 19 21 19 18 19 23 17 15 12 15 13 16 19 19 19 19 18 18 14 14 13 11 14 14 12 11 11 9 7 4 4 4 5 4 5 4 -1 -9 -10 -7
34 41 31 35 30 30 28 28 26 27 26 25 24 24 17 14 13 15 18 13 12 13 16 17 17 18 18 17 18 19 18 17 16 14 13 13 10 8 5 3 6 1 1 -3 -0 -7 -1 4 1 -1 -6 -13 -4 -4
38 36 30 30 26 25 25 30 25 27 18 19 20 15 9 4 10 20 9 15 15 19 19 18 18 19 17 17 17 17 18 16 12 10 8 7 6 0 4 4 -0 -2 -1 2 3 -1 -5 -1 -3 -11 -12 -11 -15 -16
36 26 19 17 22 14 18 17 25 21 18 16 14 9 8 5 14 8 8 12 16 19 17 18 18 16 15 14 11 12 12 12 9 5 6 7 5 5 5 5 3 2 1 5 0 -7 -8 -18 -12 -10 -19 -20 -22 -20
21 18 17 10 16 16 11 9 11 14 8 10 8 7 6 12 4 3 4 9 10 7 10 14 13 11 3 3 8 9 11 12 9 7 1 7 4 4 4 4 3 4 1 -9 -14 -16 -16 -21 -21 -19 -17 -21 -15 -16
14 15 12 11 10 13 11 6 5 7 6 4 7 7 5 3 0 0 8 2 8 2 -2 -1 3 6 8 9 7 7 8 12 10 2 7 8 5 -5 -9 -8 -7 -3 -2 -11 -13 -17 -15 -17 -19 -15 -17 -15 -16 -21
6 9 17 20 17 16 8 8 11 7 2 4 4 -4 -3 -8 -8 5 9 7 5 2 8 6 8 8 8 7 8 7 7 7 6 5 5 5 5 3 -4 -10 -9 -3 -8 -12 -16 -15 -15 -16 -17 -17 -18 -21 -20 -19
12 10 5 1 5 7 -3 -3 -4 -2 3 12 4 -8 -10 -8 1 7 8 10 11 10 8 7 8 7 6 4 2 3 0 -1 1 1 1 1 -2 -8 -11 -12 -8 1 -11 -17 -19 -21 -18 -19 -19 -19 -21 -19 -19 -22
3 1 6 -3 0 1 3 -3 -1 7 10 0 -7 -5 1 8 4 5 9 10 8 9 4 0 -3 -8 -5 -5 -8 -11 -9 -7 -7 -11 -15 -15 -17 -8 -12 -15 -17 -19 -21 -14 -4 -9 -8 -14 -17 -19 -20 -20 -16 -19
3 1 -0 -7 -5 -2 -3 -0 -2 -1 6 4 8 12 7 7 10 8 5 4 5 1 -7 -8 -14 -13 -13 -12 -13 -10 -15 -17 -10 -4 -9 -15 -11 -14 -19 -16 -16 -19 -22 -21 -19 -14 -5 -14 -12 -18 -19 -21 -24 -24
6 -1 0 1 0 1 1 -6 7 3 -4 -4 -8 -3 -3 -0 6 8 4 -7 -8 -6 -5 -10 -11 -17 -11 -16 -17 -15 -11 -15 -21 -19 -19 -20 -20 -19 -18 -20 -23 -24 -20 -20 -22 -23 -22 -23 -25 -24 -23 -22 -24 -25
-4 -8 -2 -2 0 1 0 -10 -9 -9 -14 -8 -9 -14 -10 -7 -9 -0 1 -2 -4 -4 -8 -13 -10 -7 -11 -17 -21 -22 -14 -15 -18 -18 -17 -18 -19 -23 -24 -22 -27 -26 -25 -25 -26 -26 -24 -24 -25 -26 -26 -26 -27 -27
0 5 -1 1 -1 -3 -3 -2 -3 -6 -10 -9 -8 -12 -14 -10 -7 -2 1 -5 -2 0 -4 -8 -13 -18 -17 -17 -16 -18 -16 -19 -18 -4 -11 -10 -15 -16 -25 -27 -27 -26 -23 -24 -27 -26 -24 -24 -25 -26 -27 -28 -28 -29

GFSWCAN_sfc_temp_063.txt.gz
Temp
48 48 48 48 48 48 48 49 48 48 48 48 48 48 48 48 48 46 42 46 41 34 39 45 46 41 42 41 35 39 37 36 34 31 31 32 31 35 35 39 38 35 33 33 35 31 29 49 50 44 49 53 52 54
47 47 47 47 48 48 47 48 48 48 48 48 48 49 49 48 48 48 41 46 46 39 38 45 47 51 51 50 44 42 41 38 38 35 34 36 32 32 36 32 40 35 40 38 39 39 47 50 49 50 50 49 50 51
47 47 47 47 47 47 47 48 48 48 48 48 48 49 49 49 48 47 40 44 42 38 37 39 39 48 50 51 54 40 42 46 41 44 37 36 34 35 32 35 39 42 44 40 41 46 47 49 50 49 49 48 49 48
46 46 47 48 47 47 48 48 48 48 48 48 48 48 49 49 48 45 41 43 42 38 33 37 48 45 53 50 50 50 48 48 45 44 38 35 36 41 36 40 38 43 43 41 41 45 47 47 45 45 46 47 46 47
47 47 47 47 47 47 48 48 48 48 48 48 48 48 49 49 48 45 44 43 44 40 33 35 43 47 50 49 48 49 49 47 44 40 35 36 38 39 38 38 39 43 40 39 39 39 39 42 47 44 43 43 42 41
47 47 47 47 47 47 47 47 48 48 48 48 49 49 49 49 48 42 35 43 45 45 37 32 41 42 45 47 46 46 47 46 45 42 38 41 44 42 34 34 40 42 42 40 38 42 42 44 44 42 40 40 40 37
46 46 47 47 46 47 47 47 47 48 48 48 48 49 48 48 44 39 37 42 47 46 37 33 34 41 46 44 42 44 45 44 44 41 39 41 42 42 36 34 36 36 37 38 41 39 41 42 38 39 38 39 37 36
46 46 47 46 47 48 47 47 47 48 48 48 48 48 48 47 46 42 43 48 47 41 39 32 32 37 45 37 37 43 40 41 40 38 38 39 40 39 31 30 33 33 35 37 35 38 38 40 39 36 37 36 33 30
46 46 46 46 47 47 47 47 47 48 48 48 48 47 42 39 37 41 47 48 45 40 33 32 31 30 41 38 39 38 40 33 38 34 34 38 34 31 25 27 28 30 29 31 34 36 37 35 33 32 31 29 29 28
46 45 46 46 46 47 47 47 48 47 47 46 44 39 32 37 47 47 41 36 37 38 39 31 35 32 38 35 33 34 34 32 31 34 34 29 22 26 28 29 29 29 30 31 29 30 30 30 29 27 26 27 26 25
45 46 46 47 47 47 46 46 46 47 46 41 37 35 42 47 41 37 32 31 31 29 34 35 34 33 35 33 32 34 33 33 29 31 32 26 21 24 28 27 28 29 29 29 30 29 28 28 27 26 25 24 24 23
46 45 46 46 47 47 48 48 48 43 41 42 40 40 37 33 32 29 29 30 30 29 32 32 33 35 34 37 34 33 31 32 26 29 25 17 21 25 26 25 26 27 28 27 27 26 26 26 25 24 23 22 21 21
46 46 45 45 46 47 47 46 46 46 44 39 34 29 30 23 18 19 20 22 23 27 30 32 32 33 35 36 33 33 29 23 28 19 15 18 22 24 25 25 25 26 25 25 24 24 24 22 23 22 20 20 20 19
46 46 46 45 45 45 45 45 45 42 37 29 24 14 14 13 17 18 18 19 26 28 28 33 31 30 30 29 27 25 22 23 15 12 11 18 21 22 23 24 23 21 21 21 21 21 20 19 19 20 20 19 18 17
46 46 46 45 45 45 45 44 42 35 30 23 22 12 13 19 20 21 22 24 26 28 31 30 25 28 21 19 22 21 16 11 13 11 15 19 20 20 21 22 21 21 20 20 20 19 19 18 17 17 18 19 18 17
46 45 43 45 45 45 44 40 36 33 28 22 18 15 16 15 16 17 19 21 26 26 29 27 21 17 15 16 14 11 13 10 11 15 18 20 19 19 19 20 20 20 21 20 20 20 19 18 17 17 18 17 17 16
45 39 44 45 45 43 42 34 31 26 22 18 15 16 14 15 15 17 19 22 26 27 19 22 16 17 22 12 9 13 9 12 14 17 19 19 18 18 19 19 19 19 19 19 20 19 19 19 19 17 15 16 17 17
40 39 44 45 42 40 34 32 27 24 15 16 15 16 18 18 17 19 23 25 26 25 24 19 23 14 12 10 11 14 16 17 18 17 17 17 17 18 19 17 18 19 18 18 18 18 18 18 17 17 17 17 16 15
40 40 44 44 40 34 30 27 28 15 15 14 18 20 20 19 23 23 23 25 26 27 24 21 15 13 13 15 15 16 17 17 15 15 16 17 18 18 17 18 17 16 16 16 16 15 15 15 15 15 15 15 13 13
44 43 44 43 41 31 28 25 30 23 17 20 22 20 20 19 22 21 21 24 24 22 16 13 12 14 15 17 18 18 18 18 17 14 13 15 16 16 15 16 15 15 15 14 13 14 14 12 11 11 11 11 10 7
39 38 41 37 32 32 28 26 24 24 23 21 23 22 20 21 19 18 18 23 17 15 13 15 15 17 19 20 21 21 19 20 17 17 15 12 14 15 13 13 13 12 10 9 9 8 8 8 9 8 7 4 4 7
34 40 31 35 31 30 28 29 26 27 26 24 23 23 17 14 14 15 20 13 13 14 16 17 17 18 18 17 18 19 18 17 16 15 14 14 12 11 9 9 10 6 6 6 7 5 6 7 7 6 5 3 5 5
37 35 29 30 24 23 26 31 25 27 19 20 21 17 13 10 14 20 11 15 15 19 19 19 18 19 17 17 17 17 18 16 13 12 10 9 9 7 8 8 8 6 6 7 8 6 5 3 1 2 2 3 4 3
35 24 17 17 23 16 20 19 26 21 19 16 14 9 9 9 15 11 8 12 16 18 18 17 17 15 15 14 13 12 12 13 10 8 10 10 8 7 8 8 7 7 8 8 5 3 1 -1 -3 2 -1 -0 -1 1
22 16 16 12 17 15 12 9 10 13 7 8 8 6 6 13 6 5 6 11 13 11 11 15 14 12 8 8 10 11 13 14 11 9 8 10 8 8 7 7 6 7 6 5 3 2 -1 -3 -2 -0 -0 -0 1 -1
11 13 12 10 8 12 10 4 3 4 4 3 3 6 6 4 1 1 9 8 11 9 6 7 9 10 10 12 10 10 10 13 12 8 9 11 9 5 3 3 4 5 3 2 1 2 1 -3 -2 -2 -1 -3 -10 -4
2 4 14 17 15 14 6 7 11 7 2 3 2 -2 -0 -5 -5 7 11 10 10 6 10 10 12 12 10 9 9 8 9 9 9 8 7 8 7 7 5 3 2 5 2 1 1 2 2 -0 -1 -2 -2 -3 -4 -3
10 8 3 -1 3 6 -5 -3 -3 -1 5 10 5 -5 -5 -5 2 9 10 11 9 9 7 7 8 9 8 6 5 5 4 3 4 5 6 6 3 1 -1 0 0 1 -0 -2 -1 -4 -1 -1 -1 -1 -3 -2 -2 -4
1 -1 5 -6 -3 -1 1 -3 1 7 9 1 -3 -1 4 7 6 8 10 11 10 8 5 3 -1 -1 -1 -0 -3 -3 1 3 3 -3 -4 -2 -2 2 -2 -2 -2 -3 -5 -1 -3 -1 -0 -1 -2 -2 -3 -3 -4 -8
1 1 -2 -8 -6 -3 -3 1 -0 1 5 5 10 11 7 7 10 11 10 9 7 3 -2 -1 -5 -1 -1 1 -2 -1 -5 -7 -3 2 -1 -1 -0 -2 -5 -3 -2 -5 -6 -3 -1 0 -1 -3 -3 -5 -6 -6 -6 -6
6 0 -1 -0 -1 2 2 -3 5 3 -3 -1 -3 -2 -0 2 7 7 2 -4 -4 -4 -1 -2 -5 -8 -3 -5 -2 -3 -1 -4 -13 -10 -8 -7 -7 -5 -5 -7 -9 -9 -7 -6 -6 -6 -6 -7 -8 -8 -7 -7 -10 -12
-0 -5 -2 -1 0 2 -1 -9 -9 -6 -8 -3 -4 -10 -5 -3 -5 4 3 3 2 -1 -4 -4 -2 2 -4 -6 -10 -10 -12 -5 -6 -8 -7 -6 -4 -7 -9 -10 -13 -11 -8 -8 -9 -9 -10 -9 -8 -9 -10 -10 -12 -13
1 4 -0 0 -1 -3 -4 -3 -3 -4 -7 -8 -8 -12 -13 -6 -4 2 2 -2 3 4 -0 -2 -5 -8 -8 -9 -5 -7 -11 -7 -11 -3 -10 -8 -13 -9 -10 -10 -11 -10 -9 -8 -9 -10 -10 -11 -10 -11 -12 -14 -14 -14

GFSWCAN_sfc_temp_066.txt.gz
Temp
47 47 47 48 48 48 48 48 49 49 48 49 48 48 48 48 48 45 41 45 41 35 43 47 51 47 47 43 36 41 37 37 37 34 36 38 37 43 41 44 41 39 37 35 39 34 32 55 56 48 52 57 57 58
47 47 47 48 47 48 48 48 48 48 48 48 48 48 48 48 48 47 40 45 47 39 41 49 53 56 55 52 46 43 44 43 43 40 42 44 39 41 43 37 50 40 47 44 46 45 54 57 55 56 55 53 54 54
47 47 47 47 47 47 47 47 48 48 48 48 48 49 48 48 48 47 42 44 42 38 39 42 39 51 55 56 60 44 43 47 48 52 47 45 39 46 38 42 45 50 52 48 47 52 54 55 55 55 55 53 54 54
46 46 47 47 47 47 48 48 48 48 48 48 48 48 49 48 48 47 42 45 43 38 34 41 52 45 53 55 56 56 51 51 50 49 43 43 41 50 45 47 45 51 51 48 49 54 54 52 53 51 52 54 52 52
47 47 47 47 47 48 48 48 48 48 49 48 48 49 49 49 48 46 45 46 46 44 36 40 46 51 53 53 53 52 49 45 43 40 40 40 49 47 49 47 46 54 50 46 45 45 42 47 50 48 47 48 49 47
47 47 47 47 47 47 47 47 48 48 48 48 48 49 48 47 47 42 34 42 47 48 38 33 47 45 50 52 50 49 48 44 42 40 41 47 52 48 40 41 50 49 48 47 45 48 47 49 45 44 42 43 45 45
46 47 46 46 46 47 47 48 47 48 48 48 48 48 48 46 44 41 42 44 45 47 38 35 37 44 49 49 48 46 47 43 42 40 41 45 47 47 42 39 44 41 43 44 44 44 45 41 39 40 41 42 39 38
46 46 46 46 47 47 47 47 47 48 48 48 48 48 47 47 47 44 47 47 47 42 42 34 35 37 47 38 37 44 40 42 41 40 41 44 47 45 34 32 35 36 41 40 39 40 39 41 39 37 38 39 35 32
46 46 45 47 47 47 46 47 48 48 48 48 48 47 44 41 39 43 48 48 49 43 36 37 34 32 44 40 39 41 42 35 40 35 38 39 38 31 26 29 29 31 32 33 38 40 37 34 33 32 32 32 31 28
46 46 46 46 46 47 46 47 47 47 46 45 44 36 32 39 47 46 41 36 37 38 41 38 39 34 42 40 37 37 41 37 33 35 38 35 26 29 30 31 31 32 32 33 32 35 34 33 32 30 29 30 29 29
46 46 46 46 46 46 46 46 47 48 48 44 38 35 42 48 44 38 33 34 36 34 40 40 39 34 40 37 34 39 35 37 32 33 33 31 27 26 30 30 31 31 32 32 33 32 32 32 31 29 28 27 26 25
46 46 46 47 46 46 47 47 47 47 45 44 40 40 37 35 36 34 32 33 35 33 34 34 35 39 36 40 36 35 34 34 30 36 33 27 24 29 30 28 29 30 30 29 30 29 29 29 28 27 26 24 23 22
45 46 46 46 46 46 46 47 47 47 48 47 41 32 36 31 26 28 26 28 30 31 32 33 33 36 34 36 35 36 31 28 34 28 24 23 26 28 28 28 27 29 29 28 27 27 27 25 25 24 21 21 22 21
46 46 46 46 45 45 45 45 45 46 44 35 31 21 25 22 24 25 27 28 30 31 31 35 33 34 35 33 31 28 26 31 24 22 19 24 23 24 25 26 26 23 23 23 22 22 21 21 21 21 21 21 19 18
46 45 45 46 45 45 44 44 43 42 35 28 29 19 21 24 26 26 28 29 31 32 33 34 34 36 30 28 29 28 24 20 23 22 22 24 24 24 24 24 23 22 21 21 21 20 20 20 19 19 20 20 19 18
46 46 45 45 45 44 44 44 42 40 34 28 24 22 24 26 24 26 26 28 31 32 36 37 30 28 23 26 24 19 24 20 19 22 23 24 22 22 22 22 23 23 23 22 22 21 20 19 19 19 19 18 18 17
46 45 44 44 43 43 43 41 37 30 26 24 21 25 24 24 23 24 26 28 32 33 29 31 25 20 29 22 17 22 19 20 21 22 24 24 23 21 22 22 22 22 22 22 22 21 21 21 21 20 18 19 20 19
44 47 45 45 45 42 39 38 32 28 20 23 21 22 24 25 25 25 27 30 33 32 31 24 30 21 19 16 18 19 20 21 23 22 22 22 22 22 23 22 22 22 21 21 21 21 21 21 21 21 20 20 20 19
44 47 44 45 46 42 35 32 34 22 22 24 25 26 25 25 27 27 28 31 33 34 30 27 21 18 17 21 19 19 20 21 20 21 21 21 22 21 21 21 21 21 20 21 21 21 21 21 22 22 22 22 20 20
44 43 43 44 45 39 31 30 38 28 23 24 27 25 25 24 26 26 25 28 29 26 20 17 17 19 21 22 24 24 23 24 24 21 20 21 22 21 21 22 22 21 21 21 20 21 21 20 20 19 20 20 19 17
45 44 44 46 42 40 35 32 29 30 28 25 27 28 24 27 23 22 22 26 21 19 17 20 20 21 24 25 26 26 25 27 25 26 23 20 21 22 21 21 21 21 20 20 19 17 17 17 17 18 17 15 15 16
44 42 44 44 38 37 34 36 32 33 30 27 26 27 23 21 21 21 26 21 18 19 22 22 22 24 23 22 23 25 23 23 21 21 20 21 20 19 19 19 20 17 17 17 17 16 15 17 17 16 15 14 15 15
42 43 39 38 31 31 28 35 29 30 24 24 26 22 20 21 23 28 19 20 19 22 23 23 22 23 21 21 21 22 23 23 21 20 19 19 19 18 18 18 19 16 15 16 18 17 14 10 11 14 14 15 15 13
39 29 26 28 31 23 29 26 30 27 27 24 21 17 18 21 25 21 15 19 20 23 22 21 23 21 21 21 21 20 20 21 19 18 20 20 18 17 18 17 17 17 17 17 16 15 14 13 7 14 12 13 12 12
29 20 24 21 27 24 22 22 21 23 19 20 17 17 18 24 17 15 14 17 20 20 21 23 23 23 19 18 19 19 19 23 21 17 18 20 17 17 16 16 16 16 17 16 14 13 11 12 12 12 12 12 10 8
16 17 19 20 22 23 22 19 19 19 19 16 15 18 21 18 14 12 17 19 20 20 19 20 20 20 19 21 19 19 19 22 21 18 17 19 18 17 16 15 15 14 15 15 14 13 12 10 10 7 10 6 1 5
14 15 19 21 22 22 19 21 22 20 16 15 16 14 16 9 9 13 18 19 20 19 21 22 23 22 20 18 18 17 18 18 17 16 16 16 16 16 16 14 10 13 14 13 13 12 11 10 10 9 9 10 10 8
15 15 12 10 12 15 11 12 12 11 14 16 17 7 8 9 10 16 17 18 19 19 18 18 20 20 19 17 16 15 14 14 13 14 15 14 14 13 11 12 11 7 11 10 12 10 10 9 9 9 8 7 7 8
12 14 14 2 8 9 8 8 10 13 14 16 11 10 10 13 14 16 17 17 19 19 16 14 12 14 13 13 12 15 16 16 12 7 6 11 12 12 12 12 12 11 11 11 4 8 9 8 8 8 8 7 7 6
11 15 9 6 4 6 9 10 11 12 14 15 16 14 14 13 14 18 18 18 18 16 15 15 13 17 14 14 11 10 11 11 10 11 11 10 10 10 10 10 10 9 8 9 9 9 6 8 6 6 5 6 7 5
16 15 10 10 7 10 11 15 15 15 15 13 15 12 10 13 15 13 12 12 12 12 14 12 11 12 12 12 14 12 11 8 3 3 6 8 8 9 8 6 6 7 7 6 6 6 5 5 6 4 4 2 1 -1
13 10 9 7 8 12 13 14 14 13 14 14 12 14 12 14 10 13 11 14 14 15 8 14 15 14 11 10 8 8 1 7 7 6 4 8 8 5 6 6 4 5 6 5 5 4 2 2 3 2 2 1 -0 -2
13 13 13 12 10 10 11 13 14 12 13 12 10 8 8 11 8 11 11 10 13 15 14 14 11 10 7 8 9 7 6 7 3 3 -1 -1 -3 1 6 6 5 4 2 3 4 2 1 1 1 0 0 -2 -2 -2

GFSWCAN_sfc_temp_069.txt.gz
Temp
48 47 47 47 47 48 48 48 48 48 48 49 48 48 48 48 49 48 48 52 43 35 44 50 51 45 49 47 37 43 39 37 35 34 36 39 39 43 43 47 42 41 38 37 40 37 34 59 58 48 53 59 59 60
47 47 47 47 47 48 48 48 48 48 48 48 48 48 48 48 48 49 44 51 50 40 39 52 55 58 55 50 43 42 41 39 42 40 43 44 41 43 45 38 52 41 48 44 46 45 57 60 55 58 59 57 56 56
47 47 46 46 47 47 47 47 47 48 48 48 47 48 48 48 48 47 42 44 42 36 37 44 46 55 59 59 58 41 49 51 49 51 41 44 39 49 39 43 47 53 55 50 48 54 53 56 58 57 58 56 57 57
46 46 46 47 48 47 47 47 48 48 48 48 48 48 48 49 48 48 42 44 42 38 34 44 58 52 59 58 57 54 49 53 50 49 44 43 41 53 44 43 49 50 54 52 52 53 56 57 55 53 55 56 55 55
46 46 47 47 47 48 48 48 48 48 48 48 48 48 49 49 48 46 44 45 47 46 39 44 54 55 57 54 53 51 46 48 42 40 42 42 50 49 53 51 48 57 50 47 44 50 51 52 52 52 51 50 51 51
47 47 47 47 47 47 47 47 48 48 48 49 48 48 48 48 47 43 35 44 47 48 40 35 52 50 52 54 52 48 46 45 42 39 43 48 54 49 43 43 50 52 52 51 48 51 51 50 48 49 47 47 47 47
46 47 47 46 46 47 47 47 47 48 49 48 48 48 49 48 44 40 41 45 48 47 39 36 40 49 54 54 51 48 47 43 41 39 43 47 49 50 45 40 38 46 49 48 49 48 45 45 40 44 43 44 45 45
47 46 46 46 47 47 47 47 47 48 49 48 48 48 47 47 47 42 48 48 50 42 41 35 37 40 52 43 40 45 40 41 40 39 44 46 50 46 36 35 39 41 45 45 44 46 42 42 41 39 40 41 38 34
46 46 46 46 46 47 47 48 48 48 49 49 47 47 44 42 40 43 47 48 49 43 36 37 34 32 44 41 41 41 42 34 41 36 39 46 41 28 28 31 32 34 34 36 42 45 43 39 37 37 37 36 35 35
46 46 46 46 46 47 47 47 48 48 48 47 43 36 32 41 47 47 41 36 37 41 44 38 44 35 43 42 37 37 39 38 32 35 41 37 28 32 35 35 35 34 36 37 34 34 34 35 35 34 33 34 34 32
46 46 46 46 46 46 46 46 46 46 47 42 35 35 42 48 44 39 34 34 36 34 42 41 42 36 44 39 36 42 37 40 35 36 35 33 26 29 34 34 35 35 36 36 36 34 34 33 32 32 30 29 29 28
47 46 46 46 46 46 46 46 47 46 46 45 40 41 41 39 36 33 33 35 38 36 39 37 38 43 40 44 39 39 35 37 30 40 34 28 27 32 32 31 32 32 33 32 32 31 31 30 31 29 28 26 25 24
46 46 46 45 46 46 46 47 47 47 51 48 40 35 37 35 29 30 27 31 31 34 34 36 35 38 40 40 36 36 32 32 38 31 28 26 29 29 29 30 29 30 31 30 28 28 28 26 26 25 23 23 23 22
46 46 46 45 45 45 46 46 47 50 50 40 33 24 29 27 29 29 30 30 31 33 34 37 35 37 36 34 34 30 30 33 28 27 23 25 25 26 27 27 27 24 24 24 23 23 23 22 22 22 22 22 21 19
46 46 46 45 45 45 44 44 45 49 43 33 34 24 25 28 29 29 31 32 33 34 34 37 37 39 33 30 33 31 27 25 27 25 25 26 26 26 26 25 24 24 23 23 24 23 22 22 21 20 21 21 20 20
47 48 45 45 44 45 45 45 44 43 38 32 28 26 29 29 28 29 30 30 32 33 37 39 32 30 27 31 28 24 29 25 23 25 25 26 24 24 24 25 25 25 25 24 24 23 23 21 21 20 20 20 19 19
46 49 44 44 44 44 45 45 41 33 30 28 25 28 28 28 27 28 30 30 34 33 31 37 28 24 34 27 23 26 22 23 24 25 27 26 24 24 24 24 25 25 25 24 24 23 23 23 23 23 20 21 22 21
50 48 45 45 47 45 43 43 37 32 24 28 25 26 28 29 29 29 31 35 36 37 36 28 36 26 24 22 22 22 24 25 25 25 25 25 25 26 26 25 25 25 24 24 24 24 25 24 24 23 23 23 23 23
49 49 45 45 47 45 37 36 39 26 25 28 29 30 30 29 30 30 32 36 38 40 36 33 25 22 21 25 22 23 24 25 23 24 24 25 25 24 25 25 25 25 24 25 25 25 25 25 26 27 27 27 25 25
44 44 44 45 45 42 34 34 43 32 27 28 30 28 28 28 29 29 30 32 33 31 24 21 21 23 24 26 28 26 27 28 28 25 24 25 26 26 25 26 25 25 25 25 25 26 26 25 24 23 24 24 24 21
46 46 45 51 47 44 39 36 33 33 32 28 31 31 28 30 27 26 27 32 26 24 21 23 23 25 27 28 30 30 28 30 29 29 26 24 26 26 26 26 26 27 26 26 25 22 22 22 23 23 22 20 20 20
50 44 49 49 41 40 37 39 35 36 32 30 31 32 27 25 25 24 30 24 21 23 26 25 25 26 25 25 26 27 27 26 26 26 25 25 24 25 25 26 26 23 23 23 23 21 21 22 22 21 20 19 20 19
44 48 45 43 33 33 29 39 31 33 27 27 31 26 26 26 27 34 23 23 22 26 27 27 26 27 24 25 25 27 28 28 27 26 25 25 25 24 25 24 24 22 22 21 23 23 19 14 17 19 19 20 19 17
42 33 30 32 33 26 33 30 35 31 30 28 26 21 23 26 30 26 19 22 23 26 25 25 27 25 26 26 25 25 26 27 26 25 26 26 24 23 24 23 23 22 21 22 21 20 20 18 12 19 17 17 17 16
33 23 28 25 32 28 26 26 26 28 23 25 22 23 23 29 23 21 19 20 22 23 24 26 27 28 24 24 24 23 25 28 26 23 23 25 23 24 22 22 21 20 22 21 19 19 17 16 17 17 16 16 14 13
21 21 24 26 27 28 28 24 24 25 24 21 21 24 27 25 20 18 21 22 23 23 23 24 25 25 26 27 25 24 24 27 28 23 22 24 23 21 21 20 20 18 20 19 18 17 17 16 14 12 13 12 8 9
20 20 24 28 30 29 26 28 30 26 22 20 23 22 23 16 15 17 22 25 23 24 27 28 29 28 25 23 23 23 24 23 22 21 22 21 21 21 19 17 15 17 19 17 17 16 15 14 14 13 13 14 14 13
21 21 17 18 20 24 19 20 20 19 20 23 25 15 15 16 16 21 22 23 25 25 25 26 27 27 25 23 22 21 20 19 18 20 20 20 20 18 16 16 15 11 15 14 15 14 14 13 13 13 13 12 12 13
18 21 18 9 16 16 14 16 17 18 20 23 19 16 14 17 21 19 21 23 25 24 21 19 19 21 20 20 21 22 23 21 16 11 11 16 17 16 17 17 17 16 16 15 10 11 13 12 12 11 11 12 12 12
16 23 15 12 11 11 13 17 15 19 21 21 19 17 16 16 20 23 23 24 23 21 21 21 21 22 19 19 16 16 17 17 15 15 15 14 14 15 16 15 14 14 13 14 13 13 12 12 12 11 10 11 11 11
23 22 17 16 12 15 17 19 20 21 21 20 22 17 15 16 18 19 20 21 21 20 19 18 18 19 18 18 19 17 15 13 10 10 13 14 15 15 13 11 12 12 12 11 10 11 9 9 10 10 9 8 7 5
20 16 14 11 12 16 19 19 19 18 19 18 17 19 19 19 15 17 18 21 20 19 16 20 19 17 17 16 15 13 12 13 12 11 11 12 13 10 12 12 11 11 10 9 10 9 8 7 7 7 7 7 6 4
20 20 19 17 14 16 17 21 20 17 19 18 16 17 16 18 13 15 17 18 18 20 18 17 17 15 14 14 14 13 13 11 8 7 6 5 3 6 9 12 11 10 8 8 8 8 7 6 6 6 5 4 4 4

GFSWCAN_sfc_temp_072.txt.gz
Temp
48 47 47 47 47 47 47 48 48 48 48 48 48 48 48 48 49 48 48 52 43 36 42 47 48 42 43 44 37 42 38 40 36 31 34 37 37 41 41 45 41 38 35 34 37 34 32 56 54 45 49 53 56 56
47 47 47 47 47 47 47 47 48 48 48 48 48 48 47 48 49 48 44 52 51 40 43 50 51 53 51 50 40 38 38 38 43 38 41 37 38 39 41 36 51 38 45 41 43 43 52 55 53 56 56 53 53 53
46 47 46 46 46 47 47 47 47 48 48 48 48 48 49 48 48 47 46 50 46 38 39 42 43 53 58 57 57 38 45 47 41 47 41 39 36 44 37 40 42 48 52 44 47 48 50 52 55 56 55 53 54 54
46 46 46 46 47 47 48 48 47 48 48 48 48 48 48 48 48 48 41 46 45 39 33 40 56 51 57 58 57 52 49 51 49 47 39 38 38 48 40 45 44 49 50 50 43 44 44 49 51 53 52 53 52 53
45 46 46 47 47 47 48 48 47 47 48 48 48 49 48 48 48 47 44 46 49 43 35 39 51 57 59 56 55 54 51 48 42 39 40 38 43 43 46 47 38 48 44 42 36 46 43 45 48 51 48 48 49 47
46 46 46 47 47 47 47 47 48 48 48 48 48 49 48 47 48 42 33 43 49 50 38 32 44 52 55 55 52 50 49 43 42 39 40 45 51 43 38 37 38 47 48 46 42 49 47 48 46 47 45 45 47 45
45 46 47 47 47 47 47 47 47 48 48 48 48 48 48 48 45 39 39 45 48 47 36 34 38 49 53 51 48 47 49 43 41 39 38 43 45 47 40 33 35 40 48 45 47 47 43 41 39 42 43 44 43 41
46 46 46 46 46 47 47 47 47 48 48 48 48 47 47 47 46 42 48 48 48 41 39 33 37 40 52 42 40 46 39 40 40 39 43 42 47 45 30 32 36 38 43 41 43 46 42 43 42 40 42 42 38 34
46 46 46 46 46 47 47 47 47 48 49 48 47 47 44 41 39 43 48 48 48 41 36 35 32 32 48 44 41 42 40 33 40 35 39 43 35 27 28 31 32 34 35 37 42 41 41 39 39 39 38 37 35 33
46 46 46 46 46 46 47 47 48 49 47 46 43 37 32 40 47 46 41 34 36 39 42 35 40 34 43 41 37 36 39 36 32 37 43 34 26 34 36 35 35 35 36 37 34 32 33 33 33 33 31 32 32 29
46 46 46 46 47 47 47 48 47 46 47 41 35 36 43 48 44 38 33 33 35 33 42 41 39 36 43 36 35 42 35 38 33 35 34 31 26 29 34 34 34 34 35 34 34 32 32 31 30 29 28 27 27 26
46 45 46 46 46 46 47 46 47 46 45 42 41 43 42 39 37 33 32 34 35 36 39 38 40 42 40 41 37 38 35 36 30 39 34 26 25 31 32 30 31 31 31 29 30 29 29 29 29 27 26 24 23 23
46 45 45 46 46 47 46 47 47 46 48 48 42 36 38 34 30 29 27 32 32 35 35 37 35 40 40 42 37 37 31 31 38 32 26 24 27 30 29 30 28 29 29 28 26 27 26 25 25 24 22 22 22 20
45 45 44 44 45 46 46 46 46 47 45 38 35 26 30 28 29 29 29 31 32 35 36 37 36 37 37 34 34 31 31 34 29 27 22 23 25 25 27 27 26 23 24 23 22 22 21 21 20 21 21 20 20 18
46 46 46 45 45 45 45 45 48 50 44 35 36 25 26 29 30 31 32 34 33 34 34 37 38 39 34 32 34 31 28 27 26 22 23 24 25 25 25 25 24 23 23 23 23 21 21 20 20 20 20 20 20 19
47 47 44 45 45 45 46 47 47 46 40 32 30 28 30 30 29 30 32 31 34 34 35 41 34 32 29 32 29 26 28 24 22 23 24 25 24 24 24 24 25 24 24 23 23 22 21 20 20 20 20 20 19 19
47 47 44 45 46 46 46 43 40 35 32 29 26 30 30 30 28 29 31 31 35 33 32 35 30 26 34 27 23 25 22 22 24 25 26 25 24 23 24 25 25 25 24 24 23 23 23 23 23 22 20 20 21 20
48 45 45 45 46 45 44 43 37 33 26 29 26 27 28 29 29 30 31 34 35 37 36 30 36 27 23 23 21 23 24 25 26 25 25 25 26 26 26 25 25 25 24 24 25 25 24 23 24 23 23 23 23 23
49 48 45 45 46 45 38 38 41 27 27 29 30 31 30 29 31 31 33 37 39 40 37 33 25 22 21 25 23 23 24 24 23 23 24 25 25 25 25 25 25 25 24 25 26 25 25 25 26 27 27 27 24 23
45 45 45 44 45 42 35 36 43 33 27 29 32 29 29 29 31 31 32 34 35 32 25 23 23 24 25 26 28 27 27 28 26 23 22 24 26 26 25 26 26 26 26 26 26 26 26 25 24 23 21 21 21 20
48 47 46 48 47 45 40 36 33 33 32 29 32 32 28 31 28 28 28 33 27 24 21 24 24 26 29 30 31 30 29 30 29 28 25 22 26 27 26 26 27 27 26 25 25 22 22 22 22 22 21 19 19 18
49 45 49 48 41 40 37 40 35 37 32 31 32 33 28 25 25 26 31 24 22 24 25 25 25 27 26 26 27 29 29 29 28 27 26 26 25 25 24 25 26 23 23 23 23 21 21 20 17 21 20 18 18 16
44 48 46 43 33 33 29 39 32 33 27 28 32 27 26 26 28 34 22 23 23 27 28 27 27 27 25 27 28 29 30 29 27 26 26 26 25 25 25 24 24 22 21 21 23 22 18 11 16 18 18 18 18 16
43 34 32 32 33 27 33 30 35 32 31 29 27 23 25 26 32 26 20 21 23 27 26 25 27 25 26 27 26 26 27 29 26 26 27 26 24 23 24 23 22 21 21 22 21 19 19 17 10 17 16 16 16 14
33 24 29 27 34 30 27 27 28 29 25 27 24 24 24 30 25 22 20 20 23 24 26 28 28 28 24 23 24 24 28 29 26 23 24 26 24 24 22 22 21 20 21 20 18 18 16 15 16 16 15 15 12 12
22 23 26 29 29 29 29 25 26 27 26 23 23 26 29 27 22 19 21 23 23 24 25 26 26 26 27 28 25 24 24 28 28 22 22 24 23 21 20 19 19 16 20 18 17 16 17 16 14 13 13 13 5 9
22 22 26 32 32 32 29 30 31 28 24 21 24 24 25 18 16 19 25 27 25 27 29 29 30 28 25 23 24 24 23 23 22 21 22 22 21 20 18 15 14 14 18 17 16 15 14 13 13 13 13 14 14 13
23 24 18 22 23 27 22 23 22 21 22 27 27 18 18 18 16 22 23 26 27 27 27 27 28 27 25 23 23 21 20 20 20 21 20 20 20 18 17 15 14 14 14 14 13 13 13 13 12 12 12 12 12 13
21 23 20 12 18 17 17 19 19 19 21 25 21 17 15 19 22 22 24 25 26 24 21 20 20 22 22 23 23 23 22 21 19 14 15 16 16 14 17 16 16 16 15 15 13 11 13 12 11 10 10 10 11 12
19 26 17 15 13 12 15 20 18 21 22 21 20 19 19 20 22 26 25 25 23 21 22 22 22 22 19 18 16 16 17 17 15 15 14 13 12 14 15 15 14 14 14 14 13 13 14 12 13 12 10 10 11 10
26 25 19 18 14 16 19 22 24 23 22 20 21 16 14 16 18 21 22 23 22 21 21 20 20 21 19 19 18 17 12 12 11 11 14 15 15 14 12 11 12 12 12 12 11 11 9 8 9 9 10 8 7 6
24 19 16 11 14 20 21 22 21 19 19 18 17 19 20 19 15 17 19 21 22 20 19 21 18 15 16 15 14 13 12 13 12 12 12 13 13 12 12 12 12 12 11 9 10 10 9 7 7 7 7 7 6 5
21 20 19 17 15 17 19 22 21 19 20 19 17 19 18 19 13 15 20 20 20 20 18 17 16 16 15 15 14 13 12 10 7 9 7 5 3 5 7 12 11 11 9 8 9 9 8 7 6 5 4 3 4 4

GFSWCAN_sfc_temp_075.txt.gz
Temp
48 48 47 47 47 47 47 47 48 48 48 48 48 48 48 48 49 44 40 42 38 32 36 41 42 37 38 37 32 35 35 37 34 26 27 28 27 35 35 35 37 33 30 28 30 28 27 50 47 39 44 48 49 48
47 47 47 47 47 47 47 47 48 48 48 48 48 48 48 48 48 48 37 45 44 37 35 43 44 46 44 43 39 35 35 35 38 34 32 32 31 33 36 29 42 33 38 34 36 35 47 50 47 51 51 48 48 48
46 46 46 46 47 47 47 46 47 47 47 47 48 48 49 48 48 47 42 41 39 34 36 37 37 46 51 50 47 35 38 41 39 43 38 36 32 36 29 33 36 43 49 41 41 44 46 48 50 50 51 49 50 48
46 46 46 46 46 46 47 47 47 48 48 48 48 48 49 49 48 48 41 42 41 35 25 33 49 43 50 50 48 46 44 45 43 41 36 34 33 41 34 37 35 36 44 39 34 35 40 42 47 47 47 48 47 46
46 46 46 46 46 46 47 47 47 48 48 48 48 48 48 49 49 47 44 44 46 39 30 33 40 47 50 49 47 47 45 43 37 35 36 34 40 38 38 39 32 37 33 33 32 37 36 37 43 46 43 43 42 41
46 46 46 46 46 47 47 47 48 48 48 48 48 48 49 48 48 41 33 42 46 45 34 28 41 42 46 48 45 44 43 39 38 38 37 39 45 39 33 31 34 36 42 41 37 43 41 41 41 44 41 39 38 36
46 46 46 46 47 47 47 47 47 47 48 48 48 48 48 48 44 38 36 41 46 44 34 30 32 42 47 46 41 41 42 40 39 37 37 38 40 41 33 28 31 33 38 41 43 44 37 37 35 41 41 39 37 34
45 45 46 46 46 46 47 47 47 47 48 48 48 48 48 47 45 40 45 46 47 39 38 30 31 35 45 35 35 42 39 39 39 38 38 37 39 35 25 29 32 34 38 37 40 42 41 40 39 36 38 37 32 29
46 46 46 46 46 46 46 47 47 47 48 48 48 47 43 41 37 41 48 48 46 40 32 32 30 29 42 38 39 39 39 32 39 34 35 38 30 23 27 28 29 32 32 33 38 36 36 34 34 33 32 31 28 27
46 46 46 46 46 46 46 46 47 48 47 46 43 37 32 39 47 46 39 36 35 38 38 33 36 30 38 35 33 34 34 33 31 33 38 28 24 30 31 31 31 31 32 32 28 28 30 29 27 26 26 27 26 24
46 46 46 47 46 46 46 47 47 46 47 40 36 35 42 48 41 37 31 32 32 30 33 35 35 33 39 33 32 34 33 32 28 32 32 28 23 25 29 28 29 30 30 29 29 27 27 27 25 24 23 23 23 22
46 46 46 47 47 46 46 46 46 44 42 41 41 43 41 38 35 31 30 31 31 27 31 32 35 38 37 39 33 33 31 32 28 35 31 20 23 26 26 25 25 26 26 25 26 24 25 24 24 23 23 21 21 20
46 44 45 46 46 47 47 47 47 46 47 44 40 34 35 32 27 23 23 23 28 33 34 34 33 35 36 38 33 32 29 27 30 27 17 19 23 25 25 25 24 25 24 24 23 23 22 21 21 19 17 16 16 16
44 44 44 44 44 46 47 46 46 46 42 35 29 17 26 27 26 26 27 29 31 33 33 33 33 33 33 32 32 29 29 30 24 17 16 18 18 19 21 24 22 19 19 18 15 16 15 15 15 15 15 13 13 13
44 45 45 44 44 45 46 47 48 43 37 29 28 20 21 25 23 29 31 31 32 33 33 31 31 33 31 29 31 28 27 23 19 11 15 19 20 20 17 19 19 17 15 15 13 14 12 12 13 14 12 13 13 12
46 46 43 43 45 46 45 44 42 41 34 29 25 24 26 26 25 28 30 29 32 32 33 31 32 29 28 28 24 18 22 14 12 14 19 17 16 15 19 20 16 15 15 14 13 14 14 11 11 12 12 11 8 9
47 42 45 45 46 46 45 40 36 32 28 26 21 24 27 21 23 26 28 30 33 32 31 29 25 25 28 21 16 19 13 16 19 20 19 16 14 13 15 17 18 19 20 20 18 16 13 13 14 15 14 12 14 14
41 42 44 43 43 43 41 38 32 30 24 24 21 21 20 25 26 26 29 29 31 28 27 25 28 17 13 15 12 16 18 21 20 19 19 18 18 21 22 20 21 20 19 17 16 16 18 16 18 15 17 18 18 19
42 43 44 44 44 40 34 34 35 23 25 24 27 27 27 27 29 29 29 30 28 29 29 26 20 14 15 17 18 18 17 19 19 20 21 20 18 18 19 21 20 19 20 21 21 18 20 21 19 18 19 20 17 16
45 45 44 44 44 36 32 30 37 28 25 26 28 26 26 26 28 27 28 30 30 26 20 18 17 20 19 22 22 22 22 23 21 18 17 17 22 22 22 21 17 18 19 21 20 18 20 18 17 15 14 15 14 10
45 43 44 44 41 38 33 29 29 29 28 26 28 27 25 27 24 22 22 27 22 19 17 20 21 23 25 25 25 24 25 25 19 17 19 18 17 18 18 19 21 21 19 17 14 11 12 11 11 13 7 1 0 1
41 44 41 42 34 34 31 33 30 31 28 27 26 28 23 19 18 19 24 19 19 20 20 21 22 22 22 21 22 25 25 26 23 21 18 20 18 18 16 15 17 9 10 7 10 7 7 8 8 12 8 1 6 3
43 43 36 34 27 24 26 34 27 29 22 23 26 24 21 18 22 27 17 20 20 22 23 22 23 25 23 23 24 26 27 25 21 19 17 16 15 11 14 13 13 10 11 10 12 11 4 4 5 -1 4 5 8 4
40 30 29 24 26 23 28 24 30 27 26 24 21 19 21 19 25 19 15 17 17 19 20 21 22 21 22 22 19 20 21 21 17 15 17 18 14 12 14 13 12 9 9 12 10 6 4 1 0 8 2 -4 4 -4
25 19 21 17 25 20 18 20 23 24 17 19 18 16 17 23 18 14 12 16 19 19 16 21 23 22 16 11 13 15 21 23 18 15 12 16 12 13 13 14 11 11 11 11 8 5 -1 -3 -2 -3 -1 -6 -3 -5
14 15 20 22 22 21 22 15 17 18 17 15 16 21 21 18 12 10 15 19 19 16 18 20 17 18 20 21 16 14 15 20 20 13 15 17 14 5 5 7 8 6 8 1 -1 -1 7 5 -1 -2 -3 -0 2 -5
13 15 22 28 26 26 21 23 24 19 15 12 15 14 12 3 4 15 21 19 21 23 24 23 24 19 17 16 17 16 15 15 15 15 14 15 14 12 6 1 2 4 5 3 3 -4 -4 -5 -6 -3 -3 -4 1 2
17 20 10 19 16 20 15 14 14 13 12 19 16 5 5 4 9 17 20 22 21 20 19 20 21 20 17 16 13 10 7 7 9 11 12 10 7 4 2 0 0 9 0 -3 -5 -5 -4 -6 -7 -5 -1 -2 -4 -4
15 17 15 7 12 12 11 11 10 12 16 16 6 5 6 15 18 19 19 20 20 18 15 14 11 12 15 15 15 13 10 8 5 -1 -3 2 2 1 1 -0 3 1 -3 -2 6 3 0 -2 -5 -5 -6 -7 -7 -8
15 19 11 7 4 5 10 16 11 12 14 12 16 17 16 17 19 19 18 20 18 14 11 10 10 9 5 6 1 2 3 0 -2 -1 1 -1 1 -1 -1 -2 -4 -4 -3 -4 -5 -3 6 -1 -2 -1 -1 -3 -5 -8
21 16 11 10 8 15 17 19 19 17 16 14 13 11 8 12 13 18 18 15 14 14 15 9 11 8 6 6 3 3 -3 -3 -4 -3 -2 -3 0 -4 -6 -6 -6 -6 -3 -6 -7 -7 -8 -9 -10 -10 -10 -9 -10 -12
15 9 6 5 9 16 20 13 10 13 13 11 8 5 6 9 5 10 11 14 17 14 13 13 6 3 0 -1 -1 3 2 -2 -4 -4 -4 1 -5 -6 -4 -2 -4 -5 -7 -8 -8 -6 -6 -10 -11 -12 -13 -13 -13 -12
13 12 12 8 7 8 13 12 12 13 14 11 10 13 8 6 2 7 12 16 17 12 10 9 6 3 3 2 2 2 -1 -6 -4 3 -1 -2 -6 -5 -8 -7 -10 -10 -9 -10 -10 -9 -8 -9 -10 -12 -12 -13 -14 -15

GFSWCAN_sfc_temp_078.txt.gz
Temp
48 47 47 47 47 47 47 48 48 48 48 48 48 48 48 48 49 44 42 40 36 32 33 38 39 33 33 34 29 34 33 36 34 26 25 27 23 31 30 36 34 32 28 27 28 27 26 49 46 37 41 44 45 45
47 47 47 47 47 47 47 47 47 48 48 48 48 48 48 48 49 47 39 41 40 35 32 40 42 43 41 41 35 36 34 34 34 31 29 31 28 30 34 28 39 30 36 30 34 34 44 46 44 46 47 43 44 45
46 46 46 46 46 47 47 47 47 47 47 47 47 48 48 49 49 47 42 37 36 33 34 34 34 43 47 45 44 32 38 38 37 40 37 36 31 34 29 32 35 36 42 38 39 37 39 42 46 46 45 43 43 43
46 46 46 46 46 47 47 47 47 47 48 48 48 48 48 49 49 48 41 42 36 32 21 29 45 39 46 46 44 43 44 42 41 40 36 34 31 38 33 33 30 33 35 36 33 34 37 37 38 43 43 43 40 39
46 46 46 46 46 46 46 47 47 47 48 48 49 48 48 49 49 47 44 44 43 34 26 30 38 43 46 44 43 43 42 41 39 36 34 34 38 38 35 34 28 33 30 33 31 34 34 34 38 41 38 36 38 36
46 46 46 46 46 46 47 47 47 47 48 48 49 49 49 49 49 42 33 42 45 40 32 25 37 40 43 43 43 41 42 41 38 38 36 37 44 37 32 28 30 32 34 36 34 35 35 38 40 39 35 33 33 32
45 45 46 46 46 46 47 47 47 47 48 48 48 48 48 48 43 38 35 40 46 43 34 26 28 38 42 43 42 38 40 38 36 37 36 36 39 38 30 24 28 31 33 35 39 37 33 35 33 37 35 34 32 29
45 45 45 46 46 46 47 47 47 47 47 48 48 48 48 47 45 41 44 46 47 38 37 28 27 33 42 34 35 37 36 36 38 38 37 35 35 33 24 27 28 30 33 34 35 38 36 35 34 34 35 33 27 25
45 45 45 46 46 46 46 47 47 47 48 48 48 48 43 40 36 40 47 47 45 38 30 31 28 25 40 36 37 37 39 32 38 34 34 36 27 21 24 25 26 27 28 29 33 34 33 30 29 30 29 29 27 25
45 46 45 46 46 46 46 46 47 47 48 47 43 36 32 40 47 46 40 35 35 36 38 31 36 30 37 35 33 33 35 33 30 33 34 27 22 25 27 27 27 27 27 28 28 26 27 26 25 24 24 25 24 22
46 46 46 46 47 46 46 47 47 47 47 40 34 34 42 47 41 36 30 31 31 30 32 31 35 33 39 32 31 34 31 33 29 30 30 25 21 22 26 26 27 26 26 26 26 25 25 26 24 23 22 22 22 21
46 46 47 46 46 46 47 46 47 43 41 40 41 43 41 36 34 31 29 31 29 27 28 32 33 36 36 39 32 33 30 32 27 34 26 15 21 24 24 23 24 24 24 23 24 24 24 24 24 23 22 20 18 17
45 46 46 46 46 46 47 46 47 47 48 44 39 34 34 31 27 22 24 26 28 33 33 34 33 35 34 36 33 32 25 27 31 19 15 17 22 24 23 23 22 23 23 22 21 22 21 19 18 17 15 13 14 13
45 45 46 46 46 46 46 46 47 45 41 34 29 19 21 25 25 20 23 28 31 33 33 32 33 30 33 30 31 26 27 28 21 12 13 16 18 19 20 22 20 15 15 14 11 13 12 12 11 11 9 5 8 8
44 44 44 45 45 44 45 47 46 40 34 28 27 17 15 22 22 28 29 31 31 33 33 32 28 30 28 27 29 28 24 19 17 15 13 17 17 17 15 16 15 13 11 11 8 9 7 7 9 10 5 6 8 7
45 43 41 44 45 45 45 42 40 38 31 27 24 22 25 22 23 26 29 29 32 32 33 31 30 28 26 28 20 17 19 13 10 9 13 18 15 14 15 15 11 10 11 8 8 9 9 6 8 6 6 6 3 6
45 39 45 45 45 45 44 36 34 31 27 23 18 16 14 13 22 22 28 29 33 32 30 29 26 25 28 15 12 15 7 9 16 16 14 11 13 13 13 16 15 16 13 11 10 9 8 7 7 11 10 7 11 10
39 42 45 45 43 42 39 36 31 28 22 22 18 18 12 15 17 21 28 30 30 27 25 24 25 13 6 9 8 11 14 15 16 15 10 10 12 17 19 17 15 15 13 11 13 15 16 15 16 13 15 16 16 16
40 41 43 43 42 37 32 31 31 21 19 18 21 20 19 20 25 25 25 27 26 27 25 21 13 9 9 12 14 12 11 17 17 18 18 18 18 17 16 16 16 14 17 18 20 17 18 19 17 17 18 19 15 16
43 42 42 43 42 34 31 29 33 27 21 23 24 23 22 23 23 23 25 26 27 24 18 13 14 17 13 11 13 18 19 20 19 16 13 14 14 16 14 16 15 16 18 19 17 17 17 14 13 12 11 13 9 7
43 41 43 41 38 35 31 28 27 27 28 26 27 25 23 25 22 20 21 27 20 18 15 16 16 21 22 22 22 22 20 20 14 14 17 15 12 20 19 18 20 19 17 14 11 7 7 6 7 9 1 -5 -6 -3
40 44 38 39 32 31 29 29 28 29 28 27 27 27 21 16 15 16 22 17 16 18 18 19 19 21 21 20 21 22 22 23 20 18 15 16 16 14 12 11 13 6 6 4 7 1 2 7 5 3 -3 -5 -1 -1
42 40 33 31 24 22 24 31 25 27 20 22 24 22 16 13 16 24 12 17 16 19 17 20 21 24 21 22 23 24 25 23 19 17 16 16 13 7 10 9 7 5 5 6 9 5 1 2 0 -5 -6 -3 -3 1
37 29 23 20 22 20 22 19 27 26 25 22 19 16 16 16 23 15 12 14 15 17 18 19 21 20 20 20 17 18 19 19 15 9 12 15 12 9 11 10 8 6 7 10 7 2 0 -6 -4 -1 -9 -9 -10 -8
23 17 17 14 20 15 14 15 18 19 12 15 13 12 15 21 10 7 7 11 11 7 10 16 19 18 12 6 11 13 17 20 15 13 9 13 7 11 10 10 8 8 7 4 -2 -3 -5 -11 -11 -9 -8 -13 -7 -8
11 11 18 16 18 17 17 11 10 11 11 9 11 17 17 11 4 5 11 9 11 8 10 18 17 12 15 16 13 13 13 17 17 9 11 13 10 5 3 2 -0 1 3 -6 -7 -7 -4 -0 -3 -5 -9 -6 -5 -9
7 8 20 26 24 24 19 19 21 15 9 9 10 8 5 -3 -3 11 14 10 14 16 20 21 20 16 14 13 13 12 12 13 12 12 11 11 10 7 2 2 -1 3 -0 -5 -9 -9 -9 -11 -11 -11 -10 -9 -3 -3
16 14 9 10 11 14 7 7 4 5 6 16 13 0 -2 0 6 15 16 16 16 17 17 17 18 16 13 11 8 8 6 7 8 9 9 7 3 -3 -3 -5 -4 5 -6 -10 -10 -13 -12 -12 -12 -12 -13 -12 -12 -14
8 9 12 3 5 5 7 4 6 11 15 10 -0 -2 4 13 12 15 16 15 16 17 14 12 9 12 10 8 5 3 -0 1 -0 -4 -7 -6 -7 -1 -6 -5 -5 -8 -12 -6 1 1 -1 -5 -7 -9 -9 -9 -11 -16
9 10 6 -1 0 2 6 5 3 4 9 8 13 16 14 15 18 18 16 14 12 9 5 11 5 8 1 1 -8 -4 -6 -12 -10 -3 -7 -8 -5 -3 -9 -10 -11 -12 -14 -13 -12 -9 -1 -10 -6 -10 -10 -10 -13 -16
14 6 4 4 7 7 11 13 13 11 4 6 2 3 4 11 13 14 14 6 11 12 11 8 3 -2 1 -6 -9 -10 -8 -7 -13 -9 -4 -5 -11 -13 -13 -13 -14 -14 -14 -15 -15 -15 -14 -15 -18 -18 -18 -17 -17 -19
2 -2 2 3 7 10 6 -0 1 1 -3 -2 -2 -5 3 2 -0 6 13 10 9 7 -1 3 5 0 -6 -5 -7 -9 -5 -8 -12 -9 -9 -12 -15 -16 -11 -7 -13 -15 -15 -16 -17 -17 -16 -16 -17 -18 -18 -17 -18 -18
5 1 -0 1 1 4 9 5 4 8 4 4 5 6 -0 -4 -3 4 8 11 5 8 4 -0 2 -1 -0 0 -2 -7 -8 -11 -10 0 -5 -7 -11 -10 -17 -18 -19 -19 -16 -17 -18 -19 -16 -15 -16 -17 -18 -20 -20 -21

GFSWCAN_sfc_temp_081.txt.gz
Temp
47 48 48 47 47 47 47 48 48 48 48 48 48 48 48 48 49 44 40 39 35 27 31 37 39 31 32 31 23 31 30 32 33 28 26 27 23 30 28 32 31 29 26 26 26 24 23 44 45 34 39 43 43 42
47 47 47 47 47 47 47 47 47 47 48 48 48 48 48 48 49 47 38 42 39 34 31 39 41 41 39 39 32 34 30 32 33 29 28 32 27 27 29 24 38 29 34 30 33 29 40 43 43 44 43 41 41 41
46 47 47 47 47 47 47 47 47 47 47 47 48 48 48 48 49 47 41 40 39 34 33 31 33 41 44 43 42 32 34 38 35 38 35 34 29 34 26 30 30 32 35 35 35 34 35 38 38 39 38 37 40 41
46 46 46 46 46 46 46 47 47 47 47 47 48 48 48 48 49 48 40 41 37 31 21 28 42 37 43 43 41 42 41 40 39 39 35 33 31 38 32 31 29 30 32 34 33 34 36 34 34 36 35 36 36 37
46 46 46 46 46 46 46 47 47 47 47 48 48 49 48 48 49 47 43 43 43 33 24 28 36 41 43 41 39 40 40 38 36 34 30 32 37 35 33 32 25 30 28 28 29 33 33 32 33 33 32 32 33 32
45 45 45 46 46 46 46 46 47 47 47 48 49 49 48 48 48 43 34 41 45 40 31 22 34 37 40 40 39 38 39 37 37 37 32 36 41 36 30 26 28 30 32 33 32 34 33 33 33 33 31 30 30 29
45 45 45 46 46 46 46 46 47 47 47 48 48 49 48 48 44 39 35 40 47 43 34 27 26 36 39 39 37 38 39 38 39 36 33 36 36 34 28 22 26 29 31 32 34 35 31 33 30 33 31 30 29 27
45 45 45 45 46 46 46 46 47 47 47 48 48 48 48 48 46 41 42 46 46 38 36 27 26 31 39 32 33 38 34 38 37 34 37 36 32 31 22 25 27 28 30 31 33 34 32 32 32 31 31 29 26 24
45 45 45 45 45 46 46 46 47 47 47 48 48 48 43 40 37 40 46 47 44 38 30 30 25 26 38 34 36 36 34 31 36 33 34 32 26 19 23 25 25 26 26 27 32 31 30 27 27 27 28 27 25 24
44 44 45 45 46 46 46 46 47 47 48 47 43 36 31 38 47 45 41 34 35 36 36 29 31 27 36 33 33 33 34 32 30 32 32 25 20 24 26 26 25 26 26 27 27 25 26 24 24 24 23 24 23 22
44 45 46 46 46 46 46 46 47 47 47 40 34 34 41 47 40 36 30 30 31 29 32 32 33 31 37 32 31 34 31 32 28 30 29 22 19 22 26 25 25 25 25 25 25 25 25 25 23 22 21 21 21 20
46 46 46 46 47 47 47 46 47 44 41 41 41 43 40 35 33 30 27 30 29 26 25 31 33 35 35 36 32 33 30 31 27 33 24 11 18 23 24 23 23 23 23 23 24 23 24 24 23 22 20 18 16 14
46 47 47 46 47 47 47 47 46 47 47 45 38 33 33 31 27 22 23 26 28 30 32 34 33 34 34 36 33 32 27 24 31 13 11 14 21 23 23 23 22 23 23 22 21 21 20 17 17 16 13 10 11 10
46 46 46 46 46 46 46 47 48 45 41 33 30 23 25 24 20 19 17 19 29 32 33 34 33 32 32 30 31 20 23 25 12 10 11 14 19 20 20 21 18 13 13 13 10 11 10 9 6 4 3 0 5 4
45 45 45 44 43 44 44 45 45 40 34 29 29 18 13 23 26 29 30 31 31 33 33 31 30 32 27 24 27 27 20 11 13 11 7 15 16 16 15 15 12 10 8 8 5 7 3 5 6 5 1 3 6 3
45 43 42 43 43 44 43 42 39 38 32 28 23 23 24 23 23 27 29 29 32 32 33 31 26 24 22 23 22 16 18 14 9 5 10 15 13 13 13 13 9 7 8 6 5 5 5 4 6 4 4 3 -1 1
44 39 43 43 44 45 44 38 35 30 27 25 19 20 15 18 19 25 27 28 32 32 29 24 19 20 25 15 13 14 9 6 8 13 14 10 13 10 7 10 12 13 11 8 6 7 5 4 5 9 8 6 9 8
37 42 45 45 43 42 37 36 30 28 22 21 18 22 23 20 16 25 27 27 30 29 25 20 24 12 8 11 6 8 14 9 11 13 9 7 10 13 16 12 11 12 10 9 11 10 10 9 13 11 13 14 14 14
40 40 44 44 42 36 32 30 30 21 18 18 20 22 17 17 20 23 26 28 27 27 24 19 11 6 5 7 6 10 10 11 16 16 16 13 14 15 13 14 13 12 14 15 16 14 16 16 15 14 15 17 14 14
42 41 42 43 42 33 30 27 31 25 19 22 23 21 21 19 21 18 22 25 26 23 17 11 8 14 11 9 9 17 17 19 19 16 14 14 12 15 12 15 13 15 16 18 16 14 14 13 12 11 9 11 8 7
41 40 41 41 37 35 30 27 25 26 26 22 23 21 18 21 17 17 18 25 18 15 11 12 18 20 20 20 22 21 18 19 14 13 13 15 11 15 15 14 16 15 13 9 10 7 8 6 7 8 -2 -6 -9 -7
39 42 37 39 33 32 29 29 27 27 25 25 24 25 16 11 11 14 20 16 14 12 14 15 18 20 20 18 17 21 20 20 18 16 14 14 12 12 11 8 11 5 7 5 8 1 1 5 3 1 -6 -8 -4 -3
42 39 32 32 26 25 24 31 25 27 18 20 22 18 12 11 15 23 11 14 12 16 19 20 20 22 20 21 22 23 24 22 17 16 14 12 11 4 8 6 4 4 2 5 7 2 -1 0 -2 -8 -8 -6 -9 -8
37 29 21 20 23 20 23 21 28 25 24 20 17 12 13 12 19 11 9 13 14 19 19 19 20 18 19 19 16 17 18 17 13 9 12 13 10 8 9 7 5 4 5 8 5 -1 -3 -9 -7 -6 -12 -12 -15 -10
23 17 17 15 19 16 14 13 14 16 9 11 10 9 13 18 8 6 8 9 12 9 8 15 17 16 10 4 9 13 16 18 15 11 6 11 8 9 8 8 5 6 4 -2 -4 -7 -9 -13 -14 -13 -11 -15 -10 -11
11 11 15 15 15 16 15 10 9 10 10 8 10 16 15 7 3 2 10 7 7 3 5 12 12 12 13 15 12 12 12 16 15 7 10 12 10 5 2 -0 -1 -0 0 -7 -9 -11 -7 -5 -8 -8 -10 -9 -10 -14
6 6 19 24 21 21 16 16 19 14 7 7 8 7 4 -2 -2 8 9 7 11 5 15 17 17 15 13 11 11 11 11 11 11 10 9 9 8 6 3 -2 -1 2 -2 -8 -12 -11 -11 -13 -12 -11 -11 -11 -9 -9
13 12 10 7 9 11 3 1 1 2 6 15 11 -1 -1 1 4 11 10 14 15 16 15 15 15 14 11 8 7 7 6 7 7 7 7 5 2 -3 -6 -7 -6 3 -10 -14 -14 -17 -15 -15 -15 -16 -17 -15 -14 -16
7 7 11 2 4 5 6 2 2 9 14 9 -1 -2 3 10 8 9 15 12 16 15 11 9 5 6 4 3 -1 -2 -5 3 -1 -6 -9 -10 -11 -3 -7 -11 -12 -14 -16 -10 -2 -5 -6 -9 -10 -12 -14 -16 -13 -18
8 7 4 -3 -2 1 1 3 3 4 11 6 10 12 9 10 14 15 12 12 9 7 5 8 5 6 -1 2 -5 -3 -9 -14 -8 -1 -7 -10 -5 -7 -9 -9 -11 -16 -20 -17 -15 -11 -3 -13 -9 -16 -16 -18 -21 -21
10 3 2 3 2 3 5 4 7 5 -1 -1 -0 1 1 9 14 14 12 8 10 9 7 -0 -5 -9 -1 -7 -11 -9 -7 -7 -13 -12 -8 -8 -13 -15 -16 -17 -18 -21 -20 -19 -19 -19 -17 -19 -22 -21 -20 -18 -18 -22
-2 -5 0 0 3 4 0 -3 -1 -0 -1 -1 0 -7 -2 -1 -3 4 10 6 4 2 -5 1 2 -2 -9 -11 -11 -11 -2 -4 -9 -11 -10 -13 -17 -19 -17 -17 -21 -20 -19 -20 -22 -21 -20 -19 -20 -21 -21 -20 -19 -21
-3 -6 -6 -1 3 2 4 0 -2 -0 -1 1 1 -1 -9 -6 -4 1 6 6 3 4 0 -5 -3 -3 -5 -2 -1 -4 -4 -10 -13 -2 -8 -9 -14 -14 -21 -23 -24 -22 -20 -21 -23 -22 -20 -19 -19 -20 -22 -23 -21 -20

GFSWCAN_sfc_temp_084.txt.gz
Temp
47 47 47 46 47 48 48 47 48 48 48 48 48 48 48 48 48 44 40 42 37 30 29 35 36 30 32 30 24 31 30 31 31 28 27 26 24 29 28 32 31 29 27 27 29 25 21 40 42 36 38 37 34 34
47 47 47 46 47 47 47 47 47 47 47 47 48 48 48 48 48 46 38 43 41 33 30 36 38 39 38 37 32 33 31 32 33 31 30 33 28 27 28 23 35 27 31 28 31 29 36 36 36 37 37 34 36 34
46 46 46 47 46 46 47 47 47 47 47 47 48 48 48 48 48 47 40 39 39 35 34 30 33 40 41 40 41 30 34 38 35 37 34 33 29 33 27 26 28 29 34 30 33 33 32 34 35 34 34 32 34 34
46 46 46 46 46 46 46 46 47 47 47 47 47 47 48 48 49 48 39 39 37 32 26 27 40 35 41 41 39 40 39 41 38 37 34 32 29 37 31 29 24 27 30 28 32 34 34 31 32 32 31 32 30 31
46 46 46 46 46 46 46 46 46 46 47 47 48 48 48 48 48 46 42 43 42 35 23 27 34 39 41 38 37 38 38 37 33 29 33 28 34 35 33 31 22 28 26 25 26 32 31 29 30 31 29 28 30 29
45 45 45 45 46 46 46 46 46 46 47 47 48 48 49 48 48 43 33 41 45 42 32 21 32 34 38 37 36 35 35 35 34 35 34 34 39 35 29 24 26 28 30 32 31 32 31 30 29 29 27 27 28 27
45 45 45 45 45 46 46 46 46 46 47 47 48 49 49 48 44 38 36 39 46 42 33 27 25 34 37 37 34 34 37 36 33 36 31 33 34 34 27 21 26 27 30 31 31 34 30 29 27 30 29 28 27 25
45 45 45 45 45 45 46 46 46 46 47 47 48 49 48 47 46 41 41 46 45 37 36 27 25 28 38 30 31 34 32 34 35 34 33 34 32 30 22 25 26 27 29 30 30 31 30 30 30 29 29 28 24 23
44 45 45 45 45 45 45 46 46 47 47 48 48 48 44 40 37 40 46 47 43 38 29 29 26 21 38 35 36 35 36 27 34 32 34 32 25 18 23 24 24 25 25 25 29 29 28 26 25 25 26 26 24 22
44 44 44 45 45 45 45 46 46 47 47 48 43 36 30 37 46 45 39 33 34 34 36 24 28 26 35 33 32 29 33 32 30 33 31 24 17 24 25 25 25 25 24 26 27 24 25 23 23 23 22 23 22 21
44 45 45 45 45 45 46 46 46 47 47 40 34 33 41 46 39 35 30 30 30 29 33 32 29 26 37 31 30 33 31 32 28 31 29 22 16 22 25 24 24 24 25 24 25 24 24 24 23 22 20 20 19 18
44 44 45 45 46 46 46 46 47 45 41 41 40 42 40 35 32 30 27 29 28 26 29 29 30 32 35 35 32 33 29 31 25 31 24 13 18 24 23 23 22 23 23 22 23 22 22 22 21 20 18 16 14 12
44 45 46 46 46 47 47 46 47 46 46 43 38 32 33 31 26 20 21 25 24 23 30 33 32 33 34 35 32 32 28 27 30 17 14 13 20 22 21 22 22 23 22 21 19 19 18 15 15 14 11 8 9 8
46 46 46 46 46 47 47 47 46 46 40 34 30 24 26 23 20 22 24 21 25 32 32 34 32 32 32 31 31 20 24 29 20 13 13 15 17 18 19 20 17 12 12 12 9 10 9 7 4 3 1 -1 3 1
44 44 44 44 45 46 46 45 44 39 34 29 28 22 16 21 23 29 31 31 31 33 34 32 31 32 26 24 25 26 23 20 15 12 7 12 16 16 13 13 10 7 5 7 4 5 1 4 5 3 -0 0 3 -1
44 43 41 43 43 43 43 41 38 37 32 28 22 18 23 22 25 27 29 29 32 32 33 30 25 21 20 23 23 19 17 13 9 3 8 14 12 12 12 13 11 9 7 4 2 4 4 2 4 2 1 -0 -3 -2
44 39 42 43 43 43 43 35 33 29 27 23 17 20 16 17 23 25 27 28 31 32 26 23 19 21 25 17 15 15 11 7 6 10 11 11 13 11 8 8 9 10 9 6 4 5 4 2 3 8 8 5 8 7
39 41 42 42 41 40 37 34 31 28 21 21 18 19 22 18 23 24 24 27 30 27 25 21 25 14 10 15 9 7 7 7 8 13 9 5 7 9 12 10 10 11 10 7 9 8 8 8 13 13 13 13 12 12
41 42 43 43 41 35 32 30 31 21 20 20 21 21 19 17 24 25 24 26 27 25 24 18 12 8 7 5 4 4 10 10 14 11 9 7 12 13 12 13 12 10 12 12 16 14 14 16 14 12 14 16 12 12
43 43 43 44 43 32 30 27 31 25 19 21 20 20 19 17 20 22 23 25 26 23 17 11 7 12 8 8 9 16 15 18 18 15 12 12 12 14 11 14 12 15 17 18 14 13 13 11 10 9 8 8 3 2
39 39 42 40 34 32 28 26 25 25 25 20 21 22 19 21 17 16 17 23 18 15 10 10 18 18 15 16 20 20 18 19 13 13 14 13 13 14 14 13 15 13 11 8 7 5 6 5 5 6 -5 -9 -11 -10
37 41 36 38 32 30 27 27 26 26 24 25 23 23 15 11 11 13 19 15 12 11 11 17 20 18 18 17 17 19 18 19 17 15 14 15 13 12 9 7 11 5 5 3 5 -0 -0 3 1 -1 -6 -9 -6 -4
41 39 33 32 26 22 21 29 22 25 17 20 21 16 11 10 14 22 11 13 10 15 15 19 19 21 21 20 21 21 22 21 16 15 12 10 9 3 7 5 3 3 2 4 5 1 -2 -2 -4 -10 -11 -9 -13 -12
37 29 26 25 26 20 25 19 26 23 22 19 16 11 12 10 17 10 7 10 12 17 19 19 19 18 19 18 15 15 16 16 12 8 10 12 9 7 7 6 5 3 4 7 4 -3 -5 -12 -10 -8 -15 -14 -17 -15
26 20 21 18 22 20 17 14 12 15 10 9 9 7 10 15 5 2 7 8 11 12 12 14 16 16 10 8 11 11 14 17 14 10 5 10 7 7 6 7 4 5 3 -4 -6 -8 -9 -15 -16 -15 -12 -17 -11 -12
14 14 15 16 15 15 15 10 6 7 6 5 7 13 12 5 2 2 9 6 10 7 7 11 10 12 12 14 11 10 10 14 14 7 8 10 9 4 -0 -2 -1 -0 -1 -8 -10 -12 -11 -11 -9 -6 -8 -8 -10 -16
6 7 18 21 19 20 12 11 15 9 4 5 6 5 2 1 -1 6 9 7 10 4 12 13 16 14 13 10 11 10 10 10 10 9 7 7 6 5 2 -3 -2 1 -2 -8 -13 -12 -12 -13 -15 -15 -16 -18 -17 -15
11 11 10 5 7 10 0 -1 -2 -0 4 13 10 -2 1 1 3 8 10 14 13 14 12 11 12 13 10 8 7 6 4 5 5 5 5 4 0 -4 -6 -7 -1 1 -12 -16 -16 -19 -16 -16 -16 -17 -18 -17 -17 -15
5 5 10 0 2 3 4 -0 1 8 12 7 -1 -2 3 8 6 6 15 14 13 14 9 6 1 1 2 0 -3 -4 -1 2 -1 -6 -10 -10 -11 -3 -10 -14 -15 -17 -19 -13 -6 -6 -10 -11 -14 -17 -17 -19 -17 -21
5 4 2 -5 -4 -2 0 2 1 3 9 6 8 10 8 6 11 14 12 8 7 5 1 5 -0 4 2 2 -4 -4 -14 -16 -8 -2 -5 -7 -2 -8 -13 -14 -15 -20 -22 -18 -16 -13 -5 -15 -12 -18 -20 -20 -24 -24
7 1 0 0 -1 0 2 0 2 3 -3 -4 -7 -3 -1 5 12 13 11 9 8 8 5 -1 -7 -10 -0 -3 -6 -5 -4 -7 -14 -12 -9 -6 -7 -12 -17 -19 -21 -24 -23 -22 -21 -21 -20 -21 -24 -23 -22 -20 -18 -23
-4 -7 -2 -4 0 2 0 -6 -4 -2 -1 1 -2 -10 -5 -2 -4 3 7 8 8 5 -0 3 1 -4 -9 -10 -10 -9 -2 -4 -10 -7 -4 -8 -16 -21 -20 -20 -25 -24 -23 -23 -24 -24 -22 -21 -22 -23 -23 -22 -22 -23
-8 -9 -8 -3 0 -2 -2 -2 -3 -1 -2 -0 -1 -11 -14 -7 -3 -1 5 5 5 6 2 -7 -6 -3 -2 -2 -2 -3 -4 -9 -9 -1 -7 -9 -14 -16 -24 -26 -26 -24 -21 -23 -25 -25 -22 -22 -21 -23 -23 -24 -22 -20

GFSWCAN_sfc_temp_087.txt.gz
Temp
47 47 47 47 47 47 47 48 48 48 48 48 48 48 48 48 48 43 41 41 36 30 32 36 37 33 34 33 27 33 32 34 33 30 30 29 28 31 30 33 32 32 29 29 31 26 24 36 42 33 36 35 34 32
47 47 47 47 46 45 47 47 47 47 47 47 48 47 48 48 48 46 39 42 41 34 34 38 40 42 39 39 34 34 32 33 33 30 32 33 30 31 29 27 36 29 30 28 32 30 33 34 32 33 34 33 33 32
46 46 47 47 45 46 47 47 47 47 47 47 47 48 48 48 48 46 40 40 37 34 35 34 34 40 42 42 44 33 36 39 37 38 33 33 30 33 29 26 28 28 33 30 29 30 30 32 33 32 32 30 31 32
46 46 46 46 45 46 46 46 46 47 47 47 47 48 48 48 48 46 40 41 39 33 27 31 41 38 43 42 41 42 41 43 41 39 33 32 29 37 30 29 27 28 30 27 30 31 32 30 30 30 30 30 29 29
46 45 46 46 46 46 46 46 46 46 46 47 47 48 48 48 49 45 42 42 42 37 27 30 37 41 42 40 38 39 38 38 36 33 33 32 35 35 33 31 24 29 26 26 25 30 28 26 28 29 27 27 28 28
45 45 46 45 46 46 46 46 46 46 46 47 47 48 48 48 48 42 33 41 44 42 33 25 36 37 40 39 37 37 37 37 36 35 35 37 39 35 29 24 27 29 31 30 30 30 28 28 28 28 26 25 25 26
45 45 45 45 45 45 46 46 46 46 46 47 47 48 48 48 44 38 36 40 46 42 33 28 29 37 40 38 37 36 38 37 37 36 34 35 33 33 28 23 25 27 30 30 32 32 27 28 25 27 26 26 27 25
44 45 45 45 45 45 45 45 46 46 46 47 47 47 48 47 45 41 43 46 44 38 35 28 28 31 41 34 34 37 33 37 37 36 36 35 32 31 22 24 26 26 29 29 28 30 29 29 29 28 29 28 24 23
44 44 45 45 45 45 45 45 46 46 47 47 47 47 44 41 37 40 46 46 44 38 30 30 26 24 39 36 37 36 37 30 36 33 34 33 27 20 23 25 24 25 25 25 29 29 28 26 26 27 27 26 23 22
44 44 44 44 44 45 45 45 46 46 47 47 43 37 31 37 46 44 39 34 34 34 35 28 31 27 35 34 32 32 34 33 29 33 31 27 20 24 25 25 26 25 26 29 28 25 26 24 24 23 23 23 22 21
44 44 44 44 44 45 45 45 46 46 46 40 35 34 40 46 39 34 30 30 31 29 32 33 30 29 38 32 32 33 32 32 28 31 30 25 20 23 26 24 25 26 26 26 26 26 26 26 24 22 21 20 19 18
44 44 45 45 45 45 45 45 46 44 41 40 40 42 40 35 33 30 28 29 29 28 31 30 32 34 35 38 33 33 31 31 27 32 28 22 21 24 24 23 23 24 24 23 24 23 23 23 23 21 19 17 15 14
44 44 44 44 45 45 46 46 46 45 45 42 37 33 33 32 27 23 19 25 24 28 27 32 31 33 35 36 33 33 29 28 31 25 23 19 23 24 23 23 22 23 22 21 20 20 19 17 17 16 12 11 12 9
43 43 44 44 45 46 46 46 46 45 41 34 31 26 27 24 25 23 25 27 29 29 31 33 33 33 33 31 32 27 28 30 24 21 22 20 21 21 21 22 19 14 14 14 13 13 11 10 7 7 7 8 9 7
42 44 46 45 46 46 46 46 46 42 33 30 30 22 20 23 23 28 28 31 32 33 34 33 33 33 29 28 29 27 26 24 25 23 18 19 19 17 15 15 13 11 10 10 11 10 9 9 9 8 6 9 8 6
44 43 41 46 46 47 46 45 37 35 31 29 25 18 21 24 27 29 29 30 33 33 34 33 29 28 26 25 26 26 23 20 21 15 14 17 14 14 14 15 12 12 12 11 11 11 11 10 11 10 9 8 6 8
42 37 42 42 43 43 42 35 33 30 27 23 15 13 16 18 23 26 29 29 32 33 30 28 23 26 27 21 20 20 19 17 13 14 17 16 15 14 12 13 13 14 13 13 12 13 11 10 11 15 15 14 14 12
38 40 42 42 41 38 33 33 30 28 20 20 17 16 20 19 24 25 26 28 31 30 30 27 28 22 20 20 19 16 14 12 15 17 16 14 14 13 16 14 14 15 14 13 14 13 13 13 17 18 17 17 16 16
40 41 42 42 40 34 30 31 32 21 20 20 22 23 22 21 24 24 26 29 30 30 28 23 20 19 18 15 14 11 15 17 16 15 14 14 15 15 15 15 15 15 15 16 18 19 19 19 19 19 19 19 17 17
42 42 41 42 41 32 30 28 33 26 21 24 24 23 23 22 23 23 24 26 27 25 21 18 16 16 16 16 15 19 18 20 19 16 15 16 17 17 17 18 19 19 20 20 19 17 18 17 17 16 16 15 16 15
40 40 42 40 35 32 29 28 26 26 26 22 23 24 21 22 20 19 21 24 21 17 15 15 19 18 17 17 22 22 21 22 20 20 19 16 18 19 19 20 20 20 19 17 17 15 14 16 15 14 13 11 9 10
38 42 36 37 32 31 28 28 26 26 25 25 24 24 19 17 16 18 21 17 15 15 16 21 20 19 20 19 20 22 21 20 19 18 17 18 17 17 17 18 18 15 15 15 15 14 14 13 12 12 11 10 6 11
40 37 33 32 24 21 21 29 22 26 17 20 21 17 15 14 17 23 14 16 14 17 19 22 21 22 20 21 22 22 23 22 19 19 17 17 15 14 15 14 15 13 13 13 14 13 12 4 6 8 7 7 7 9
36 28 25 24 22 15 23 17 26 23 23 19 16 12 13 13 19 14 12 14 16 19 20 20 21 19 20 20 18 18 18 18 15 13 16 16 14 12 14 13 13 13 14 14 13 11 9 7 -2 7 4 6 4 5
24 20 23 17 20 14 14 15 14 15 10 10 10 9 12 17 10 8 11 12 15 16 17 19 19 19 15 13 14 15 17 19 17 14 13 15 12 12 11 11 10 11 10 10 9 8 6 1 2 3 5 4 5 5
17 17 20 21 19 16 15 10 6 8 8 6 8 14 13 10 6 8 12 10 13 12 14 16 15 16 15 17 15 15 16 18 17 13 12 15 15 13 10 10 10 10 8 8 6 7 5 2 3 3 4 3 -3 -1
14 15 19 21 19 20 11 11 15 10 5 7 10 11 8 4 5 9 12 11 15 12 16 18 20 19 16 13 13 12 13 13 14 13 10 10 10 11 11 9 8 11 6 5 5 6 6 3 2 1 1 1 0 -1
13 12 11 7 8 10 2 -0 -1 0 5 13 11 1 7 6 7 11 12 14 12 15 12 11 13 16 14 11 10 8 7 7 7 8 9 8 5 3 3 5 6 4 2 0 2 -0 2 3 3 1 0 1 1 -1
5 6 11 1 3 3 3 -0 2 9 12 8 2 2 4 9 9 8 14 15 15 14 10 7 3 5 4 3 1 4 8 9 8 3 2 3 3 5 1 2 2 -0 -1 3 -2 -0 -0 1 1 0 -1 -1 -2 -7
5 5 2 -4 -4 -0 2 4 4 5 9 8 10 10 9 8 11 14 14 12 12 10 6 7 4 8 6 6 3 3 -2 -3 2 7 6 5 6 4 1 2 2 -3 -3 1 2 3 0 -1 -0 -3 -3 -2 -2 -3
6 2 0 1 -1 2 4 3 3 4 -1 -1 -4 1 3 6 11 12 10 10 8 8 7 2 0 2 5 4 4 4 5 1 -4 -2 1 1 1 1 0 -3 -5 -6 -4 -2 -2 -2 -2 -3 -3 -4 -3 -4 -5 -8
-4 -8 -2 -4 0 4 2 -4 -3 1 3 3 1 -6 -2 1 2 7 8 10 10 7 4 6 5 3 -1 -1 -1 1 2 -1 0 1 2 1 -1 -3 -4 -6 -9 -7 -5 -6 -6 -6 -6 -5 -5 -5 -6 -6 -8 -9
-10 -10 -8 -4 -1 -2 -3 -1 -1 1 0 1 1 -7 -10 -3 2 5 8 6 10 10 6 1 -0 -0 -1 0 1 0 -1 -1 0 3 0 -2 -4 -5 -7 -9 -9 -7 -5 -5 -6 -7 -6 -7 -6 -7 -7 -10 -10 -10

GFSWCAN_sfc_temp_090.txt.gz
Temp
48 48 48 48 48 48 48 47 48 48 48 48 48 48 48 48 48 46 42 44 39 33 42 43 44 40 41 40 33 39 39 40 38 34 35 36 35 37 36 37 35 35 32 34 34 30 27 35 44 34 32 34 34 32
48 47 47 47 47 47 46 47 48 48 48 48 48 48 48 48 48 48 41 45 42 36 41 45 47 49 47 46 40 40 37 37 37 36 36 35 35 38 35 32 40 31 32 31 29 27 32 34 33 34 35 32 33 32
47 47 47 47 47 46 46 47 47 47 47 47 47 48 48 48 48 48 46 41 38 35 37 44 46 50 50 49 51 38 45 44 40 44 37 35 32 38 32 31 33 32 37 34 32 31 31 34 35 35 33 30 31 32
47 46 46 46 46 45 46 46 47 47 47 47 47 48 48 48 49 48 44 44 42 42 34 43 50 47 52 51 49 48 47 47 45 42 38 36 33 38 33 34 34 31 32 30 30 32 34 31 30 30 30 31 29 29
46 46 46 46 46 45 46 46 46 46 47 47 47 48 48 48 48 49 46 45 50 44 37 41 48 48 49 49 47 47 45 42 41 39 38 37 40 36 35 39 30 32 28 29 28 31 30 27 29 30 28 27 29 28
46 46 46 46 45 44 46 46 46 46 47 47 47 48 48 47 47 44 34 44 47 46 39 34 46 45 47 47 46 44 44 43 42 39 39 43 42 35 32 30 29 31 31 31 30 31 30 29 29 29 27 26 27 27
46 46 46 46 45 46 46 46 46 46 46 46 47 47 48 47 46 40 42 49 49 48 36 32 40 46 46 46 47 45 44 45 43 40 38 40 36 36 32 28 28 30 30 31 33 33 28 29 27 29 28 28 29 30
45 45 45 45 45 46 46 46 46 46 46 47 47 47 47 48 46 41 48 47 48 39 39 30 35 40 46 41 40 46 40 42 41 39 39 37 36 34 25 26 27 29 30 30 30 33 31 32 33 32 33 32 29 27
44 45 45 45 45 45 45 45 46 46 46 47 47 47 44 41 37 41 46 47 47 41 36 33 31 32 41 40 43 40 41 34 44 36 36 36 34 27 26 26 26 28 28 29 31 34 34 32 31 32 32 31 28 27
44 44 44 44 44 45 45 45 45 46 46 47 44 38 32 39 46 44 39 36 35 37 36 33 42 35 42 36 37 38 37 35 30 36 38 35 26 28 29 30 30 31 32 34 31 28 30 29 29 28 28 29 28 26
43 44 44 44 45 45 45 45 46 46 46 41 35 35 41 46 39 36 32 32 34 31 36 36 39 37 44 34 36 37 35 37 30 34 32 32 28 27 30 29 31 31 32 33 33 32 32 31 28 26 25 25 25 23
44 44 45 44 45 45 45 45 46 43 42 40 42 43 42 37 35 32 31 33 32 33 38 35 35 40 38 40 37 36 32 34 29 35 32 30 26 29 30 28 29 30 30 30 31 29 29 28 28 27 25 22 20 18
44 45 45 45 45 45 45 46 46 45 45 43 40 34 34 34 29 28 24 29 31 36 36 35 32 39 37 40 36 34 31 31 37 31 32 28 28 29 28 28 27 28 28 27 26 26 26 24 23 21 17 16 17 14
44 44 45 45 45 45 45 45 45 45 44 35 33 28 30 28 31 33 34 35 37 36 36 37 36 37 38 32 34 30 32 35 28 27 29 27 26 26 27 27 26 22 22 21 20 19 17 16 14 15 15 15 15 13
44 44 44 44 45 45 45 45 45 41 36 35 35 29 28 34 33 33 34 34 35 39 38 37 35 37 33 32 33 31 28 27 30 31 29 28 26 24 22 21 19 17 17 18 18 16 15 15 15 14 15 16 15 13
43 42 41 43 43 45 45 45 39 36 35 32 31 28 29 31 30 32 32 32 36 36 40 42 33 31 31 33 29 28 28 28 30 28 28 26 22 21 21 20 19 19 19 18 18 18 17 16 17 17 16 16 15 15
43 39 43 45 45 45 44 35 33 31 32 28 28 28 30 32 33 32 33 34 35 36 33 36 29 30 31 30 27 31 30 28 25 26 27 26 22 20 19 18 18 19 19 19 19 19 18 18 18 20 20 19 20 18
38 41 46 46 45 38 34 34 32 29 25 29 28 28 29 29 31 31 32 35 35 36 36 33 37 29 29 28 30 27 24 23 26 26 25 23 22 20 21 21 20 21 21 20 21 20 20 21 24 26 23 23 22 22
40 41 43 44 41 35 32 31 36 26 27 28 28 30 30 29 30 32 32 34 36 37 36 34 30 31 31 30 28 25 24 25 22 23 23 22 22 21 22 22 22 23 22 23 25 27 27 24 26 27 27 27 25 26
42 41 42 42 43 35 29 29 38 31 28 29 31 29 30 29 30 30 31 33 35 34 30 30 31 29 29 27 27 27 28 28 25 22 22 24 25 23 24 26 27 26 26 26 26 25 26 25 26 26 25 24 23 23
40 40 43 42 39 39 35 33 30 32 30 28 29 31 28 30 29 29 30 32 30 28 29 28 27 25 25 26 30 29 28 30 28 28 26 24 27 29 27 28 27 28 27 27 26 24 22 25 26 25 23 22 21 22
39 42 43 42 37 36 33 36 33 34 31 29 30 31 28 27 27 28 30 28 28 26 28 28 26 25 25 25 28 31 29 29 29 28 26 26 25 26 26 27 26 25 26 26 26 23 24 25 24 23 22 21 16 21
41 41 40 37 30 30 28 36 30 31 26 26 29 25 25 26 27 30 26 26 26 26 28 28 27 29 27 27 28 29 30 30 29 29 27 29 29 28 27 27 28 25 23 24 26 25 23 15 16 20 20 19 19 19
39 32 29 29 30 24 30 28 32 29 28 26 25 21 22 26 28 27 25 26 25 26 26 25 27 26 27 27 28 27 28 31 29 27 28 27 25 24 26 25 25 26 26 25 24 23 21 20 10 19 18 17 17 15
29 24 27 23 28 26 24 24 24 26 21 23 21 21 22 26 23 22 24 23 23 24 25 27 28 29 27 27 27 25 26 29 27 24 25 28 25 23 22 23 23 23 23 21 20 20 19 17 16 15 16 15 14 14
21 21 23 25 25 25 25 21 22 22 22 20 22 24 26 24 19 23 24 23 24 24 24 25 26 26 26 28 26 25 25 29 28 24 23 26 26 24 21 20 19 19 22 22 19 18 17 15 14 11 13 11 7 8
20 19 22 25 26 26 23 24 25 25 21 20 22 20 21 19 22 21 22 22 25 26 30 30 30 29 27 25 25 24 25 25 25 24 23 22 21 23 24 21 19 21 18 17 17 17 16 14 13 12 12 14 13 10
19 19 19 17 17 19 16 17 18 17 18 21 23 19 19 19 19 19 21 22 24 26 24 25 29 29 26 24 21 20 18 16 16 17 18 17 16 16 16 16 15 13 14 14 14 13 14 14 13 12 11 10 10 11
16 17 19 9 13 13 12 13 15 17 18 20 18 15 14 16 16 18 20 22 23 23 20 18 17 18 17 18 19 20 20 20 18 14 15 15 14 14 15 14 14 13 14 13 8 10 9 11 11 11 9 10 10 8
14 17 13 9 8 10 12 14 15 15 17 17 19 17 16 16 17 19 21 21 22 22 22 20 18 20 17 16 13 12 14 16 17 20 18 16 17 14 12 12 11 10 12 13 13 12 7 10 8 9 9 9 10 8
16 17 13 13 11 14 15 14 15 15 16 15 15 17 14 16 17 17 17 18 17 17 17 16 16 19 17 16 17 15 14 13 8 11 14 14 13 13 12 10 10 10 11 11 10 11 10 9 10 7 7 6 5 3
15 11 11 9 10 14 16 17 16 16 16 17 14 14 13 16 14 15 14 17 17 18 16 18 16 14 16 15 15 14 13 11 10 11 12 12 11 10 8 7 7 9 9 8 8 8 5 5 6 5 5 4 3 1
10 12 12 12 11 12 13 15 14 13 15 15 13 12 11 14 12 13 15 14 18 18 17 16 13 12 11 12 12 10 10 10 9 9 8 7 7 7 7 7 7 7 6 8 8 6 4 4 4 3 3 0 -1 -1

GFSWCAN_sfc_temp_093.txt.gz
Temp
48 48 48 48 48 48 48 48 49 48 48 49 49 49 49 49 49 49 46 50 44 40 46 49 50 44 46 46 39 44 43 44 41 35 36 38 37 41 39 41 37 36 32 35 37 34 28 38 45 32 31 34 35 34
48 48 48 47 48 48 48 48 48 48 48 48 48 48 49 49 49 49 42 50 46 37 45 50 51 52 50 50 45 45 41 41 40 36 37 38 37 39 39 31 44 33 34 31 32 29 34 36 34 35 36 33 33 34
47 47 47 47 47 47 47 47 47 47 48 48 48 48 48 49 49 49 45 44 40 36 42 48 50 55 56 54 55 43 49 47 43 46 38 39 35 42 32 33 34 34 41 34 33 32 33 35 36 35 34 31 32 32
47 47 47 47 47 46 46 47 47 47 47 48 48 48 48 48 49 48 46 49 48 42 35 47 56 52 57 56 54 53 50 51 49 49 40 39 35 42 34 38 34 33 35 34 31 33 34 32 31 32 32 31 30 30
46 46 46 47 47 46 46 46 46 47 47 47 48 48 48 48 49 50 49 52 50 42 36 44 53 54 55 54 52 52 50 48 47 39 37 37 39 37 40 42 32 33 28 29 28 32 31 28 30 32 29 29 31 31
46 46 46 46 46 46 46 46 47 47 47 47 48 48 48 48 48 45 35 51 53 48 39 33 52 50 52 52 50 50 51 49 45 40 40 43 44 41 33 31 29 32 32 33 31 33 31 30 31 31 29 28 29 29
46 46 46 46 46 45 46 46 46 47 47 47 47 47 48 48 46 42 43 46 50 49 41 35 42 50 51 51 52 51 50 50 47 44 41 42 39 41 34 30 29 31 32 33 36 36 31 31 28 30 30 30 31 32
45 46 46 46 45 45 46 46 46 46 47 47 47 47 48 47 45 41 49 50 51 45 47 32 38 43 50 40 39 51 45 43 43 44 46 39 40 35 28 28 30 31 31 32 34 34 33 34 34 35 36 35 31 29
45 45 46 45 45 45 45 46 46 47 47 47 47 47 44 42 38 42 47 48 51 43 35 35 33 34 49 43 44 46 47 36 48 40 42 43 37 28 28 29 29 30 31 30 34 39 38 36 36 36 36 34 31 29
45 45 45 45 45 45 45 46 46 46 47 47 45 37 32 39 46 45 40 37 37 38 41 36 45 38 46 42 41 41 44 38 34 39 45 37 28 32 31 31 34 35 36 37 34 32 34 32 32 32 31 32 31 30
45 45 45 45 45 45 45 46 46 46 46 40 35 34 41 46 41 38 33 33 34 32 40 38 41 38 50 37 35 46 36 40 32 37 36 34 29 30 34 33 35 37 38 37 38 37 36 34 31 30 29 29 28 26
45 45 45 45 45 45 45 46 46 44 41 40 41 43 41 36 36 33 33 36 34 36 40 37 37 43 43 47 38 40 35 36 30 41 34 30 28 33 34 33 34 35 35 34 36 34 34 33 33 31 29 25 22 19
45 45 45 45 45 45 45 45 46 45 45 43 40 35 34 34 30 29 26 31 33 40 40 38 34 41 41 43 38 38 30 32 42 32 33 30 32 34 34 33 32 33 33 32 31 32 31 29 27 24 20 19 19 17
45 44 45 45 45 45 45 46 46 44 41 35 34 30 31 29 33 36 37 37 41 40 40 38 37 39 40 36 35 30 35 37 30 29 30 31 30 30 31 32 31 27 27 26 25 23 21 19 18 18 18 18 18 16
44 45 45 45 45 45 45 45 45 42 37 34 36 31 31 37 36 35 36 36 40 43 40 37 41 40 37 33 36 34 30 29 32 32 31 31 30 28 27 27 24 23 22 22 22 20 18 18 18 18 19 20 18 17
45 44 45 45 45 45 45 44 40 38 38 36 36 31 32 33 32 33 34 34 39 40 42 42 34 32 32 34 31 30 30 31 31 30 30 29 27 27 25 24 23 23 24 23 22 21 20 19 20 21 20 19 18 18
44 42 45 45 45 45 44 35 34 33 34 32 31 31 34 33 34 34 35 37 41 39 35 40 30 31 37 32 31 37 32 30 29 28 30 29 27 25 24 23 22 23 23 24 23 23 22 22 21 21 22 22 22 22
38 42 44 45 44 39 34 34 34 33 28 33 32 31 32 31 33 33 33 37 37 39 41 36 42 32 31 30 34 32 30 30 31 30 28 28 26 24 25 24 24 25 24 23 23 23 23 22 25 28 26 26 26 25
41 45 44 44 40 36 33 33 36 31 30 31 31 33 33 32 34 34 34 37 40 40 44 41 33 35 35 34 31 31 30 30 27 27 27 26 26 25 25 26 26 26 25 25 26 28 29 28 30 31 31 31 29 30
43 46 43 44 44 37 32 32 41 36 31 32 34 32 34 32 33 32 33 36 40 39 36 34 35 33 34 32 35 33 32 32 29 25 25 27 28 27 27 27 29 28 29 29 30 29 30 30 31 30 28 27 25 26
39 38 41 42 38 37 37 37 36 37 33 32 32 35 31 33 32 32 32 38 34 36 36 36 32 29 31 33 36 35 32 33 33 32 29 27 29 31 30 31 30 32 31 30 30 28 27 30 30 29 26 26 25 25
38 41 38 42 37 36 36 42 38 38 35 32 32 36 31 30 30 31 37 33 34 34 36 35 34 31 30 30 32 35 34 36 35 34 32 31 30 30 30 30 30 28 29 29 30 28 29 30 28 27 25 25 22 24
41 41 38 36 32 32 29 40 32 35 28 29 32 30 29 30 33 36 31 35 32 34 34 34 32 35 32 32 33 33 35 35 34 33 32 33 33 31 31 30 31 29 28 29 31 30 28 21 23 22 24 23 23 22
41 35 31 31 32 27 32 30 36 32 32 30 29 26 27 30 33 31 31 34 31 31 32 29 33 31 31 31 31 32 34 36 33 32 33 32 30 30 31 31 31 32 31 31 29 28 26 25 19 23 23 21 21 20
32 27 30 26 32 29 27 27 28 29 26 28 26 26 27 31 27 29 29 31 28 28 29 32 33 34 31 31 32 31 34 35 32 30 31 33 31 29 29 29 29 29 29 26 25 24 24 23 22 20 20 20 18 18
25 24 27 29 28 29 29 25 26 27 27 26 27 31 30 29 25 26 31 29 28 27 27 29 31 31 32 33 30 30 32 36 34 29 30 31 31 29 26 24 23 24 28 27 25 23 22 21 19 16 17 18 13 13
24 23 27 31 31 32 28 30 32 30 26 25 27 26 26 23 26 26 27 28 29 29 32 33 34 33 32 32 32 32 33 33 32 30 30 29 28 29 29 26 24 24 25 23 23 21 20 19 18 16 16 18 18 16
25 26 22 24 25 29 24 26 25 25 26 31 31 25 25 25 24 22 25 27 29 30 30 32 35 34 31 30 29 27 24 23 23 24 23 23 24 23 22 22 20 19 21 20 20 19 19 19 18 17 15 14 14 15
22 24 25 15 20 22 21 22 23 24 24 26 27 23 21 21 22 23 24 27 29 27 25 25 25 27 26 27 27 27 26 26 23 19 20 19 18 18 21 20 20 20 20 18 13 15 14 15 15 14 14 14 14 14
19 25 20 16 16 18 19 21 20 21 23 23 25 22 22 20 21 25 25 26 26 26 26 25 24 24 22 22 21 20 23 24 26 25 22 21 22 19 18 18 17 17 19 19 18 17 11 14 15 14 14 14 14 14
24 24 20 21 17 19 19 20 21 22 23 21 23 23 20 19 21 23 23 25 26 25 25 24 24 26 24 22 21 19 17 18 17 19 21 20 19 19 18 17 16 17 17 16 15 15 14 13 14 13 12 11 10 9
22 19 18 15 16 18 21 22 22 22 21 21 19 21 19 21 18 20 20 24 24 24 24 24 23 23 25 23 21 21 20 17 17 18 19 18 17 16 15 14 14 15 14 14 14 13 11 10 11 11 10 9 7 6
19 20 20 18 16 17 18 20 20 18 21 20 19 22 20 21 16 18 20 20 23 24 23 22 21 20 19 18 18 17 18 17 15 14 14 13 13 13 14 14 14 13 11 13 13 12 10 9 9 7 7 5 4 3

GFSWCAN_sfc_temp_096.txt.gz
Temp
49 48 48 48 48 48 49 49 49 48 49 49 49 49 49 49 49 49 45 53 46 38 45 49 49 44 46 45 37 43 42 43 39 34 35 34 34 37 36 39 36 32 29 30 34 29 25 35 40 30 31 34 34 32
48 48 48 48 48 48 48 48 48 48 48 48 48 48 49 49 49 49 44 50 50 41 44 48 49 52 51 49 44 44 41 40 39 35 36 36 34 37 34 29 41 29 33 30 30 27 33 34 31 33 35 32 32 31
47 47 47 47 47 48 48 48 48 48 48 48 48 48 48 49 49 49 45 46 44 37 43 48 49 55 58 56 56 41 45 47 44 47 39 37 32 39 30 31 34 36 40 33 32 31 31 33 34 33 32 30 31 31
47 47 47 47 47 47 47 47 47 48 48 48 48 48 48 48 49 48 44 47 48 45 35 44 58 54 59 57 55 53 49 51 50 48 40 37 34 43 35 35 32 33 36 33 30 32 32 31 31 31 31 31 30 30
47 47 47 47 47 47 47 47 47 47 48 48 48 48 48 48 49 50 49 47 50 43 35 41 51 56 57 55 53 53 50 48 45 41 39 37 38 39 39 38 28 33 27 28 26 31 30 27 30 31 29 29 30 30
46 46 46 46 46 46 46 46 47 47 47 48 48 48 48 48 48 46 35 51 52 51 39 32 51 51 54 54 52 51 51 48 47 42 40 44 44 40 33 29 30 32 32 34 30 32 30 30 30 32 29 29 30 30
46 46 46 46 46 46 46 46 47 47 47 47 48 48 48 48 47 40 40 42 50 49 39 35 40 51 53 53 52 50 51 49 46 44 42 42 40 41 33 28 30 31 33 34 35 34 29 30 28 32 32 32 32 32
46 46 46 46 46 46 46 46 46 47 47 47 47 47 48 48 45 42 48 50 51 45 44 32 36 43 52 44 42 51 45 46 44 43 45 41 39 35 26 29 31 31 31 33 33 35 33 35 37 36 36 34 30 28
45 46 46 46 45 45 46 46 46 47 47 47 47 47 45 42 37 41 49 49 50 42 35 35 31 31 50 45 46 43 45 35 45 38 40 42 37 27 28 29 30 31 31 31 39 39 39 36 36 36 35 33 30 29
45 45 45 45 45 45 45 46 46 47 47 47 46 38 32 38 46 46 41 37 39 41 41 35 44 36 46 42 40 40 42 39 34 39 45 36 27 31 32 31 32 35 37 38 34 33 34 32 32 31 31 31 30 28
45 45 45 45 45 45 46 46 46 47 46 42 35 34 41 46 42 39 33 32 36 32 39 39 41 38 49 37 38 44 37 39 32 36 36 33 28 30 34 34 37 38 39 38 38 37 36 34 31 29 28 28 26 24
46 45 45 45 45 45 46 46 46 45 42 40 40 42 41 37 34 32 32 37 35 35 40 37 38 44 43 48 39 40 35 37 30 41 35 31 29 34 34 33 35 36 36 35 36 34 34 33 32 30 27 23 19 18
45 45 45 45 45 46 46 46 46 46 45 42 38 34 33 34 28 29 26 31 33 41 42 39 35 41 43 46 37 35 30 31 40 32 32 28 32 34 33 33 32 34 34 33 31 31 29 26 25 22 18 17 18 16
45 45 45 45 45 45 46 46 46 45 39 34 33 29 31 29 33 36 37 37 42 41 40 39 38 38 41 36 35 30 34 36 30 29 29 30 31 32 33 33 31 27 26 25 23 22 20 18 17 17 17 16 15 13
45 44 45 45 45 45 45 45 45 42 34 33 33 30 31 37 36 34 36 37 41 43 40 39 39 40 35 32 35 34 31 29 32 31 30 31 30 29 28 26 25 23 22 22 21 19 18 18 17 17 17 18 17 14
44 44 44 45 45 45 45 45 40 38 34 34 34 32 34 34 32 33 34 34 41 41 43 42 35 32 32 34 31 31 30 30 30 29 29 30 28 28 26 25 24 24 24 22 21 20 19 17 18 19 19 18 16 17
44 43 46 45 45 45 44 37 35 32 33 33 32 33 34 34 34 33 35 37 43 40 33 38 30 31 36 32 30 36 31 30 29 28 30 29 27 25 24 24 24 24 24 24 23 22 22 22 20 21 20 20 21 21
44 47 45 45 45 38 35 35 34 34 30 33 32 32 34 34 33 34 36 39 40 37 37 36 40 33 31 30 33 31 30 30 31 29 28 28 26 25 25 24 25 26 25 24 23 22 22 21 22 25 27 27 26 25
46 46 45 45 42 38 34 33 34 31 31 33 32 34 34 33 36 37 36 37 41 44 40 40 33 34 35 34 32 31 30 30 27 27 26 26 26 26 26 26 26 26 24 24 25 27 28 28 29 30 30 30 28 29
44 44 44 44 45 37 32 33 40 36 31 33 35 33 35 34 35 34 34 37 38 38 35 36 35 33 33 33 36 34 33 32 28 24 24 25 27 27 26 27 28 28 27 28 29 30 30 29 30 29 27 25 24 24
41 40 43 42 38 36 37 37 38 38 36 34 35 35 31 32 31 32 33 37 34 35 36 37 32 30 33 35 37 35 33 33 30 30 26 24 28 29 29 31 30 30 29 28 28 27 27 29 29 28 26 25 25 24
36 40 35 38 35 34 36 42 39 40 36 33 33 36 31 29 30 32 37 33 34 36 37 37 34 31 32 32 34 36 35 36 35 33 32 30 28 28 29 29 30 29 29 29 30 28 28 29 28 26 25 24 22 24
41 40 36 35 31 31 30 41 34 35 29 29 33 30 30 31 33 38 32 35 34 37 37 37 35 36 34 34 35 35 37 35 33 32 31 32 32 32 31 31 31 29 28 30 31 29 27 20 19 22 24 23 23 22
40 34 32 31 31 27 33 31 37 34 32 30 30 28 29 30 34 31 30 34 32 34 34 33 34 31 32 32 32 33 35 36 33 32 33 32 29 29 31 30 31 32 31 31 29 28 26 24 18 23 22 22 21 20
32 28 31 27 33 29 28 29 30 30 28 30 29 29 28 32 28 28 30 31 31 30 31 33 33 33 30 31 32 33 35 34 31 29 32 33 31 30 30 30 29 28 29 26 24 25 24 23 22 21 21 19 18 17
26 26 28 30 30 31 30 27 28 29 30 28 30 32 31 29 27 27 31 29 30 30 29 31 31 31 32 33 30 31 33 36 34 30 31 33 31 28 26 24 22 22 27 27 25 24 23 22 20 17 17 17 8 13
25 25 29 35 34 34 30 33 35 31 28 27 28 27 27 24 27 26 28 28 30 31 33 33 35 34 32 32 33 34 35 35 33 31 31 29 28 29 28 26 24 23 25 24 23 22 21 20 18 17 17 17 18 17
26 28 24 28 28 31 28 29 28 28 30 34 31 26 26 27 23 24 26 30 31 33 32 33 36 36 32 30 28 28 26 26 25 25 25 24 24 23 21 20 18 19 19 19 19 19 19 18 17 17 16 15 14 15
25 27 26 21 25 26 26 26 26 26 26 28 28 25 21 21 24 24 26 29 31 31 28 27 27 29 28 28 27 27 26 25 22 18 18 17 17 18 21 20 20 20 19 16 14 16 15 15 14 13 13 13 14 15
22 27 23 20 20 21 21 22 22 23 26 26 26 24 21 21 23 27 27 28 27 27 27 27 26 26 24 23 23 24 26 27 28 26 22 20 19 19 19 18 18 18 20 19 18 14 12 14 16 14 12 14 14 12
27 27 24 24 20 21 21 22 24 24 24 24 26 24 19 19 22 24 25 27 29 28 25 24 24 25 24 22 21 19 16 19 21 22 21 20 20 19 19 18 18 18 17 16 16 15 13 13 13 13 12 11 10 8
25 23 21 18 17 20 23 22 23 23 21 22 21 22 21 22 18 21 22 23 26 25 26 26 25 24 25 24 22 23 20 19 19 20 20 19 17 16 16 15 16 16 15 14 13 13 12 11 10 10 9 8 6 5
22 23 23 20 17 18 21 22 21 20 22 21 21 22 23 22 16 18 23 24 25 26 25 23 23 22 21 21 20 19 18 17 16 16 16 15 15 15 15 15 15 14 14 13 13 12 10 9 8 6 7 5 3 2

GFSWCAN_sfc_temp_099.txt.gz
Temp
47 47 47 48 48 48 49 49 49 49 48 48 48 48 49 49 49 44 41 45 40 34 35 42 44 35 36 34 25 34 33 35 31 27 28 29 29 31 31 34 31 27 26 24 27 23 20 31 34 25 30 31 31 29
47 47 47 47 48 48 48 48 48 48 48 48 48 48 49 49 49 47 41 44 44 34 34 40 42 44 43 42 35 35 35 35 32 28 29 30 30 31 31 24 37 26 30 25 26 24 30 31 29 31 31 29 29 29
48 47 48 48 48 48 48 48 48 48 48 48 48 48 48 48 48 46 42 42 41 35 33 35 39 46 52 47 47 35 39 40 37 41 32 32 30 33 26 26 29 31 36 28 28 27 28 30 32 31 30 28 30 30
47 47 47 47 47 47 47 47 47 47 48 48 48 48 48 48 48 47 38 43 39 38 28 37 52 48 52 50 47 45 42 43 41 38 34 33 31 36 29 32 26 28 31 29 27 28 28 28 29 30 30 30 29 29
47 47 47 47 47 47 47 47 47 47 47 48 48 48 48 48 48 44 41 42 45 38 30 31 43 49 52 48 47 46 43 39 35 30 30 31 35 33 30 32 26 30 26 25 21 28 26 26 28 30 28 28 29 28
47 46 46 46 46 46 46 46 47 47 47 48 48 48 48 48 48 41 34 41 44 45 33 25 41 44 48 48 46 44 42 41 37 33 31 36 41 32 28 22 29 31 32 33 28 29 27 27 28 30 28 28 29 28
46 46 46 46 46 46 46 46 46 47 47 47 48 48 48 48 42 39 36 41 46 46 35 26 29 43 48 46 42 41 43 38 37 34 33 35 36 33 24 19 28 31 32 32 33 32 27 29 25 30 29 29 30 29
46 46 46 46 46 46 46 46 46 47 47 47 47 47 47 48 45 41 45 47 48 40 37 29 30 34 45 34 33 40 35 36 36 34 36 34 34 29 23 26 28 30 31 31 32 32 30 31 31 32 33 31 27 26
45 45 46 45 45 46 46 46 46 47 47 47 47 47 42 39 37 39 49 48 45 40 30 31 28 26 39 37 37 35 36 24 36 30 33 34 32 22 27 28 29 31 31 31 34 36 35 33 33 33 31 29 25 24
45 45 45 45 45 45 45 46 46 47 47 47 44 37 32 37 47 46 40 35 35 37 37 29 33 26 38 30 29 30 32 27 26 31 36 29 24 28 30 30 31 32 34 35 31 30 30 28 27 26 25 25 23 21
45 45 45 45 45 45 45 46 46 46 46 40 35 33 40 46 41 37 30 30 28 29 33 34 32 26 39 27 27 33 26 28 24 29 31 29 23 26 30 30 34 35 37 35 33 31 30 28 26 24 23 22 21 19
46 45 45 45 45 45 46 46 46 41 39 39 40 42 40 36 33 30 25 27 30 27 31 33 29 35 35 38 28 32 31 27 23 33 29 24 25 29 30 30 30 31 31 30 31 29 28 28 26 23 21 18 15 14
45 45 45 45 45 46 46 46 46 46 44 41 37 32 32 32 27 25 18 26 21 28 31 30 26 34 32 36 27 30 28 27 34 25 24 25 29 30 29 29 28 29 29 26 24 23 23 21 20 17 13 8 9 8
45 45 45 45 45 45 46 46 45 43 37 33 31 27 27 26 28 25 25 26 30 29 31 30 28 28 28 27 32 27 29 31 26 18 25 25 28 27 28 29 25 21 20 19 17 16 13 12 9 7 5 3 4 2
44 45 45 45 45 45 45 45 44 39 34 31 31 26 22 29 33 33 33 33 35 31 30 28 28 29 27 30 31 31 25 24 23 25 26 27 25 24 22 22 19 17 16 14 12 11 9 8 10 6 4 5 5 2
45 44 43 45 45 45 45 43 39 37 33 31 31 31 33 32 31 32 32 34 35 33 31 31 27 23 24 28 26 23 24 19 25 26 27 26 23 22 20 19 18 17 15 14 12 13 13 9 10 9 7 6 4 5
44 38 43 44 45 45 43 36 34 32 31 31 30 32 32 33 32 31 33 34 36 30 29 28 26 26 31 28 28 30 23 27 26 26 27 27 22 19 19 19 19 19 17 15 15 13 10 10 11 12 12 10 13 15
38 42 44 44 43 40 35 35 32 32 27 30 27 30 32 32 32 32 33 34 34 30 31 29 32 27 25 23 23 28 27 28 28 27 26 24 21 19 21 20 21 20 18 16 15 14 13 12 16 17 20 20 19 20
42 43 44 44 40 36 32 31 32 29 29 29 29 31 31 32 33 31 31 34 35 37 33 29 27 27 27 30 29 28 27 26 23 24 24 24 22 22 21 23 23 20 17 16 20 20 20 22 23 23 22 23 16 18
45 44 44 44 43 34 31 31 36 31 26 28 31 30 30 30 31 32 32 32 34 33 31 26 25 28 29 29 31 31 27 26 23 20 20 22 24 24 22 24 23 21 21 22 23 23 24 22 21 21 17 16 11 10
41 41 43 41 37 35 33 31 32 32 31 29 31 31 28 30 29 30 30 33 30 26 24 26 30 23 25 25 32 31 27 26 23 21 21 21 24 25 24 23 24 23 21 19 18 16 17 18 20 19 10 8 9 8
37 42 37 39 33 32 32 34 32 33 31 29 30 31 28 27 28 30 32 29 29 27 25 26 26 22 24 26 27 30 29 30 28 25 23 23 23 23 22 23 21 20 21 21 24 19 14 19 17 15 9 7 10 9
41 37 33 34 28 28 29 35 29 30 24 27 29 27 27 28 29 33 28 30 30 26 28 27 28 30 28 28 30 30 32 31 28 26 24 24 23 21 24 22 24 24 23 20 24 21 14 13 11 7 7 6 6 6
39 32 30 28 28 25 29 28 32 30 29 27 25 25 26 27 30 27 26 26 25 25 25 26 28 27 26 28 25 26 29 29 26 23 25 27 26 25 25 25 24 21 22 23 21 17 15 11 9 8 5 7 5 2
29 27 30 26 28 25 24 24 24 25 18 22 25 25 26 28 24 25 24 24 26 20 21 27 26 26 21 20 22 24 28 29 26 25 25 26 24 22 23 22 20 19 20 17 11 11 9 7 5 5 4 1 1 -2
25 26 26 27 26 24 25 21 21 23 26 25 27 27 22 25 24 24 23 26 27 28 28 29 28 27 25 27 24 24 25 28 28 23 23 26 23 19 16 14 11 11 16 13 14 9 11 10 4 4 1 2 1 -0
23 23 25 30 29 30 26 27 29 24 23 24 26 21 25 22 20 19 21 22 25 26 28 29 29 29 27 25 24 25 26 26 25 22 22 20 19 18 17 15 13 13 15 14 11 7 4 3 2 1 1 -1 -1 -0
23 25 21 25 24 25 26 26 24 24 23 28 25 21 23 16 14 18 20 21 25 23 25 29 30 29 25 22 21 21 20 21 20 19 19 17 15 13 10 13 15 15 11 11 8 8 5 3 1 1 -1 -1 -3 -4
22 25 24 21 23 20 21 21 23 21 21 22 21 18 14 17 19 18 18 24 27 28 24 23 23 24 23 23 22 22 20 20 17 11 5 3 2 6 6 7 12 10 7 7 13 7 7 3 2 0 -0 -2 -3 -1
21 25 20 18 15 17 14 16 16 16 19 20 20 19 16 14 13 16 18 21 24 23 23 23 23 22 20 20 20 19 19 19 14 14 10 5 5 11 9 8 6 6 7 8 4 3 10 5 7 1 -1 -4 -6 -8
24 24 21 20 16 17 18 16 16 17 17 18 22 14 9 10 13 16 17 16 24 23 22 22 21 21 21 20 17 15 12 16 14 15 16 15 14 12 11 9 5 6 7 7 6 3 0 -1 -2 -5 -5 -7 -9 -10
22 21 18 14 14 18 18 17 17 16 13 14 14 11 11 12 8 10 16 19 23 20 19 21 21 21 21 20 19 18 17 16 16 16 14 13 11 10 9 8 8 8 6 3 1 1 -2 -4 -7 -8 -10 -8 -10 -12
19 20 17 14 12 12 16 18 18 16 18 17 10 12 16 14 6 9 16 19 19 23 21 19 18 18 18 17 16 14 14 14 15 15 13 11 9 10 7 7 4 2 3 3 0 0 -2 -6 -9 -9 -10 -15 -17 -19

GFSWCAN_sfc_temp_102.txt.gz
Temp
48 48 49 48 48 49 49 49 49 48 48 48 48 48 49 49 49 42 38 41 36 25 32 39 41 33 33 31 23 32 31 32 30 25 27 26 28 30 29 31 30 27 24 23 25 22 20 28 32 25 27 29 28 26
47 47 48 48 48 48 48 48 48 48 48 48 48 48 48 48 49 46 36 41 41 32 32 38 40 42 41 40 33 32 34 31 29 27 29 29 27 29 28 24 35 24 28 24 25 22 28 29 27 29 31 28 28 26
47 47 47 47 48 48 48 48 48 48 48 48 48 48 48 48 48 45 39 39 35 30 30 34 37 43 46 43 43 33 35 38 36 38 31 31 30 30 27 23 27 28 33 25 25 25 27 29 29 29 29 28 27 27
47 47 47 47 47 47 47 47 47 47 47 47 48 48 48 48 48 45 36 37 37 33 25 32 48 43 49 46 44 42 40 40 38 35 31 31 30 35 28 28 23 27 28 27 24 26 27 27 28 29 28 27 27 27
47 47 47 47 47 47 47 47 47 47 47 48 48 48 48 48 48 42 38 39 42 35 26 29 38 45 49 46 45 43 41 37 32 30 28 31 34 34 31 29 23 29 25 22 21 26 25 25 27 29 27 27 28 26
47 47 47 47 47 47 47 47 47 47 47 47 48 48 48 48 46 38 29 39 41 44 29 22 36 40 44 45 43 41 39 36 33 31 30 33 39 31 26 22 28 30 28 31 23 27 26 26 27 28 26 26 27 26
46 46 46 46 46 47 47 46 47 47 47 47 47 48 47 47 41 37 35 41 46 44 32 27 28 41 47 43 39 38 39 36 34 31 30 35 33 31 19 12 28 31 28 28 29 29 25 25 25 28 27 27 28 26
46 46 46 46 46 46 46 46 47 47 47 47 47 47 47 47 44 37 41 46 46 40 35 22 26 31 42 32 32 36 33 33 33 31 32 32 30 23 16 24 26 28 29 30 30 31 28 28 30 29 30 28 25 23
46 46 46 46 46 45 46 46 46 47 47 47 47 46 40 37 32 36 47 47 43 39 30 26 21 23 38 34 33 33 33 23 32 27 30 34 30 20 19 24 23 28 28 27 31 31 30 30 29 29 27 26 23 21
45 45 45 45 45 45 46 46 46 47 47 47 41 36 30 37 46 46 39 33 34 36 36 26 29 25 36 27 27 28 29 25 26 29 33 27 24 28 30 30 31 32 33 33 30 28 29 27 26 25 24 24 22 20
45 45 45 45 45 45 46 46 46 47 45 38 34 33 40 45 40 36 29 30 27 28 30 30 34 23 35 26 26 30 24 26 23 29 30 27 22 26 30 30 32 34 34 33 34 31 30 27 24 22 22 22 21 19
46 45 45 45 45 46 46 46 46 40 37 39 39 41 40 35 32 30 27 26 27 25 28 32 27 32 32 35 27 29 26 25 22 33 30 24 23 28 29 29 29 31 30 29 30 28 27 26 24 22 21 18 15 13
45 45 45 45 45 46 46 46 46 45 43 41 37 33 32 31 25 24 18 23 17 25 29 26 24 32 30 32 25 26 27 19 32 27 26 23 26 28 27 27 25 26 26 25 24 24 23 21 20 16 12 7 8 6
45 45 45 45 45 45 45 45 43 41 38 33 31 25 26 23 26 22 21 20 26 25 28 25 25 27 25 26 25 27 26 31 25 18 21 22 25 26 27 27 24 20 18 18 15 15 13 11 7 4 5 3 4 0
45 45 45 45 45 45 45 44 43 38 34 30 31 22 24 27 31 32 33 28 27 27 27 27 26 27 23 28 31 30 25 24 21 18 22 24 26 23 22 21 17 15 14 13 12 11 8 7 7 3 -1 0 2 -2
45 44 40 45 45 45 44 40 37 37 33 31 31 29 31 31 30 31 32 32 34 29 27 28 25 20 21 22 27 22 22 17 23 25 24 25 23 19 19 19 18 16 14 11 10 9 9 7 9 7 2 2 -1 -0
43 36 44 45 44 43 43 33 34 31 29 29 30 29 31 31 30 31 32 34 33 28 28 25 22 22 28 25 23 23 18 23 25 25 26 26 23 16 15 16 16 15 13 12 10 10 7 5 7 10 10 8 9 12
35 41 45 45 42 39 32 34 32 31 27 29 27 29 31 32 32 32 32 34 34 28 27 27 28 24 26 21 20 27 27 25 25 26 25 22 20 16 19 17 17 16 14 12 12 11 11 11 14 14 17 18 17 18
39 41 43 44 38 30 25 26 32 27 29 30 29 30 31 31 32 29 31 33 34 33 30 27 26 22 17 27 28 25 27 18 23 19 23 22 20 18 18 18 17 16 16 15 18 18 18 20 19 20 21 21 17 17
44 43 43 44 41 33 30 30 34 30 24 24 30 29 29 29 30 31 31 32 33 32 30 26 22 27 27 22 25 27 20 22 21 19 18 21 20 20 19 20 20 19 19 20 21 19 20 19 20 19 17 16 11 9
41 40 43 39 34 34 32 31 29 29 27 25 28 30 24 28 29 29 29 33 30 29 23 22 21 17 23 22 25 26 24 24 22 20 20 19 21 21 22 23 22 20 18 17 16 15 17 17 17 16 10 7 4 5
38 41 33 36 30 32 30 33 31 29 27 26 30 30 24 25 26 28 31 29 29 25 23 23 23 21 22 24 23 27 27 27 25 23 22 22 20 21 21 21 20 15 15 15 16 13 11 16 17 15 11 5 7 6
39 36 33 32 28 27 23 34 27 28 21 27 28 24 22 25 29 32 27 29 26 23 23 24 26 29 27 26 28 29 30 28 24 23 22 22 20 17 19 18 17 16 16 17 20 18 14 13 12 8 4 3 0 -1
38 30 29 27 25 18 27 27 30 29 27 27 26 22 25 26 29 26 25 22 21 20 22 24 27 24 24 26 23 24 27 27 23 19 22 22 20 20 22 21 20 21 21 19 19 15 13 9 7 5 -1 -2 -3 -2
23 22 28 25 28 23 21 22 23 25 18 20 18 16 24 27 20 23 23 19 20 19 15 21 23 24 19 15 19 22 25 27 23 21 16 23 19 22 20 20 18 17 19 16 12 11 4 -1 -2 -0 -2 -4 1 -2
24 23 22 24 18 20 21 18 18 20 20 21 18 21 18 23 23 17 20 24 25 26 27 26 24 22 22 23 21 23 24 27 26 22 22 25 24 19 16 15 13 12 12 15 10 8 7 4 2 1 -1 0 -1 -5
22 22 24 28 26 26 18 18 24 19 14 16 20 14 23 21 20 16 17 22 24 20 28 30 30 28 23 23 23 23 23 23 22 20 18 17 17 18 20 14 10 9 7 10 8 11 8 4 -1 -2 -3 -6 -6 -5
19 20 17 20 19 22 16 16 15 14 14 23 22 20 19 18 13 13 14 19 24 25 26 27 29 27 23 22 21 19 18 18 17 17 17 15 14 11 11 12 13 12 7 6 5 5 4 4 1 -2 -3 -4 -7 -10
15 19 20 16 17 19 15 20 20 15 17 17 15 9 7 13 12 11 16 20 26 20 19 20 21 21 20 20 20 20 19 20 19 14 10 6 6 9 6 7 5 6 7 8 12 7 6 3 -1 -3 -4 -4 -5 -7
16 20 16 15 15 13 10 12 9 7 13 15 16 15 12 8 9 9 17 20 17 14 14 19 21 21 19 19 16 16 16 17 18 18 13 7 6 5 3 4 3 2 4 5 3 2 9 -1 2 -2 -3 -6 -10 -12
23 24 21 19 15 15 18 18 12 9 8 14 13 11 8 8 8 8 11 11 14 18 21 19 19 20 19 16 16 15 12 14 14 15 14 13 12 9 6 5 6 6 4 3 0 -1 -3 -5 -6 -5 -7 -12 -16 -19
20 20 17 13 13 17 18 15 12 10 10 9 8 4 3 3 2 5 12 16 17 11 13 19 18 16 17 17 16 16 16 15 15 14 14 13 12 10 9 8 8 7 4 1 -1 -3 -3 -5 -6 -10 -14 -19 -22 -23
16 15 14 13 11 10 13 14 15 13 11 9 4 2 5 6 2 6 11 14 13 16 16 14 15 16 16 15 14 14 14 13 13 14 13 12 10 10 8 5 4 4 2 -1 -3 -4 -5 -7 -11 -16 -20 -23 -25 -26

GFSWCAN_sfc_temp_105.txt.gz
Temp
48 48 48 48 48 48 49 48 48 48 48 48 48 48 49 49 48 41 37 40 36 28 33 38 39 32 32 30 23 31 28 30 28 25 27 25 25 28 27 30 28 25 23 22 25 23 19 27 30 25 26 28 26 24
48 47 48 48 47 48 48 48 48 48 48 48 48 48 48 49 48 44 36 40 39 33 33 36 38 39 38 38 31 33 30 30 27 26 29 29 25 26 24 18 32 23 25 23 23 20 26 28 26 29 30 27 25 24
48 47 48 47 47 48 48 48 47 47 47 48 48 48 48 48 48 45 37 36 35 29 32 34 36 40 43 41 41 31 32 36 34 35 30 30 28 31 26 22 26 27 31 24 23 24 26 26 27 28 27 25 26 26
47 47 47 47 47 47 47 47 47 47 47 47 48 48 48 48 48 44 37 37 35 31 26 32 44 40 46 44 41 40 39 38 36 33 30 27 30 34 28 26 23 25 28 25 23 24 26 26 26 26 27 27 26 25
46 46 47 47 47 47 47 47 47 47 47 48 48 48 48 48 47 41 38 38 39 33 25 29 37 43 45 43 42 40 39 34 30 29 28 30 34 33 27 28 21 28 24 19 21 25 25 22 27 28 25 24 26 25
47 47 47 47 47 47 47 47 47 47 47 47 48 48 48 47 45 37 30 39 40 37 29 22 34 38 41 42 40 39 37 34 31 30 29 31 40 31 25 21 27 25 29 27 25 27 26 26 27 28 25 25 26 24
46 46 46 46 46 47 47 47 47 47 47 47 47 47 47 47 40 36 32 41 44 38 29 23 27 40 43 41 36 36 36 33 32 30 30 35 34 29 22 18 27 26 25 27 29 28 24 26 23 27 27 27 27 25
46 46 46 46 46 46 46 46 47 47 47 47 47 47 47 47 43 37 38 47 43 35 34 21 26 33 41 31 31 33 31 31 32 30 30 31 33 23 19 25 29 30 29 28 28 30 27 27 27 26 27 25 23 22
46 46 46 46 46 46 46 46 46 47 47 47 47 45 40 36 32 35 46 44 39 35 25 23 21 25 36 31 31 31 31 22 31 26 28 34 28 20 20 26 27 27 27 26 29 29 28 27 26 25 25 24 22 20
45 45 45 45 46 46 46 46 46 47 47 46 40 33 28 34 45 45 37 30 29 31 36 24 27 23 32 25 26 26 27 24 26 29 31 26 23 29 25 27 28 30 30 31 26 25 27 25 25 24 24 23 22 21
45 45 45 45 45 45 46 46 46 46 44 36 34 33 39 45 39 35 30 29 27 25 29 26 28 23 33 25 25 28 23 25 22 28 28 25 22 25 29 29 31 32 33 32 31 30 30 29 25 23 22 22 20 18
46 45 45 45 45 46 46 46 46 39 36 38 39 42 40 36 32 30 27 26 28 24 25 25 26 30 31 32 26 28 25 24 21 32 29 22 20 27 28 28 29 30 30 30 30 28 27 26 25 23 20 18 14 12
45 45 45 45 45 46 46 46 45 45 44 41 37 32 31 31 24 24 16 24 16 24 27 24 23 29 28 31 24 26 20 18 30 25 25 21 25 27 26 26 26 27 28 27 25 25 24 22 20 16 12 5 7 6
45 45 45 45 45 45 45 45 44 41 38 33 30 24 25 22 27 19 20 19 25 23 25 25 24 26 25 25 20 18 24 28 18 18 20 19 25 25 26 27 25 21 20 20 17 16 14 11 5 3 4 1 4 -0
45 45 45 45 45 45 44 44 43 38 34 29 31 22 24 25 29 31 32 30 28 25 27 26 25 26 22 27 30 26 22 20 18 17 16 21 25 25 23 21 18 16 14 13 11 10 6 5 7 1 -4 -2 1 -3
45 44 39 45 45 44 44 41 37 37 33 31 30 28 29 29 29 31 31 31 33 29 25 29 25 21 23 20 26 19 19 16 17 16 21 22 22 21 20 20 18 15 14 11 10 9 8 6 7 5 0 -2 -4 -2
42 34 44 44 44 43 42 34 32 29 29 28 29 28 31 31 29 31 32 33 33 28 22 27 18 20 26 23 23 22 15 21 22 25 26 26 23 16 15 16 16 15 13 10 8 9 5 4 6 9 8 5 7 9
33 40 45 43 41 38 32 32 32 30 27 28 26 27 30 32 32 32 32 33 33 30 27 26 30 27 25 20 17 17 18 25 26 25 24 23 21 15 17 14 14 15 13 11 11 10 8 8 12 12 16 16 15 16
39 41 43 44 38 29 22 27 31 24 28 29 29 30 30 30 31 31 31 32 34 33 28 25 24 22 18 22 22 15 12 17 22 20 22 22 22 18 15 15 14 13 14 13 16 16 15 18 18 17 18 19 14 14
43 43 44 43 41 29 26 28 33 30 23 23 30 29 29 29 30 31 31 31 33 32 29 24 21 19 21 21 22 20 17 20 22 20 18 17 20 18 17 18 17 17 17 18 19 18 18 17 17 17 15 15 10 9
40 41 43 37 31 33 31 30 29 30 27 24 29 30 27 29 29 29 30 32 30 29 22 21 17 16 19 21 23 23 23 23 18 19 16 16 18 20 19 19 20 19 17 16 15 13 14 14 15 15 5 3 3 6
37 39 34 35 29 31 30 32 31 29 25 28 29 30 20 21 18 24 26 25 28 24 23 21 21 20 21 23 22 26 25 26 23 21 19 21 19 19 20 19 18 14 15 13 15 13 12 14 14 12 6 2 4 4
39 36 30 31 27 27 25 33 27 27 20 27 28 23 17 17 21 29 23 27 25 22 23 23 25 28 26 25 26 27 28 26 22 22 21 21 21 18 18 17 17 14 13 14 16 13 8 10 10 8 6 3 -1 -3
37 28 25 23 25 15 25 25 30 27 23 23 25 23 22 21 28 24 24 23 21 18 21 23 24 22 23 24 21 22 23 24 21 17 20 21 19 19 19 18 18 19 17 18 17 13 13 10 9 7 -0 -4 -6 -6
21 17 26 19 26 23 19 19 22 22 13 24 23 18 24 26 18 21 21 20 20 13 13 18 21 21 19 13 16 18 22 24 21 19 16 20 17 20 18 17 16 15 18 16 12 12 5 2 -1 -1 -4 -4 -2 -5
17 16 23 23 15 19 20 14 15 16 21 18 15 20 17 25 21 16 20 17 26 17 23 24 17 20 20 21 19 19 20 24 24 19 20 23 22 18 15 15 12 12 13 15 14 11 7 1 -0 0 -3 -2 -5 -7
21 21 24 29 26 26 19 18 23 20 21 19 21 15 14 14 13 17 15 18 22 25 25 28 28 27 25 22 21 21 22 22 21 20 17 16 16 18 20 17 14 11 7 11 10 10 6 4 2 0 -1 -9 -9 -9
19 19 20 23 23 22 17 14 15 14 14 20 19 13 16 17 14 9 12 17 22 25 24 23 23 23 21 20 20 18 16 16 16 17 17 15 13 12 14 13 12 11 5 3 4 6 6 4 2 0 -0 -3 -9 -13
15 14 18 14 17 20 19 17 17 15 16 17 16 10 9 10 7 6 10 15 22 22 17 15 17 19 19 19 19 18 19 20 20 16 12 9 9 9 6 8 6 5 6 8 10 6 5 4 1 0 -2 -4 -9 -11
14 18 14 12 18 18 11 12 10 10 11 11 13 13 10 6 5 6 11 11 13 7 5 8 13 19 18 16 15 15 16 16 17 19 15 11 10 9 6 7 5 4 7 8 8 7 9 2 2 -6 -7 -11 -15 -19
22 21 16 13 10 8 10 13 14 17 10 8 7 6 5 2 5 5 7 9 10 12 15 15 16 16 17 16 16 16 13 14 16 14 13 13 11 8 7 7 6 6 6 5 3 1 -2 -7 -6 -9 -12 -15 -21 -24
21 20 15 11 10 14 17 17 17 15 8 8 7 0 2 2 4 3 9 9 12 12 11 15 15 11 16 17 16 16 16 14 13 13 13 12 10 8 7 7 6 5 3 0 -2 -5 -5 -7 -10 -13 -16 -22 -26 -27
16 13 14 14 13 13 14 15 15 13 9 5 2 -1 2 5 5 5 9 10 10 11 11 13 15 15 14 14 13 13 13 14 15 16 14 12 10 9 7 6 5 3 0 -4 -6 -7 -7 -9 -14 -21 -23 -26 -28 -29

GFSWCAN_sfc_temp_108.txt.gz
Temp
47 47 48 48 47 48 48 48 48 48 48 48 48 48 49 49 48 41 36 38 36 29 33 37 38 32 31 29 24 30 27 29 27 24 26 24 24 24 27 28 26 24 22 21 25 23 19 27 30 25 24 26 25 23
47 47 47 47 47 48 48 47 47 48 48 48 48 48 48 48 48 44 35 38 38 34 33 36 37 38 36 36 31 32 29 29 26 26 29 26 26 28 23 18 30 23 24 22 21 19 25 27 26 28 29 25 24 23
47 47 47 47 47 47 47 47 47 47 47 48 48 48 48 48 48 43 35 35 35 32 33 34 34 38 41 40 39 30 30 34 32 33 30 28 28 31 26 21 25 27 30 23 22 24 24 26 27 27 27 24 24 24
47 47 47 47 47 47 47 47 47 47 47 47 48 48 48 48 48 44 36 36 35 32 27 32 42 38 42 41 39 39 37 36 34 32 29 29 28 35 25 25 23 25 27 25 22 24 25 25 24 26 25 25 23 24
47 46 46 47 47 47 46 46 46 47 47 47 48 48 48 47 46 41 38 37 38 34 27 30 36 41 43 41 40 39 37 33 29 28 27 30 33 32 24 27 20 28 25 18 14 24 23 24 22 26 23 22 23 24
47 46 46 46 46 46 46 46 46 47 47 47 48 48 47 47 44 37 31 39 39 36 30 23 33 36 39 40 38 37 35 32 30 29 28 30 39 28 16 19 27 25 30 27 24 26 24 26 25 25 25 24 25 24
46 46 46 46 46 46 46 46 46 46 47 47 47 47 47 46 40 35 33 37 43 37 28 23 28 37 40 38 34 34 34 31 31 29 29 33 33 30 16 16 26 25 27 27 28 28 24 23 22 25 25 26 26 24
46 46 46 46 46 46 46 46 46 46 47 47 47 47 46 46 43 36 39 45 40 33 31 21 28 33 41 31 30 31 30 30 30 29 29 30 31 26 18 23 25 25 25 27 28 28 27 26 26 25 25 25 22 21
46 46 45 46 46 46 46 46 46 47 47 47 46 45 39 36 33 35 45 43 37 34 24 22 23 24 34 30 30 30 30 22 30 25 27 33 28 18 20 27 27 27 27 26 27 26 26 26 24 24 24 23 21 20
45 45 45 45 45 45 46 46 46 46 46 46 39 33 26 35 45 44 37 29 29 30 31 23 26 29 32 25 25 26 27 24 26 31 31 25 19 29 25 28 29 29 29 29 25 24 25 24 23 23 23 23 22 20
45 45 45 45 46 46 46 46 46 46 44 36 32 33 39 45 36 31 24 23 24 24 27 25 27 25 32 24 29 29 24 25 21 26 28 23 20 26 27 28 30 30 31 30 30 30 29 27 25 23 22 22 21 19
46 46 46 46 46 46 46 46 45 38 35 37 39 41 39 35 32 28 25 27 27 24 24 24 25 30 31 32 26 28 24 23 20 32 27 21 21 28 29 29 30 31 30 30 30 28 27 27 25 23 21 18 15 12
45 46 46 45 45 46 46 45 45 45 43 41 37 33 30 30 24 16 15 23 18 23 24 23 22 27 27 30 24 25 17 16 30 27 25 21 27 28 28 27 27 29 30 28 27 27 26 23 21 17 12 7 7 4
45 45 46 45 45 45 45 44 44 41 38 32 30 23 23 21 26 19 19 18 23 22 23 24 24 25 24 25 18 17 20 24 14 16 20 19 27 26 27 27 26 24 23 23 21 20 16 13 7 4 5 3 3 1
45 45 45 44 44 45 44 44 43 37 33 29 30 23 23 25 28 25 30 30 30 23 26 26 25 29 25 25 25 21 20 15 16 16 15 17 25 25 23 22 21 19 18 17 16 12 9 6 6 0 -5 -3 2 -1
45 43 40 44 45 45 43 40 36 36 31 30 30 27 28 28 28 30 31 31 32 31 25 28 28 23 23 19 26 17 18 14 16 18 19 16 21 22 21 21 19 17 16 13 11 10 8 6 7 5 -1 -3 -5 -2
42 34 44 44 43 42 42 33 29 28 27 28 27 28 31 30 28 30 31 32 33 31 19 27 17 19 25 22 21 20 15 16 15 22 25 23 19 18 18 17 17 16 13 12 9 9 5 4 5 8 8 3 6 8
32 39 44 43 39 36 31 29 32 28 27 28 23 28 29 32 31 30 31 32 33 31 30 25 29 28 21 16 16 15 25 25 22 23 23 24 21 15 18 17 17 16 14 11 11 8 7 8 12 11 14 14 14 14
37 41 44 43 37 28 22 25 30 23 27 27 28 29 29 30 30 30 31 32 34 34 28 24 24 21 18 16 18 18 14 19 22 21 16 21 21 18 15 14 14 14 14 13 15 14 14 17 16 16 16 17 12 12
43 43 43 43 40 28 25 27 33 30 24 26 30 29 28 28 29 30 31 31 32 31 29 22 19 19 20 19 20 20 17 20 22 20 19 14 20 18 15 17 16 16 15 17 18 16 16 15 16 16 14 14 9 8
39 39 41 36 31 32 29 30 28 30 30 26 30 31 27 29 28 29 29 32 30 25 21 20 16 14 17 18 22 21 20 22 19 20 18 16 15 18 18 17 18 18 16 16 15 13 13 14 14 14 4 1 -1 1
36 40 34 34 29 29 28 31 30 31 28 29 29 30 22 20 24 27 27 23 23 22 21 20 20 19 21 23 22 25 23 25 22 18 17 19 18 17 17 16 17 14 14 13 15 12 11 13 12 10 3 -2 3 3
38 35 28 29 22 24 20 32 26 28 23 26 28 25 17 14 20 28 16 22 21 20 20 21 24 28 25 24 25 26 27 25 21 19 18 17 18 16 17 16 15 14 12 12 16 13 9 8 7 7 5 0 -2 -6
37 27 16 20 21 12 25 23 28 26 23 24 20 16 18 19 27 18 17 20 19 16 19 22 22 21 22 23 19 20 21 21 18 14 17 19 18 18 19 18 16 16 16 16 17 12 9 5 7 7 2 -2 -10 -9
21 19 19 18 25 22 20 18 22 21 18 22 15 12 17 25 19 13 17 20 13 17 11 16 20 19 21 22 22 18 20 22 19 17 15 19 18 19 18 17 14 14 17 15 9 8 7 7 6 5 -2 -5 -2 -8
10 12 17 16 21 20 20 13 12 12 12 11 14 19 17 24 20 14 19 14 16 25 16 24 24 21 24 25 22 19 19 22 22 16 18 21 21 19 16 14 12 11 12 14 14 11 8 6 5 1 -6 -5 -5 -6
19 12 21 26 25 22 14 12 19 18 19 16 15 14 13 11 13 18 16 16 17 21 25 26 27 27 25 23 22 20 20 21 20 18 18 17 17 18 18 16 13 13 12 14 14 13 10 5 1 -1 -7 -13 -12 -7
21 22 17 23 24 23 12 9 9 13 17 20 19 15 14 14 16 12 12 12 17 24 23 21 23 24 21 17 18 16 15 16 16 17 17 15 12 11 12 12 12 14 10 10 9 7 7 4 1 -1 1 -1 -10 -14
17 16 21 18 19 22 23 20 18 16 18 19 17 12 12 11 6 5 8 11 19 23 16 15 18 17 16 17 18 18 18 20 19 16 12 9 8 9 9 10 10 9 10 10 12 8 5 5 3 1 -3 -7 -13 -16
12 14 11 8 13 16 16 16 15 13 15 14 14 12 10 5 3 5 6 6 12 10 7 8 7 11 12 13 13 14 14 14 16 18 15 11 10 9 9 10 9 10 12 11 9 7 8 2 0 -9 -12 -15 -18 -19
19 16 9 8 7 5 8 8 7 12 13 12 10 11 9 2 4 2 4 4 5 7 10 10 10 12 16 16 16 16 13 13 16 16 14 12 11 9 8 7 7 7 7 6 3 0 -2 -5 -8 -12 -13 -15 -21 -24
16 18 14 7 5 10 13 12 12 10 3 5 5 -1 1 3 7 2 6 5 8 9 6 7 9 7 14 17 16 16 16 13 12 13 13 12 10 8 8 7 6 5 3 1 -0 -2 -5 -9 -12 -13 -15 -19 -25 -28
15 13 12 14 11 10 11 14 12 10 6 4 2 -3 -2 5 8 3 5 6 7 7 7 9 12 13 13 12 12 13 13 14 15 15 13 12 10 10 7 6 5 3 1 -2 -4 -5 -8 -10 -15 -19 -20 -23 -29 -30

GFSWCAN_sfc_temp_111.txt.gz
Temp
47 47 47 47 47 47 48 48 48 48 49 49 49 49 49 48 47 42 37 38 39 32 35 40 40 35 34 35 31 33 33 34 32 29 30 28 26 29 29 29 27 25 23 24 26 24 20 28 30 26 26 27 26 24
46 46 46 47 47 47 47 48 48 48 48 48 48 49 49 49 48 44 37 40 40 36 36 38 40 41 42 40 35 34 34 32 33 31 32 31 28 31 27 24 32 25 25 23 23 22 26 28 27 30 31 27 25 25
47 46 47 47 47 47 47 47 47 47 48 48 48 48 48 48 47 44 36 37 38 35 36 37 37 42 44 43 43 35 35 38 35 38 36 33 29 33 27 26 27 29 31 25 25 25 25 26 28 29 29 26 27 26
47 47 47 47 47 47 47 47 47 47 47 48 48 48 48 48 47 44 37 37 38 36 30 35 44 40 44 45 43 42 39 38 38 38 35 34 31 36 28 29 27 28 30 27 23 25 26 26 27 27 26 26 25 25
47 47 46 46 46 46 46 47 47 47 47 48 48 48 48 47 46 43 39 38 39 38 31 34 38 42 43 44 42 42 40 37 37 35 34 32 34 32 30 31 26 30 26 24 24 27 27 25 27 28 25 24 25 25
46 46 46 46 46 46 46 46 47 47 47 47 47 48 47 47 44 38 33 40 41 39 35 29 36 39 43 43 41 40 39 36 36 36 34 35 39 34 26 25 28 28 31 30 26 29 27 27 27 28 26 26 27 26
46 46 46 46 46 46 46 46 46 47 47 47 47 47 47 46 42 36 34 40 43 40 34 30 33 39 42 40 37 38 37 36 37 35 34 36 35 33 25 25 27 28 28 28 30 29 25 27 25 28 28 28 28 27
46 46 46 46 46 46 46 46 46 46 47 47 47 47 47 46 43 38 40 44 42 36 35 27 31 35 40 35 34 35 35 36 35 34 35 34 33 31 25 24 26 28 28 29 29 31 31 29 29 27 28 27 25 23
45 45 46 46 46 46 46 46 46 47 47 46 46 45 40 36 34 37 45 43 39 36 28 28 29 27 37 33 34 35 35 31 34 32 33 35 31 27 26 26 25 27 28 28 29 28 28 27 26 26 26 26 24 23
45 45 45 45 45 45 45 46 46 46 46 45 40 34 29 37 44 43 37 32 31 32 33 28 30 30 35 31 31 32 32 30 30 32 35 31 29 30 31 32 31 31 31 31 26 24 27 25 25 25 25 27 26 24
45 45 45 45 45 45 46 46 46 46 44 37 34 33 40 44 38 33 26 26 28 27 31 30 32 31 35 31 32 32 29 29 25 30 30 28 27 28 29 31 33 33 32 32 33 32 32 29 27 25 25 25 24 23
46 46 45 45 45 46 45 46 45 39 36 39 38 42 39 36 31 26 25 27 28 27 28 30 31 34 33 35 33 31 28 28 24 33 29 26 27 29 30 31 31 32 33 32 33 31 30 29 28 26 24 22 20 17
45 45 45 45 45 46 45 45 45 45 43 40 37 33 31 30 22 18 15 24 23 27 28 29 29 32 33 34 29 30 25 24 31 27 28 27 29 30 30 31 31 33 33 31 30 30 29 26 25 22 17 14 12 10
45 45 45 45 45 45 45 45 45 43 37 33 28 23 21 22 24 22 24 23 27 27 29 30 29 31 29 29 25 24 26 28 22 21 23 27 29 29 29 29 29 27 27 26 24 23 20 17 14 13 12 10 9 7
45 45 45 45 45 45 44 44 43 37 33 29 29 23 24 27 29 29 30 31 30 29 30 31 30 32 27 26 28 25 22 20 22 24 26 26 28 27 26 27 25 24 22 22 21 19 15 13 12 8 7 9 9 6
44 43 41 45 44 44 43 40 37 36 31 30 30 28 28 29 30 32 32 31 32 32 30 32 30 25 24 24 26 20 22 20 26 25 27 22 25 25 25 25 23 22 21 18 17 16 13 12 12 10 6 8 7 8
42 38 43 43 43 42 42 34 32 29 28 28 27 28 31 30 29 31 32 32 34 32 27 29 21 22 27 23 22 25 24 26 24 27 27 23 24 23 22 22 20 19 17 16 14 14 12 10 10 11 12 10 11 12
36 42 44 43 39 36 30 31 31 29 27 27 26 29 30 32 31 31 32 33 34 32 31 28 30 27 22 20 24 26 27 28 26 26 27 26 23 20 22 21 20 19 17 15 15 13 11 12 15 18 18 16 17 17
40 40 43 43 38 30 25 27 31 24 27 28 29 30 30 30 31 32 32 33 34 34 31 30 27 25 26 25 27 26 23 27 25 24 22 24 24 20 18 19 18 18 16 15 17 18 18 19 21 21 21 21 20 20
44 43 43 42 39 29 26 27 34 31 25 28 30 29 29 29 30 31 31 32 33 33 29 26 25 27 27 28 27 29 26 24 25 23 22 20 22 20 19 20 21 19 19 20 20 19 20 20 22 22 22 22 21 20
38 38 40 35 31 29 29 29 29 30 30 27 30 30 27 30 29 29 30 33 32 28 26 27 25 25 23 25 27 26 24 26 25 27 25 20 20 22 20 21 21 20 20 20 19 19 19 21 22 22 20 20 18 19
36 39 31 33 29 29 27 32 31 31 29 29 29 31 26 22 27 28 31 25 27 26 27 27 27 25 25 26 26 28 26 26 24 21 19 20 19 19 19 20 20 18 19 19 20 19 20 21 21 20 18 14 14 16
38 34 28 29 22 19 20 32 27 29 25 26 29 26 21 18 22 29 22 25 25 24 24 26 27 29 27 26 26 27 28 27 24 23 21 22 22 21 20 20 21 18 18 19 22 20 20 17 15 16 14 15 15 12
37 26 17 19 21 14 24 21 29 26 26 24 23 18 19 24 28 22 21 23 24 21 24 24 26 25 25 25 24 24 25 25 22 19 22 22 20 20 21 21 21 22 23 21 21 20 18 17 14 15 14 13 12 12
25 20 16 7 25 20 20 16 20 20 14 19 18 13 22 27 19 18 19 21 20 24 21 21 24 24 27 26 25 24 22 25 23 20 20 23 21 20 20 20 20 21 21 18 16 16 15 15 15 14 13 13 10 9
9 11 15 13 21 20 20 17 18 13 12 11 15 18 20 21 20 15 20 17 21 26 20 22 25 26 26 26 25 24 24 25 24 21 21 23 23 21 19 18 18 18 20 22 18 16 15 14 13 11 9 7 3 5
10 11 20 25 25 22 15 13 21 16 13 12 14 18 14 14 16 18 18 18 19 23 25 27 27 28 27 25 23 22 23 23 22 21 20 20 20 23 23 20 20 22 19 21 19 18 15 14 12 9 5 3 4 7
19 18 17 17 23 23 16 10 9 13 16 22 19 16 13 15 18 20 19 18 18 23 24 23 23 25 25 22 19 18 17 18 17 18 18 17 15 15 15 16 18 18 19 19 18 17 16 13 9 7 7 4 -0 0
20 17 20 16 18 20 20 21 19 19 19 20 18 16 17 18 14 14 15 16 16 23 20 19 18 18 18 18 18 19 20 21 21 17 16 15 16 14 13 14 14 14 15 14 14 12 11 10 8 6 2 -1 -5 -6
15 15 12 10 13 18 21 17 19 18 19 19 18 17 16 14 12 9 12 13 16 20 20 21 19 19 15 15 15 17 18 20 22 23 19 16 17 12 14 14 14 15 15 13 10 7 7 3 2 -2 -4 -5 -5 -7
18 15 9 9 11 10 10 7 6 9 8 10 10 15 12 9 10 9 10 9 9 9 14 14 15 18 16 16 17 17 17 17 18 18 17 15 14 13 12 12 12 12 10 8 6 5 2 1 -0 -3 -4 -7 -10 -9
18 17 13 9 8 9 10 9 10 10 6 5 6 0 5 7 11 9 10 9 12 14 11 13 14 15 17 19 19 18 17 15 14 14 15 14 12 11 11 10 10 9 7 6 4 3 1 -0 -2 -4 -7 -9 -11 -12
14 13 15 15 11 11 12 15 13 10 5 4 4 1 2 7 11 7 9 9 10 13 12 12 13 14 14 15 15 15 15 15 15 15 14 13 11 11 10 9 8 7 5 3 1 -0 -2 -4 -6 -8 -10 -12 -14 -15

GFSWCAN_sfc_temp_114.txt.gz
Temp
45 45 45 45 45 46 46 46 47 47 47 47 47 48 48 49 49 52 44 47 50 42 43 47 47 44 44 47 40 42 41 40 40 36 39 38 33 34 34 35 31 30 30 31 33 30 26 33 34 29 29 32 31 31
45 45 46 46 46 46 47 47 47 47 47 48 48 48 48 48 48 51 45 50 54 47 41 47 46 48 51 51 46 44 43 42 44 43 43 39 31 33 33 29 36 28 32 33 29 28 30 32 31 36 36 32 32 31
46 46 46 46 47 47 47 48 48 48 48 48 48 49 49 49 49 52 47 51 52 44 45 48 44 49 53 51 53 46 47 46 44 49 42 40 32 39 32 35 32 31 32 29 30 28 29 31 33 36 36 32 33 32
46 46 47 47 47 47 47 47 47 47 48 48 48 48 48 48 49 52 48 49 54 49 37 39 51 47 51 54 53 53 49 48 49 50 43 39 34 42 33 36 36 33 33 29 26 28 30 30 31 31 31 31 30 30
46 46 46 46 47 47 47 47 47 47 47 48 48 48 48 49 49 51 49 50 51 51 39 41 48 48 52 53 51 52 50 48 48 45 41 35 38 38 39 40 34 35 31 30 31 32 33 29 30 32 29 29 30 29
46 46 46 46 46 46 46 46 47 47 47 47 48 48 47 46 47 53 39 53 52 58 45 36 45 46 50 51 50 49 49 49 51 49 41 40 43 40 33 36 31 31 32 34 31 35 34 31 31 34 31 31 32 32
46 46 46 46 46 46 46 46 46 47 47 47 47 47 47 47 48 44 42 47 48 57 44 37 38 46 49 49 49 49 49 49 50 47 45 42 42 42 37 33 29 30 31 33 36 34 27 30 29 33 33 33 34 34
46 46 46 46 46 46 46 46 46 47 47 47 47 47 47 48 49 46 48 47 51 50 49 36 35 41 48 44 42 49 47 49 47 47 46 44 41 42 32 28 30 31 32 33 35 37 35 36 34 33 35 35 32 31
45 45 45 45 45 46 46 46 46 46 46 47 46 47 49 45 43 46 45 47 52 49 38 40 34 31 47 44 45 45 49 39 46 42 42 42 39 33 32 30 30 31 33 32 34 37 36 33 32 33 33 33 32 30
45 45 45 45 45 45 45 45 46 46 46 47 48 43 33 42 45 47 48 42 43 44 45 37 44 34 44 42 41 42 44 40 35 39 44 38 37 36 36 37 37 36 37 36 31 29 32 31 31 32 33 34 33 31
45 45 45 45 45 45 45 45 46 47 47 45 39 36 45 45 47 42 33 35 39 35 42 40 40 37 45 38 37 43 37 38 32 34 34 34 35 35 37 38 39 38 37 38 38 37 37 35 33 32 32 32 31 30
46 46 45 45 45 45 45 45 46 45 42 43 45 47 47 42 37 33 30 33 36 33 38 37 40 44 42 47 42 40 35 35 28 36 32 31 35 36 38 38 38 38 37 36 38 36 36 35 34 33 31 29 28 26
45 45 45 45 45 45 45 45 45 45 46 49 44 36 38 34 29 28 24 28 30 35 37 38 35 42 42 47 37 37 29 30 39 29 32 35 35 36 37 37 36 38 38 36 35 35 35 33 33 30 27 23 20 19
45 45 45 45 45 45 45 45 45 45 46 37 33 27 29 27 30 31 32 33 34 37 38 41 36 40 40 36 33 29 31 35 27 26 28 36 33 32 33 34 35 33 32 32 31 30 28 25 23 23 21 19 17 15
45 45 45 45 45 44 44 44 43 46 40 33 36 26 29 31 33 32 33 34 34 40 41 39 38 41 35 31 35 32 26 25 30 32 35 35 33 32 31 31 32 31 29 29 28 25 23 20 20 18 18 19 18 14
44 44 43 44 44 44 44 44 44 44 38 36 34 31 32 33 32 33 34 33 39 40 42 42 34 29 27 32 29 26 28 28 33 34 33 32 30 31 31 31 30 30 29 28 27 25 22 20 19 19 18 17 16 16
44 39 43 43 43 42 42 42 40 33 34 33 31 33 33 33 32 33 36 37 42 40 32 37 29 26 33 28 26 34 31 34 33 32 35 31 30 30 30 28 27 26 26 25 23 23 22 20 17 18 18 17 19 19
42 43 44 44 44 43 38 38 36 36 30 32 32 31 33 33 34 35 36 38 41 39 37 33 38 31 29 28 32 35 34 32 31 32 33 30 30 29 30 28 26 26 25 23 23 20 19 18 22 24 24 22 23 23
43 45 43 42 43 41 35 35 37 30 30 33 34 35 35 34 36 37 37 38 40 42 40 35 31 34 34 36 35 32 31 32 31 31 30 29 29 28 28 27 26 25 23 22 23 25 26 27 30 30 28 27 28 28
42 42 42 41 44 40 32 32 41 35 31 32 35 33 34 33 34 34 35 36 38 40 36 34 35 37 38 38 39 38 37 35 34 32 30 30 30 27 27 28 29 27 26 26 27 27 27 28 30 30 30 30 29 27
40 40 42 43 41 41 37 35 32 33 33 31 33 33 31 35 33 33 34 37 37 37 36 39 36 35 33 34 37 38 35 36 36 37 36 31 30 32 29 31 29 30 29 28 27 27 27 29 29 30 27 28 29 29
40 41 41 41 37 36 34 36 33 35 33 32 32 34 30 29 30 31 35 35 35 38 38 39 38 38 35 32 36 36 35 34 32 30 29 30 29 29 29 29 29 28 29 29 29 27 29 31 30 29 28 26 27 26
40 41 38 37 30 30 27 37 31 31 28 30 33 29 29 29 31 35 30 35 36 36 36 37 35 35 35 32 33 33 34 34 35 35 31 34 34 31 31 30 31 29 28 29 31 30 29 28 27 27 26 26 24 22
40 33 28 27 29 23 29 29 34 31 31 29 28 23 27 28 31 29 28 35 35 34 34 31 35 32 32 31 35 34 33 35 33 30 32 32 30 29 31 30 31 31 32 31 30 29 27 27 25 25 25 24 24 22
30 25 27 21 28 24 23 25 26 27 24 25 23 26 26 31 27 26 27 33 32 30 30 30 33 35 33 33 33 31 28 34 33 31 29 33 31 28 28 29 29 30 31 28 27 26 26 25 25 24 23 23 21 20
23 24 25 24 24 23 24 20 22 24 26 23 25 29 29 28 24 26 32 30 31 30 29 29 30 33 33 33 31 28 28 31 33 31 30 31 31 29 27 25 24 24 29 29 27 25 24 24 23 22 21 20 17 17
22 23 28 31 30 27 25 26 28 26 22 22 27 25 26 21 23 31 30 30 31 29 30 30 29 33 34 31 28 29 30 31 31 31 30 30 31 33 31 28 26 28 28 28 28 27 24 23 21 21 19 18 17 17
27 27 23 26 26 29 25 25 25 24 28 31 29 24 23 25 29 30 30 28 28 29 29 29 29 31 32 29 28 27 25 24 24 26 26 26 25 25 25 27 27 26 28 28 28 26 25 23 20 18 16 14 12 15
24 28 28 22 25 27 27 27 28 31 32 31 28 29 29 30 27 28 28 28 27 28 28 28 27 27 26 27 27 27 27 27 26 23 24 23 23 21 23 24 24 24 23 22 22 23 22 20 18 16 13 11 9 8
25 28 26 22 22 25 29 28 28 26 28 28 27 27 27 26 25 23 25 26 27 28 28 28 28 27 26 26 24 24 27 28 29 28 25 24 25 21 22 22 21 22 21 20 17 14 11 9 8 7 6 6 6 4
26 26 24 25 24 26 23 22 23 24 24 24 22 24 27 23 24 22 22 21 21 22 24 26 26 26 25 24 26 24 23 26 26 26 26 23 22 21 21 20 20 20 18 17 15 14 12 11 10 8 7 4 2 2
24 24 23 20 23 22 22 23 24 24 23 22 24 19 21 21 24 21 18 18 21 22 21 23 25 24 26 27 26 26 25 23 22 21 21 21 19 19 19 18 18 17 16 15 14 12 11 10 9 6 4 2 0 -1
21 22 22 22 20 19 21 21 21 20 20 20 21 18 20 20 21 18 20 18 17 19 22 22 22 23 22 22 22 21 21 21 20 19 18 17 17 17 17 17 16 15 14 13 11 10 9 7 5 3 1 -2 -3 -3

GFSWCAN_sfc_temp_117.txt.gz
Temp
45 45 46 49 49 48 48 49 49 49 50 51 51 50 49 49 50 51 44 51 51 43 46 49 53 50 52 51 43 47 44 45 43 37 39 41 39 40 38 41 37 36 33 32 35 31 27 38 39 31 33 38 39 37
45 45 45 46 47 47 47 48 48 48 48 47 48 49 49 49 50 51 44 53 57 51 48 54 54 57 57 59 53 49 48 47 47 45 46 46 38 38 38 33 43 33 38 33 33 30 33 36 36 40 41 37 36 34
46 45 45 45 46 46 46 46 47 47 47 47 48 48 47 48 50 49 51 56 55 46 48 52 47 53 58 59 61 48 52 54 49 55 46 46 34 43 36 39 38 36 39 37 33 31 32 34 38 41 40 36 37 36
46 46 46 46 46 46 46 46 46 47 47 47 47 47 48 50 52 56 56 60 57 52 39 41 56 51 58 59 58 58 55 54 56 55 43 41 37 46 37 41 42 38 38 34 30 31 33 33 35 35 35 35 34 34
46 46 46 46 47 47 47 47 47 47 47 48 48 50 51 52 53 56 57 59 60 54 41 42 50 54 58 57 56 57 55 53 53 47 42 38 42 40 41 44 39 41 34 33 31 35 36 31 33 35 33 32 33 33
46 46 46 46 46 47 47 47 47 47 48 48 49 49 49 49 55 58 41 58 62 60 47 37 50 50 54 56 55 54 55 56 57 53 43 45 47 44 35 36 34 35 35 38 34 40 36 33 34 37 35 35 36 36
46 46 46 46 46 47 47 47 47 47 47 48 48 49 49 49 53 49 46 52 53 62 48 40 41 50 54 53 54 53 54 55 55 53 46 42 44 43 37 34 33 33 34 39 40 36 30 33 31 36 37 38 38 39
46 46 46 46 46 46 46 46 47 47 47 48 48 49 50 50 52 51 51 51 53 57 54 40 38 42 52 47 46 55 50 53 52 52 51 47 45 43 33 31 33 34 36 38 38 42 38 39 38 37 39 39 37 36
45 45 45 45 45 46 46 46 46 47 47 48 49 51 54 53 50 50 45 50 60 56 43 42 36 32 51 49 49 50 53 42 52 46 48 48 44 35 34 32 32 35 35 36 39 41 40 37 37 37 38 38 36 36
45 45 45 45 45 45 45 46 46 47 47 50 54 47 34 48 45 48 54 45 48 50 50 42 48 38 48 46 45 45 49 43 37 44 49 41 40 41 42 42 41 40 42 41 37 34 36 35 36 37 37 39 38 36
45 45 45 45 46 46 46 46 46 48 50 53 43 39 49 47 54 48 37 39 44 40 45 43 43 40 51 41 40 48 41 43 35 38 38 37 37 38 43 43 44 44 43 42 42 41 40 39 37 37 37 38 37 36
46 45 45 45 45 46 46 47 49 51 48 46 49 51 52 47 42 36 35 39 42 36 42 40 43 48 47 52 42 44 38 39 30 41 33 33 35 41 42 42 42 42 41 40 42 40 40 39 39 38 37 36 34 32
45 45 45 45 45 46 46 46 46 46 47 54 48 38 42 38 31 31 26 33 33 38 41 42 38 44 47 49 40 40 31 32 42 31 35 36 40 41 40 41 39 41 40 38 39 40 39 38 38 35 32 29 25 23
45 45 45 45 45 45 45 45 45 50 53 42 36 28 33 30 32 32 35 34 37 40 42 43 42 41 44 37 37 31 34 38 29 28 32 37 37 36 35 38 39 36 35 35 34 34 33 31 30 29 25 24 23 20
45 46 46 45 45 45 45 45 46 54 46 37 39 28 31 34 34 33 35 36 40 44 44 42 43 44 38 33 38 35 28 28 33 34 34 35 35 34 33 33 33 32 32 31 31 29 27 26 24 23 23 23 22 20
45 46 45 44 44 44 44 49 51 51 45 40 37 33 35 33 32 33 34 35 44 45 47 46 37 31 30 35 31 29 31 31 33 34 33 34 32 33 33 33 33 32 32 31 30 28 26 24 23 23 23 22 20 21
46 44 44 44 45 45 45 49 45 37 38 36 31 34 34 33 32 33 38 41 48 44 35 41 31 28 37 31 31 39 33 33 32 33 34 33 32 32 32 32 31 31 31 30 29 28 26 26 22 22 21 21 23 22
46 47 44 44 47 48 45 45 41 40 32 34 32 32 34 35 34 35 40 45 45 43 40 36 42 33 31 30 34 36 34 32 33 33 33 32 32 32 32 31 30 30 29 28 27 27 24 22 25 27 26 26 27 26
44 46 43 43 45 47 39 40 43 33 32 35 35 37 36 36 40 41 42 45 48 49 44 42 35 37 35 38 33 32 32 34 33 33 31 31 32 31 31 30 29 29 27 27 26 27 27 29 32 31 29 29 29 29
44 43 43 43 46 45 36 38 46 37 32 34 37 36 36 35 39 36 40 43 45 44 39 38 37 38 39 39 41 40 38 36 38 35 33 33 33 31 31 32 33 30 29 29 30 30 30 31 33 33 31 32 31 30
46 45 45 49 47 45 40 38 35 37 38 34 37 37 35 39 36 36 38 43 40 41 40 42 38 36 38 38 43 44 39 43 42 41 39 33 34 36 33 35 33 33 32 31 30 30 31 31 33 34 31 31 32 31
45 44 46 47 42 41 38 40 36 39 36 35 36 36 33 31 32 35 40 37 40 41 41 43 42 43 40 38 40 42 40 40 38 36 35 35 34 34 33 33 33 31 32 31 32 30 31 34 34 32 31 31 30 29
44 45 43 42 33 33 30 41 34 36 30 32 35 31 30 30 33 39 32 39 40 41 42 43 40 40 40 38 37 38 39 40 41 40 37 40 39 35 35 33 34 32 31 32 34 32 32 34 32 31 30 29 27 26
42 35 30 30 33 26 32 31 36 33 33 32 32 27 29 30 34 32 31 40 39 40 40 36 41 39 38 36 40 39 38 42 38 34 38 38 35 34 34 33 34 33 34 34 34 32 31 31 31 29 28 27 26 25
33 28 30 26 32 29 27 28 29 31 27 28 26 29 29 33 29 31 30 37 37 33 34 36 38 37 34 34 36 36 34 39 39 36 34 39 36 34 32 32 32 33 35 31 30 29 28 29 29 28 28 27 25 24
26 27 28 28 28 28 29 24 26 27 29 27 28 32 31 30 27 28 36 32 35 31 31 31 31 34 35 39 38 35 34 36 38 34 35 38 35 31 29 27 27 28 33 32 30 28 27 27 27 26 26 25 24 22
25 26 32 36 34 33 29 30 32 29 26 26 30 27 28 24 26 34 35 35 33 31 33 33 32 33 34 35 34 34 35 35 35 34 35 35 35 33 32 29 28 30 31 31 31 29 27 27 26 25 23 23 23 22
31 31 26 28 29 33 27 29 27 27 30 36 33 26 25 28 30 33 33 33 32 34 33 33 34 34 34 34 33 31 30 30 29 30 30 30 30 30 30 31 31 31 31 31 31 30 29 27 25 23 22 21 20 21
28 31 31 25 27 29 29 29 31 36 37 35 30 31 32 35 32 32 32 34 32 32 30 30 29 30 30 30 31 31 30 30 29 26 26 26 25 24 28 29 29 29 28 28 27 28 27 25 24 22 19 18 16 16
28 32 29 27 25 27 31 31 30 29 34 33 33 35 35 32 30 30 31 31 30 30 30 30 31 30 29 29 27 28 30 30 31 30 28 27 26 26 26 26 26 26 25 23 20 18 17 16 15 13 12 11 11 9
32 29 28 29 28 30 28 28 28 29 28 29 29 28 31 29 29 27 27 26 27 27 27 28 29 30 29 29 29 27 26 29 29 29 30 28 27 26 26 25 24 23 21 19 19 18 17 16 15 14 13 10 8 8
28 28 27 25 28 27 27 27 28 27 29 27 28 27 27 27 27 24 22 24 26 26 26 27 28 28 29 30 30 29 30 28 27 27 27 26 25 24 24 24 23 23 22 20 19 18 17 15 14 11 9 8 7 5
27 27 27 26 26 24 27 26 26 26 26 25 26 25 26 25 24 21 25 23 22 22 24 26 27 27 27 27 27 26 26 26 25 24 24 23 22 22 22 22 21 20 19 18 17 16 14 12 10 9 6 4 4 3

GFSWCAN_sfc_temp_120.txt.gz
Temp
45 47 48 48 48 46 47 48 48 48 49 49 49 50 50 51 52 49 45 51 46 46 51 55 59 51 51 47 39 43 41 44 41 37 36 37 37 35 38 41 36 33 30 31 32 28 27 43 41 32 34 41 40 36
45 47 48 47 48 48 47 47 48 48 49 49 49 50 50 51 52 50 44 51 51 47 48 54 54 55 54 55 49 47 46 45 45 41 43 41 34 39 40 33 47 34 38 32 29 29 35 38 37 41 43 38 36 33
45 46 47 48 47 49 47 47 47 48 49 49 49 50 50 51 50 49 46 49 46 41 40 43 43 54 60 59 60 45 50 52 50 54 46 42 36 44 35 39 39 40 42 37 33 33 34 36 41 42 40 36 37 35
45 45 46 47 48 48 48 48 48 49 49 50 50 50 50 49 50 51 45 53 51 45 35 38 55 52 59 60 59 59 57 56 56 53 45 41 38 48 39 42 40 40 40 36 30 33 34 35 36 36 36 36 35 35
45 45 45 45 46 47 47 48 48 48 48 48 49 49 49 50 51 50 49 55 56 46 35 39 51 56 58 57 56 57 54 52 50 45 43 38 43 41 41 42 39 42 35 33 32 36 36 32 34 36 33 33 34 34
46 46 45 45 45 45 46 46 46 47 48 48 48 49 49 50 51 48 40 56 59 55 43 34 50 50 54 56 54 54 54 53 53 47 43 46 47 43 35 35 36 36 37 40 36 40 37 34 35 37 34 35 36 36
46 46 46 46 46 46 46 46 46 46 47 47 48 49 50 51 53 49 45 53 53 59 46 38 39 50 54 54 52 52 55 54 53 50 46 43 43 44 36 33 34 34 35 41 39 36 31 33 31 36 37 38 39 38
45 46 46 46 47 47 47 48 48 48 48 49 50 50 51 51 51 49 51 52 49 56 53 38 37 42 53 46 45 54 49 51 51 50 49 45 43 43 34 33 34 35 39 38 38 42 37 38 38 37 39 38 36 36
45 45 46 46 46 47 47 47 48 49 50 50 50 51 54 54 49 50 48 47 60 54 42 40 35 32 50 48 48 49 52 42 50 44 46 47 42 36 36 34 34 35 37 36 40 39 38 35 36 37 37 38 36 35
45 46 46 46 46 46 47 47 48 49 50 51 55 46 34 48 46 47 53 44 48 51 51 41 47 37 47 45 44 44 47 42 36 42 48 40 39 43 44 42 40 40 42 41 37 34 35 34 35 36 37 39 38 36
46 45 46 46 46 46 47 48 49 51 51 52 44 41 50 48 51 48 39 39 43 39 45 44 45 41 51 41 40 47 40 42 35 39 38 37 36 39 44 43 44 44 44 43 43 41 40 39 37 36 37 38 37 36
46 46 45 45 46 46 46 46 51 53 51 49 50 53 53 48 43 36 35 39 41 35 42 41 43 47 47 51 43 44 38 39 30 43 35 32 35 43 44 43 42 44 43 43 43 40 38 38 39 38 38 36 34 29
45 45 45 45 45 46 46 46 47 48 48 55 48 39 42 39 32 32 27 33 32 39 42 42 38 45 47 48 41 40 32 32 42 32 33 34 38 42 41 40 39 42 41 40 40 39 36 36 38 35 28 25 24 22
46 45 45 45 45 45 46 46 47 52 53 42 36 30 33 30 31 32 34 35 39 42 42 43 41 40 43 36 38 31 34 38 29 29 31 35 39 38 38 38 37 36 34 35 34 34 33 31 27 26 26 25 22 20
46 46 46 45 45 45 46 47 48 55 47 38 39 29 30 32 33 34 37 39 43 46 44 42 42 42 38 32 38 34 29 28 32 32 32 34 36 34 33 34 33 32 31 30 31 28 27 26 24 23 23 23 22 20
47 47 45 45 45 46 46 52 52 52 46 39 36 32 34 33 32 33 34 36 46 45 46 44 37 32 31 35 32 31 32 30 31 32 33 34 33 33 33 33 32 32 32 31 29 28 26 25 23 23 23 21 20 20
47 44 43 44 45 47 48 50 46 40 38 37 32 33 34 33 32 33 38 41 47 42 34 41 32 30 38 33 33 38 31 32 32 32 32 33 32 32 32 32 32 32 31 31 29 27 25 25 23 22 19 20 22 21
48 48 44 45 48 50 47 48 43 40 32 34 32 32 34 35 34 35 39 44 43 42 41 37 42 34 32 31 32 33 32 32 32 32 32 32 32 32 33 32 32 32 31 29 28 27 25 22 23 24 24 24 24 24
44 46 44 45 46 47 40 42 45 34 32 35 35 38 38 36 39 39 42 44 47 48 43 42 35 35 33 34 32 32 32 33 31 32 31 32 32 32 32 32 31 31 29 28 27 27 26 28 29 29 28 28 26 27
46 45 44 45 49 45 38 39 47 38 33 35 38 36 36 36 39 36 40 43 43 42 39 38 34 34 34 34 36 36 35 36 35 31 29 30 32 31 31 31 31 29 28 28 28 28 29 30 32 30 29 29 27 26
48 47 47 51 48 45 40 38 35 38 38 34 38 37 35 39 36 37 38 42 39 39 37 38 34 36 39 39 43 42 40 39 38 36 35 31 33 34 32 33 32 31 30 29 28 28 28 30 31 31 29 30 30 30
47 45 47 48 42 42 38 41 38 40 37 36 36 36 32 32 32 35 40 37 38 36 37 38 40 40 39 39 40 41 41 39 39 38 36 35 33 32 33 32 32 31 31 31 31 29 30 32 32 31 30 30 30 28
46 47 44 43 34 33 31 42 35 37 31 32 35 31 30 31 33 39 33 39 36 38 41 41 40 41 38 39 39 39 41 42 40 38 37 36 36 34 34 33 34 32 31 31 33 32 32 32 31 30 31 29 27 27
44 37 31 31 33 27 34 32 38 34 34 33 32 29 29 31 35 34 33 39 36 41 39 38 42 39 39 39 39 37 39 40 35 34 37 35 32 32 32 32 33 33 33 33 32 32 32 31 31 30 29 27 26 25
33 28 31 27 34 30 29 29 30 32 28 30 29 30 29 33 31 32 33 34 35 32 32 35 39 38 34 33 34 35 36 39 35 32 34 36 33 32 30 30 31 32 33 32 30 30 29 30 29 28 27 26 25 24
26 28 30 30 30 29 30 26 28 29 30 29 29 32 33 31 28 29 34 31 33 31 31 31 32 34 35 36 34 34 35 37 37 33 34 36 33 31 29 28 28 29 34 33 31 29 28 28 27 27 27 26 24 22
26 27 33 38 36 34 30 31 33 30 27 28 30 28 29 25 27 32 34 33 32 31 33 32 32 32 32 32 33 34 35 35 34 33 34 32 32 32 32 29 28 30 32 32 31 30 28 28 27 27 25 24 23 22
32 32 27 29 30 33 29 30 29 28 30 36 33 27 27 29 28 32 31 32 32 34 33 33 33 32 32 31 31 30 29 30 30 30 29 29 29 30 31 31 31 31 32 32 31 30 30 28 25 23 22 21 20 21
30 32 32 26 28 30 30 30 31 35 35 35 30 30 32 34 32 32 32 33 32 32 31 30 29 31 30 31 31 31 30 30 28 25 25 22 23 24 29 30 30 30 30 30 29 29 27 25 24 22 20 19 18 18
30 33 30 28 26 28 30 30 30 31 34 33 33 36 35 31 29 32 32 31 31 30 30 31 31 31 29 29 27 28 31 31 31 30 28 26 24 26 27 27 26 25 24 21 20 19 20 18 17 16 14 13 13 11
32 30 29 30 30 31 29 30 30 30 30 30 31 29 31 29 27 27 26 26 27 28 28 29 30 31 30 30 28 27 26 30 30 30 29 28 27 27 26 25 24 22 21 20 19 17 16 15 14 13 12 10 8 7
29 28 29 26 28 29 30 28 29 28 30 28 29 30 29 27 27 24 23 24 26 26 27 28 29 29 31 30 30 30 31 28 28 29 28 27 25 25 25 24 23 23 22 20 20 18 17 15 14 11 9 8 7 5
29 29 29 28 27 26 28 27 28 27 27 26 27 27 27 25 22 21 25 25 23 23 24 25 27 27 28 28 27 27 27 27 27 26 25 25 24 24 24 23 23 21 20 19 18 16 14 12 11 9 7 5 3 2

GFSWCAN_sfc_temp_123.txt.gz
Temp
46 46 46 46 46 46 47 47 47 47 47 48 49 49 49 50 51 47 44 47 44 37 39 44 47 43 43 42 35 37 36 37 36 32 32 31 29 31 31 35 31 29 24 24 27 25 23 39 39 30 31 34 36 36
47 47 47 47 47 48 46 47 47 47 47 48 49 49 49 50 50 49 41 48 49 40 39 46 46 47 53 49 40 43 40 40 37 35 35 33 29 30 31 28 41 29 31 26 28 24 31 34 31 36 36 31 30 30
48 47 48 48 48 48 46 46 47 47 48 49 49 49 50 50 51 49 43 47 44 39 37 38 39 49 56 52 54 39 43 47 44 45 38 35 30 36 29 30 32 33 39 28 27 27 31 34 36 36 35 32 31 30
47 47 46 47 46 46 46 47 48 48 48 49 49 49 50 50 51 50 44 47 44 39 33 36 49 46 55 55 53 52 50 50 47 43 36 33 31 39 29 33 30 31 33 29 27 29 31 34 34 33 33 33 31 31
46 47 47 47 47 47 47 48 48 48 48 49 49 49 50 50 51 48 46 47 49 41 33 35 44 51 54 53 52 51 49 46 40 37 35 32 36 34 30 33 26 31 27 24 22 30 29 28 32 34 32 31 32 30
46 46 47 47 47 47 47 47 48 48 48 49 49 49 50 51 51 45 37 46 49 47 35 29 41 45 50 51 50 49 48 45 41 37 35 37 44 36 26 25 31 35 35 32 29 34 31 31 32 35 33 33 34 32
45 46 46 47 48 48 48 48 48 48 49 49 49 50 50 49 47 41 39 44 49 48 37 31 32 45 51 50 46 44 46 42 43 40 35 35 37 36 32 22 27 34 30 33 33 32 29 31 28 33 35 36 37 35
46 46 46 46 46 47 48 48 48 49 49 49 50 50 49 48 48 44 46 51 50 46 44 31 31 37 49 38 37 44 40 40 40 39 37 34 33 32 22 31 28 32 33 32 33 36 32 34 34 33 37 36 33 31
47 47 46 46 46 46 47 48 48 49 49 49 49 49 47 46 41 43 48 49 48 46 34 33 29 27 44 40 40 39 40 29 39 32 34 35 28 25 28 31 29 33 33 32 35 34 34 31 32 32 35 35 32 30
46 46 46 47 47 46 46 47 48 48 48 48 46 40 33 41 47 47 46 38 41 42 42 33 37 30 40 36 34 33 35 31 26 31 37 28 24 36 36 34 34 35 38 36 32 29 31 31 30 31 33 35 34 32
46 46 46 46 47 47 48 49 48 49 50 45 38 36 43 48 45 40 33 33 34 32 35 35 37 34 41 31 29 35 28 29 25 29 28 25 24 29 36 35 37 37 41 40 37 35 35 35 32 31 32 34 33 32
46 46 46 46 46 47 47 48 50 47 44 45 45 47 45 41 35 33 28 32 33 30 33 32 34 37 37 41 32 33 29 28 23 31 24 20 30 37 37 38 38 42 41 40 39 35 35 35 33 32 33 33 29 26
46 46 46 46 46 46 47 47 47 49 48 47 42 36 35 32 24 24 21 26 26 30 32 32 31 35 37 38 29 29 24 21 32 18 21 26 32 39 37 37 37 37 37 36 33 32 33 32 32 29 25 24 23 21
46 46 46 45 46 46 47 47 48 49 46 35 31 23 27 26 25 30 28 28 30 33 35 33 30 31 29 28 26 23 27 27 18 15 25 30 33 33 33 34 35 32 32 31 29 30 29 26 24 24 24 23 22 20
46 46 46 44 46 46 47 49 50 48 39 32 33 23 25 30 31 32 33 33 35 34 33 32 32 32 27 25 28 26 23 17 22 22 28 30 32 31 31 31 28 28 28 28 27 25 24 24 23 22 22 22 21 19
47 46 43 45 45 47 47 49 46 44 37 33 32 28 30 31 32 33 33 33 37 33 33 33 28 23 24 26 25 21 24 20 26 29 30 32 32 32 31 29 28 29 28 27 26 25 24 24 22 21 20 20 19 19
47 39 44 45 46 49 48 43 38 36 33 31 31 32 31 32 32 32 33 33 37 32 26 30 24 26 28 25 25 26 23 28 30 30 30 31 32 32 31 28 28 28 27 26 24 23 22 22 21 19 17 17 19 18
40 43 46 46 46 45 39 40 35 33 30 32 30 31 32 33 32 33 33 33 34 31 31 30 33 29 20 24 20 28 29 30 30 30 30 32 32 32 32 30 28 28 26 24 24 22 21 19 20 19 20 22 21 21
42 43 45 46 44 39 33 35 37 29 31 32 33 32 32 32 33 31 31 35 39 40 34 31 29 25 27 30 30 30 30 30 28 28 29 31 31 31 31 30 28 28 26 25 24 23 23 25 24 23 22 23 20 21
47 47 45 46 47 37 34 32 39 32 28 31 32 31 32 32 30 33 32 32 34 32 32 29 30 31 31 31 33 31 33 31 28 27 26 28 30 30 30 29 27 28 27 26 26 25 25 26 27 25 24 24 21 20
45 43 45 45 40 39 34 33 33 33 31 28 31 33 31 33 28 29 29 33 31 30 28 29 32 31 32 33 35 35 33 33 32 31 28 26 28 30 29 29 28 27 25 24 23 23 24 25 26 26 23 22 22 22
41 45 39 41 35 35 31 35 33 35 32 31 31 32 29 28 29 26 31 30 32 31 32 32 31 30 31 32 31 33 32 33 32 29 30 29 29 28 28 28 26 24 24 24 24 23 22 25 25 24 21 22 24 24
43 42 35 36 27 26 24 33 29 32 26 27 31 29 27 27 28 32 27 32 31 33 32 31 33 33 31 32 32 33 33 34 33 29 30 31 31 30 30 29 28 28 26 24 26 25 23 25 23 22 24 25 24 23
42 32 24 24 26 22 27 24 30 28 29 28 26 27 27 29 30 28 29 31 31 31 30 32 33 31 31 34 32 31 30 33 31 29 31 31 29 28 29 28 28 28 29 28 27 24 24 24 23 24 24 23 22 22
22 21 22 16 26 21 20 21 22 25 19 27 23 22 26 31 23 21 25 28 29 28 29 31 32 33 31 29 29 27 30 31 31 29 30 31 29 28 27 27 27 28 30 28 25 25 25 26 26 25 23 22 22 21
14 20 20 22 21 21 24 16 17 19 20 18 21 26 25 23 18 20 26 27 28 28 28 28 29 31 29 31 29 28 25 30 32 28 28 30 29 28 26 25 24 24 27 28 28 26 26 26 25 23 22 22 22 19
14 17 27 31 29 29 22 24 27 21 17 15 19 19 17 12 14 25 28 28 28 28 29 29 30 30 29 28 29 28 27 27 28 26 26 26 26 27 26 26 24 23 23 27 29 27 26 25 24 25 23 21 19 19
24 26 17 27 27 26 18 19 18 17 21 28 24 16 15 16 22 26 26 28 29 31 29 29 29 29 28 27 27 27 26 25 22 22 22 22 23 23 23 25 25 26 25 29 29 27 27 26 23 22 20 19 18 18
22 25 30 23 25 27 21 21 22 25 26 24 19 22 24 28 28 28 28 29 29 29 28 27 26 28 28 27 28 28 27 26 20 17 13 13 20 20 25 24 24 25 27 28 27 25 24 22 20 19 18 16 14 13
22 28 22 17 13 18 26 27 27 28 29 29 25 26 26 27 26 28 27 28 27 27 28 29 28 28 26 26 25 26 28 28 27 26 21 12 14 23 22 20 19 20 21 20 19 18 20 17 16 14 12 11 9 8
30 28 24 22 19 26 27 28 29 28 28 28 30 28 27 25 22 22 21 22 24 25 25 26 27 28 27 27 26 25 23 24 23 22 23 24 22 22 20 18 19 19 18 17 16 15 13 12 11 9 8 6 4 3
27 26 26 23 25 27 29 27 26 26 27 26 26 27 26 26 22 15 16 19 21 22 24 22 24 26 25 24 26 25 25 25 25 25 24 24 22 20 20 19 19 19 17 17 15 14 12 11 9 6 5 3 1 -1
28 28 24 22 25 25 24 19 24 24 25 21 23 22 23 21 14 15 18 16 17 18 18 20 23 22 22 21 20 21 23 24 24 24 23 22 22 22 21 21 19 18 17 15 13 11 9 8 6 4 1 -0 -2 -5